[[{"header":{"parameterUnit":"m.s-1","parameterCategory":1,"la1":30.6,"la2":28.766,"lo1":-90.7593,"lo2":-88.6598,"dy":0.0162,"dx":0.0183,"nx":116,"ny":114,"refTime":"2023-05-08T12:00:00:Z","depth":0,"parameterNumber":2,"parameterNumberName":"U-component_of_WINDS"},"data":[0.0,0.0,0.0,0.0,0.0,0.0,0.0,0.0,0.0,0.0,0.0,0.0,0.0,0.0,0.0,0.0,0.0,0.0,0.0,0.0,0.0,0.0,0.0,0.0,0.0,0.0,0.0,0.0,0.0,0.0,0.0,0.0,0.0,0.0,0.0,0.0,0.0,0.0,0.0,0.0,0.0,0.0,0.0,0.0,0.0,0.0,0.0,0.0,0.0,0.0,0.0,0.0,0.0,0.0,0.0,0.0,0.0,0.0,0.0,0.0,0.0,0.0,0.0,0.0,0.0,0.0,0.0,0.0,0.0,0.0,0.0,0.0,0.0,0.0,0.0,0.0,0.0,0.0,0.0,0.0,0.0,0.0,0.0,0.0,0.0,0.0,0.0,0.0,0.0,0.0,0.0,0.0,0.0,0.0,0.0,0.0,0.0,0.0,0.0,0.0,0.0,0.0,0.0,0.0,0.0,0.0,0.0,0.0,0.0,0.0,0.0,0.0,0.0,0.0,0.0,0.0,0.0,0.0,0.0,0.0,0.0,0.0,0.0,0.0,0.0,0.0,0.0,0.0,0.0,0.0,0.0,0.0,0.0,0.0,0.0,0.0,0.0,0.0,0.0,0.0,0.0,0.0,0.0,0.0,0.0,0.0,0.0,0.0,0.0,0.0,0.0,0.0,0.0,0.0,0.0,0.0,0.0,0.0,0.0,0.0,0.0,0.0,0.0,0.0,0.0,0.0,0.0,0.0,0.0,0.0,0.0,0.0,0.0,0.0,0.0,0.0,0.0,0.0,0.0,0.0,0.0,0.0,0.0,0.0,0.0,0.0,0.0,0.0,0.0,0.0,0.0,0.0,0.0,0.0,0.0,0.0,0.0,0.0,0.0,0.0,0.0,0.0,0.0,0.0,0.0,0.0,0.0,0.0,0.0,0.0,0.0,0.0,0.0,0.0,0.0,0.0,0.0,0.0,0.0,0.0,0.0,0.0,0.0,0.0,0.0,0.0,0.0,0.0,0.0,0.0,0.0,0.0,0.0,0.0,0.0,0.0,0.0,0.0,0.0,0.0,0.0,0.0,0.0,0.0,0.0,0.0,0.0,0.0,0.0,0.0,0.0,0.0,0.0,0.0,0.0,0.0,0.0,0.0,0.0,0.0,0.0,0.0,0.0,0.0,0.0,0.0,0.0,0.0,0.0,0.0,0.0,0.0,0.0,0.0,0.0,0.0,0.0,0.0,0.0,0.0,0.0,0.0,0.0,0.0,0.0,0.0,0.0,0.0,0.0,0.0,0.0,0.0,0.0,0.0,0.0,0.0,0.0,0.0,0.0,0.0,0.0,0.0,0.0,0.0,0.0,0.0,0.0,0.0,0.0,0.0,0.0,0.0,0.0,0.0,0.0,0.0,0.0,0.0,0.0,0.0,0.0,0.0,0.0,0.0,0.0,0.0,0.0,0.0,0.0,0.0,0.0,0.0,0.0,0.0,0.0,0.0,0.0,0.0,0.0,0.0,0.0,0.0,0.0,0.0,0.0,0.0,0.0,0.0,0.0,0.0,0.0,0.0,0.0,0.0,0.0,0.0,0.0,0.0,0.0,0.0,0.0,0.0,0.0,0.0,0.0,0.0,0.0,0.0,0.0,0.0,0.0,0.0,0.0,0.0,0.0,0.0,0.0,0.0,0.0,0.0,0.0,0.0,0.0,0.0,0.0,0.0,0.0,0.0,0.0,0.0,0.0,0.0,0.0,0.0,0.0,0.0,0.0,0.0,0.0,0.0,0.0,0.0,0.0,0.0,0.0,0.0,0.0,0.0,0.0,0.0,0.0,0.0,0.0,0.0,0.0,0.0,0.0,0.0,0.0,0.0,0.0,0.0,0.0,0.0,0.0,0.0,0.0,0.0,0.0,0.0,0.0,0.0,0.0,0.0,0.0,0.0,0.0,0.0,0.0,0.0,0.0,0.0,0.0,0.0,0.0,0.0,0.0,0.0,0.0,0.0,0.0,0.0,0.0,0.0,0.0,0.0,0.0,0.0,0.0,0.0,0.0,0.0,0.0,0.0,0.0,0.0,0.0,0.0,0.0,0.0,0.0,0.0,0.0,0.0,0.0,0.0,0.0,0.0,0.0,0.0,0.0,0.0,0.0,0.0,0.0,0.0,0.0,0.0,0.0,0.0,0.0,0.0,0.0,0.0,0.0,0.0,0.0,0.0,0.0,0.0,0.0,0.0,0.0,0.0,0.0,0.0,0.0,0.0,0.0,0.0,0.0,0.0,0.0,0.0,0.0,0.0,0.0,0.0,0.0,0.0,0.0,0.0,0.0,0.0,0.0,0.0,0.0,0.0,0.0,0.0,0.0,0.0,0.0,0.0,0.0,0.0,0.0,0.0,0.0,0.0,0.0,0.0,0.0,0.0,0.0,0.0,0.0,0.0,0.0,0.0,0.0,0.0,0.0,0.0,0.0,0.0,0.0,0.0,0.0,0.0,0.0,0.0,0.0,0.0,0.0,0.0,0.0,0.0,0.0,0.0,0.0,0.0,0.0,0.0,0.0,0.0,0.0,0.0,0.0,0.0,0.0,0.0,0.0,0.0,0.0,0.0,0.0,0.0,0.0,0.0,0.0,0.0,0.0,0.0,0.0,0.0,0.0,0.0,0.0,0.0,0.0,0.0,0.0,0.0,0.0,0.0,0.0,0.0,0.0,0.0,0.0,0.0,0.0,0.0,0.0,0.0,0.0,0.0,0.0,0.0,0.0,0.0,0.0,0.0,0.0,0.0,0.0,0.0,0.0,0.0,0.0,0.0,0.0,0.0,0.0,0.0,0.0,0.0,0.0,0.0,0.0,0.0,0.0,0.0,0.0,0.0,0.0,0.0,0.0,0.0,0.0,0.0,0.0,0.0,0.0,0.0,0.0,0.0,0.0,0.0,0.0,0.0,0.0,0.0,0.0,0.0,0.0,0.0,0.0,0.0,0.0,0.0,0.0,0.0,0.0,0.0,0.0,0.0,0.0,0.0,0.0,0.0,0.0,0.0,0.0,0.0,0.0,0.0,0.0,0.0,0.0,0.0,0.0,0.0,0.0,0.0,0.0,0.0,0.0,0.0,0.0,0.0,0.0,0.0,0.0,0.0,0.0,0.0,0.0,0.0,0.0,0.0,0.0,0.0,0.0,0.0,0.0,0.0,0.0,0.0,0.0,0.0,0.0,0.0,0.0,0.0,0.0,0.0,0.0,0.0,0.0,0.0,0.0,0.0,0.0,0.0,0.0,0.0,0.0,0.0,0.0,0.0,0.0,0.0,0.0,0.0,0.0,0.0,0.0,0.0,0.0,0.0,0.0,0.0,0.0,0.0,0.0,0.0,0.0,0.0,0.0,0.0,0.0,0.0,0.0,0.0,0.0,0.0,0.0,0.0,0.0,0.0,0.0,0.0,0.0,0.0,0.0,0.0,0.0,0.0,0.0,0.0,0.0,0.0,0.0,0.0,0.0,0.0,0.0,0.0,0.0,0.0,0.0,0.0,0.0,0.0,0.0,0.0,0.0,0.0,0.0,0.0,0.0,0.0,0.0,0.0,0.0,0.0,0.0,0.0,0.0,0.0,0.0,0.0,0.0,0.0,0.0,0.0,0.0,0.0,0.0,0.0,0.0,0.0,0.0,0.0,0.0,0.0,0.0,0.0,0.0,0.0,0.0,0.0,0.0,0.0,0.0,0.0,0.0,0.0,0.0,0.0,0.0,0.0,0.0,0.0,0.0,0.0,0.0,0.0,0.0,0.0,0.0,0.0,0.0,0.0,0.0,0.0,0.0,0.0,0.0,0.0,0.0,0.0,0.0,0.0,0.0,0.0,0.0,0.0,0.0,0.0,0.0,0.0,0.0,0.0,0.0,0.0,0.0,0.0,0.0,0.0,0.0,0.0,0.0,0.0,0.0,0.0,0.0,0.0,0.0,0.0,0.0,0.0,0.0,0.0,0.0,0.0,0.0,0.0,0.0,0.0,0.0,0.0,0.0,0.0,0.0,0.0,0.0,0.0,0.0,0.0,0.0,0.0,0.0,0.0,0.0,0.0,0.0,0.0,0.0,0.0,0.0,0.0,0.0,0.0,0.0,0.0,0.0,0.0,0.0,0.0,0.0,0.0,0.0,0.0,0.0,0.0,0.0,0.0,0.0,0.0,0.0,0.0,0.0,0.0,0.0,0.0,0.0,0.0,0.0,0.0,0.0,0.0,0.0,0.0,0.0,0.0,0.0,0.0,0.0,0.0,0.0,0.0,0.0,0.0,0.0,0.0,0.0,0.0,0.0,0.0,0.0,0.0,0.0,0.0,0.0,0.0,0.0,0.0,0.0,0.0,0.0,0.0,0.0,0.0,0.0,0.0,0.0,0.0,0.0,0.0,0.0,0.0,0.0,0.0,0.0,0.0,0.0,0.0,0.0,0.0,0.0,0.0,0.0,0.0,0.0,0.0,0.0,0.0,0.0,0.0,0.0,0.0,0.0,0.0,0.0,0.0,0.0,0.0,0.0,0.0,0.0,0.0,0.0,0.0,0.0,0.0,0.0,0.0,0.0,0.0,0.0,0.0,0.0,0.0,0.0,0.0,0.0,0.0,0.0,0.0,0.0,0.0,0.0,0.0,0.0,0.0,0.0,0.0,0.0,0.0,0.0,0.0,0.0,0.0,0.0,0.0,0.0,0.0,0.0,0.0,0.0,0.0,0.0,0.0,0.0,0.0,0.0,0.0,0.0,0.0,0.0,0.0,0.0,0.0,0.0,0.0,0.0,0.0,0.0,0.0,0.0,0.0,0.0,0.0,0.0,0.0,0.0,0.0,0.0,0.0,0.0,0.0,0.0,0.0,0.0,0.0,0.0,0.0,0.0,0.0,0.0,0.0,0.0,0.0,0.0,0.0,0.0,0.0,0.0,0.0,0.0,0.0,0.0,0.0,0.0,0.0,0.0,0.0,0.0,0.0,0.0,0.0,0.0,0.0,0.0,0.0,0.0,0.0,0.0,0.0,0.0,0.0,0.0,0.0,0.0,0.0,0.0,0.0,0.0,0.0,0.0,0.0,0.0,0.0,0.0,0.0,0.0,0.0,0.0,0.0,0.0,0.0,0.0,0.0,0.0,0.0,0.0,0.0,0.0,0.0,0.0,0.0,0.0,0.0,0.0,0.0,0.0,0.0,0.0,0.0,0.0,0.0,0.0,0.0,0.0,0.0,0.0,0.0,0.0,0.0,0.0,0.0,0.0,0.0,0.0,0.0,0.0,0.0,0.0,0.0,0.0,0.0,0.0,0.0,0.0,0.0,0.0,0.0,0.0,0.0,0.0,0.0,0.0,0.0,0.0,0.0,0.0,0.0,0.0,0.0,0.0,0.0,0.0,0.0,0.0,0.0,0.0,0.0,0.0,0.0,0.0,0.0,0.0,0.0,0.0,0.0,0.0,0.0,0.0,0.0,0.0,0.0,0.0,0.0,0.0,0.0,0.0,0.0,0.0,0.0,0.0,0.0,0.0,0.0,0.0,0.0,0.0,0.0,0.0,0.0,0.0,0.0,0.0,0.0,0.0,0.0,0.0,0.0,0.0,0.0,0.0,0.0,0.0,0.0,0.0,0.0,0.0,0.0,0.0,0.0,0.0,0.0,0.0,0.0,0.0,0.0,0.0,0.0,0.0,0.0,0.0,0.0,0.0,0.0,0.0,0.0,0.0,0.0,0.0,0.0,0.0,0.0,0.0,0.0,0.0,0.0,0.0,0.0,0.0,0.0,0.0,0.0,0.0,0.0,0.0,0.0,0.0,0.0,0.0,0.0,0.0,0.0,0.0,0.0,0.0,0.0,0.0,0.0,0.0,0.0,0.0,0.0,0.0,0.0,0.0,0.0,0.0,0.0,0.0,0.0,0.0,0.0,0.0,0.0,0.0,0.0,0.0,0.0,0.0,0.0,0.0,0.0,0.0,0.0,0.0,0.0,0.0,0.0,0.0,0.0,0.0,0.0,0.0,0.0,0.0,0.0,0.0,0.0,0.0,0.0,0.0,0.0,0.0,0.0,0.0,0.0,0.0,0.0,0.0,0.0,0.0,0.0,0.0,0.0,0.0,0.0,0.0,0.0,-4.5502,-4.6409,0.0,0.0,0.0,0.0,0.0,0.0,0.0,0.0,0.0,0.0,0.0,0.0,0.0,0.0,0.0,0.0,0.0,0.0,0.0,0.0,0.0,0.0,0.0,0.0,0.0,0.0,0.0,0.0,0.0,0.0,0.0,0.0,0.0,0.0,0.0,0.0,0.0,0.0,-3.9697,-3.9697,-3.9749,-4.082,-4.1815,-4.2792,0.0,0.0,0.0,0.0,0.0,0.0,0.0,0.0,0.0,0.0,0.0,0.0,0.0,0.0,0.0,0.0,0.0,0.0,0.0,0.0,0.0,0.0,0.0,0.0,0.0,0.0,0.0,0.0,0.0,0.0,0.0,0.0,0.0,0.0,0.0,0.0,0.0,0.0,0.0,0.0,0.0,0.0,0.0,0.0,0.0,0.0,0.0,0.0,0.0,0.0,0.0,0.0,0.0,0.0,0.0,0.0,0.0,0.0,0.0,0.0,0.0,0.0,0.0,0.0,0.0,0.0,0.0,0.0,0.0,0.0,-4.4261,-4.4642,0.0,0.0,0.0,0.0,0.0,0.0,0.0,0.0,0.0,0.0,0.0,0.0,0.0,0.0,0.0,0.0,0.0,0.0,0.0,0.0,0.0,0.0,0.0,-3.9697,-3.9697,-3.9645,-3.9645,-3.9645,0.0,0.0,0.0,0.0,0.0,0.0,0.0,-3.9542,-3.9413,-3.9258,-3.9124,-3.9173,-3.9407,-3.9454,-4.0517,-4.2404,-4.2289,0.0,0.0,0.0,0.0,0.0,0.0,0.0,0.0,0.0,0.0,0.0,0.0,0.0,0.0,0.0,0.0,0.0,0.0,0.0,0.0,0.0,0.0,0.0,0.0,0.0,0.0,0.0,0.0,0.0,0.0,0.0,0.0,0.0,0.0,0.0,0.0,0.0,0.0,0.0,0.0,0.0,0.0,0.0,0.0,0.0,0.0,0.0,0.0,0.0,0.0,0.0,0.0,0.0,0.0,0.0,0.0,0.0,0.0,0.0,0.0,0.0,0.0,0.0,-4.3853,-4.4015,-4.404,-4.4148,-4.4263,-4.4314,-4.3904,-4.3649,-4.3478,-4.3751,0.0,0.0,0.0,0.0,0.0,0.0,0.0,0.0,0.0,0.0,0.0,0.0,0.0,0.0,0.0,0.0,0.0,0.0,0.0,0.0,0.0,-3.9594,-3.9594,-3.9362,-3.9362,-3.9362,-3.9362,0.0,0.0,0.0,0.0,0.0,-3.8893,-3.8893,-3.8449,-3.7471,-3.6709,-3.6994,-3.8136,-3.8477,-3.9406,-4.0707,-4.0307,-4.09,-4.218,0.0,0.0,0.0,0.0,0.0,0.0,0.0,0.0,0.0,0.0,0.0,0.0,0.0,0.0,0.0,0.0,0.0,0.0,0.0,0.0,0.0,0.0,0.0,0.0,0.0,0.0,0.0,0.0,0.0,0.0,0.0,0.0,0.0,0.0,0.0,0.0,0.0,0.0,0.0,0.0,0.0,-4.0629,-4.1106,0.0,0.0,0.0,0.0,0.0,0.0,0.0,0.0,0.0,0.0,0.0,0.0,0.0,-4.3098,-4.3017,-4.3576,-4.3803,-4.3746,-4.4224,-4.4533,-4.4508,-4.4048,-4.4123,-4.4526,-4.3551,0.0,-4.3746,-4.3803,0.0,0.0,0.0,0.0,0.0,0.0,0.0,0.0,0.0,0.0,0.0,0.0,0.0,0.0,0.0,0.0,0.0,0.0,0.0,0.0,0.0,-3.9102,-3.9154,-3.905,-3.8449,-3.8344,-3.8998,-3.766,0.0,0.0,0.0,-3.6834,-3.6834,-3.6834,-3.6704,-3.6434,-3.6083,-3.6331,-3.7188,-3.736,-3.7734,-3.8241,-3.8052,-3.9091,-4.0999,-4.0998,0.0,0.0,0.0,0.0,0.0,0.0,0.0,0.0,0.0,0.0,0.0,0.0,0.0,0.0,0.0,0.0,0.0,0.0,0.0,0.0,0.0,0.0,0.0,0.0,0.0,0.0,0.0,0.0,0.0,0.0,0.0,0.0,0.0,0.0,0.0,0.0,0.0,0.0,0.0,-4.0425,-4.0899,-4.0824,-4.1204,-4.1204,0.0,0.0,0.0,0.0,0.0,0.0,0.0,0.0,0.0,-4.2961,-4.3589,-4.389,-4.389,-4.3366,-4.3115,-4.3115,-4.2567,-4.2329,-4.2329,-4.2436,-4.258,-4.2795,-4.2628,-4.2341,-4.2136,-4.2995,-4.2793,-4.1923,0.0,0.0,0.0,0.0,-4.05,-4.0036,0.0,0.0,0.0,0.0,0.0,0.0,0.0,0.0,0.0,0.0,0.0,0.0,-3.8736,-3.8502,-3.8344,-3.8238,-3.718,-3.6911,-3.7737,-3.6077,-3.5476,-3.6371,-3.553,-3.509,-3.509,-3.4869,-3.4943,-3.5238,-3.5135,-3.5439,-3.6136,-3.6209,-3.6509,-3.68,-3.68,-3.7963,-3.9883,-4.0006,-4.0108,-4.009,0.0,0.0,0.0,0.0,0.0,0.0,0.0,0.0,0.0,0.0,0.0,0.0,0.0,0.0,0.0,0.0,0.0,0.0,0.0,0.0,0.0,0.0,0.0,0.0,0.0,0.0,0.0,0.0,0.0,0.0,0.0,0.0,0.0,0.0,0.0,0.0,0.0,-4.1103,-4.1706,-4.1028,-4.1883,-4.1935,0.0,0.0,0.0,0.0,0.0,0.0,-4.1058,-4.2087,-4.2732,-4.2732,-4.3517,-4.3934,-4.3934,-4.3096,-4.2611,-4.2468,-4.163,-4.1136,-4.1021,-4.1289,-4.145,-4.1587,-4.1725,-4.1397,-4.0762,-4.1938,-4.1686,-4.0616,-4.0616,-4.0036,-3.9157,-3.9098,-3.8771,-3.8444,0.0,0.0,0.0,0.0,0.0,0.0,0.0,0.0,0.0,0.0,0.0,-3.8684,-3.8473,-3.7684,-3.7073,-3.6727,-3.5695,-3.5035,-3.509,-3.4703,-3.4447,-3.4558,-3.4503,-3.4447,-3.4447,-3.3769,-3.3443,-3.3464,-3.3095,-3.3576,-3.4833,-3.527,-3.6091,-3.7281,-3.7281,-3.8028,-3.9292,-3.8272,-3.918,-4.1133,-4.0422,0.0,0.0,0.0,0.0,0.0,0.0,0.0,0.0,0.0,0.0,0.0,0.0,0.0,0.0,0.0,0.0,0.0,0.0,0.0,0.0,0.0,0.0,0.0,0.0,0.0,0.0,0.0,0.0,0.0,0.0,0.0,0.0,0.0,0.0,0.0,0.0,0.0,0.0,-4.2263,-4.2846,0.0,0.0,0.0,0.0,-3.8355,-3.9602,-4.0426,-4.0449,-4.1387,-4.1977,-4.1977,-4.2046,-4.2069,-4.2069,-4.255,-4.2573,-4.2155,-4.2573,-4.255,-4.2109,-4.161,-4.1656,-4.2109,-4.109,-4.0678,-4.0732,-4.0762,-4.0246,-3.9275,-3.9275,-3.9275,-3.9157,-3.8839,-3.7718,-3.6313,0.0,0.0,0.0,0.0,0.0,0.0,0.0,0.0,-3.6664,-3.6664,-3.6935,-3.7096,-3.6989,-3.6287,-3.5748,-3.5636,-3.4566,-3.4225,-3.4962,-3.2916,-3.204,-3.2804,-3.2097,-3.1987,-3.2519,-3.2292,-3.2415,-3.2994,-3.2883,-3.3178,-3.3851,-3.401,-3.434,-3.4819,-3.4819,-3.5498,-3.6823,-3.7479,-3.8273,-3.899,-3.9387,-3.9673,0.0,0.0,0.0,0.0,0.0,0.0,0.0,0.0,0.0,0.0,0.0,0.0,0.0,0.0,0.0,0.0,0.0,0.0,0.0,0.0,0.0,0.0,0.0,0.0,0.0,0.0,0.0,0.0,0.0,0.0,0.0,0.0,0.0,0.0,0.0,0.0,0.0,-4.1757,-4.3769,0.0,-4.1153,-4.0598,-4.0175,-3.974,-4.0173,-4.0666,-4.1004,-4.1778,-4.203,-4.1694,-4.2073,-4.2231,-4.2231,-4.1573,-4.1195,-4.1021,-4.0366,-3.9892,-3.9703,-3.9217,-3.9091,-3.9284,-3.8606,-3.8058,-3.7572,-3.7551,-3.7749,-3.797,-3.7708,-3.7188,-3.642,-3.6053,-3.5392,-3.4653,0.0,0.0,0.0,0.0,0.0,0.0,0.0,0.0,-3.6042,-3.5853,-3.5875,-3.5808,-3.5608,-3.494,-3.4482,-3.4482,-3.3406,-3.2994,-3.3639,-3.1506,-3.0515,-3.1142,-3.071,-3.0781,-3.1504,-3.1797,-3.2226,-3.2793,-3.293,-3.3144,-3.3418,-3.3418,-3.3418,-3.3418,-3.3418,-3.3902,-3.4819,-3.5827,-3.6778,-3.7633,-3.8286,-3.8864,-3.9303,0.0,0.0,0.0,0.0,0.0,0.0,0.0,0.0,0.0,0.0,0.0,0.0,0.0,0.0,0.0,0.0,0.0,0.0,0.0,0.0,0.0,0.0,0.0,0.0,0.0,0.0,0.0,0.0,0.0,0.0,0.0,0.0,0.0,0.0,-4.197,-4.3422,-4.1176,-4.3611,-4.4231,-4.1177,-4.0736,-4.047,-4.0061,-4.0289,-4.0654,-4.0991,-4.1589,-4.1645,-4.1219,-4.1671,-4.1779,-4.1503,-4.073,-4.0271,-3.9958,-3.9048,-3.8567,-3.8357,-3.7944,-3.7722,-3.7702,-3.726,-3.6656,-3.5972,-3.5972,-3.6198,-3.651,-3.6156,-3.55,-3.4673,-3.436,-3.3875,-3.3396,0.0,0.0,0.0,0.0,0.0,0.0,0.0,-3.528,-3.5384,-3.4728,-3.5077,-3.5097,-3.4437,-3.3711,-3.3252,-3.3231,-3.2215,-3.1348,-3.0918,-3.0449,-3.0,-2.9646,-3.041,-3.1074,-3.1523,-3.2363,-3.2793,-3.2812,-3.3223,-3.3418,-3.3418,-3.3418,-3.3418,-3.3418,-3.3418,-3.3418,-3.3418,-3.3437,-3.4901,-3.7226,-3.7022,-3.7727,-3.8874,0.0,0.0,0.0,0.0,0.0,0.0,0.0,0.0,0.0,0.0,0.0,0.0,0.0,0.0,0.0,0.0,0.0,0.0,0.0,0.0,0.0,0.0,0.0,0.0,0.0,0.0,0.0,0.0,0.0,0.0,0.0,0.0,0.0,-3.7677,-4.1148,-4.2884,-4.0824,-4.2236,-4.2492,-4.0462,-3.9911,-3.9562,-3.912,-3.981,-4.0292,-4.0271,-4.0767,-4.0807,-4.0418,-4.0767,-4.0566,-3.9662,-4.0157,-3.9935,-3.909,-3.909,-3.8869,-3.8397,-3.7915,-3.7694,-3.7654,-3.73,-3.6837,-3.6349,-3.6329,-3.5806,-3.5047,-3.4561,-3.4381,-3.436,-3.3985,-3.3386,-3.2534,0.0,0.0,0.0,0.0,0.0,0.0,0.0,-3.528,-3.5659,-3.5907,-3.4865,-3.4153,-3.4403,-3.3252,-3.2376,-3.1999,-3.1977,-3.168,-3.0937,-3.0176,-2.9744,-2.957,-3.0098,-3.0898,-3.1973,-3.2519,-3.2949,-3.3242,-3.3359,-3.3418,-3.3418,-3.3418,-3.3418,-3.3418,-3.3418,-3.3418,-3.3437,-3.375,-3.4334,-3.5035,-3.5602,-3.657,-3.7725,0.0,0.0,0.0,0.0,0.0,0.0,0.0,0.0,0.0,0.0,0.0,0.0,0.0,0.0,0.0,0.0,0.0,0.0,0.0,0.0,0.0,0.0,0.0,0.0,0.0,0.0,0.0,0.0,0.0,0.0,0.0,-3.7816,-3.8851,-3.8916,-4.1441,-4.2667,-4.1078,-4.29,-4.3425,-4.1083,-4.0798,-4.0534,-4.0023,-4.0294,-4.0397,-4.036,-4.0551,-4.0459,-4.0026,-4.0125,-3.9908,-3.9318,-3.9436,-3.922,-3.8761,-3.8761,-3.8701,-3.8491,-3.8058,-3.7685,-3.737,-3.7006,-3.6395,-3.5618,-3.5284,-3.4877,-3.4384,-3.4521,-3.4326,-3.3985,-3.367,-3.3015,-3.2232,0.0,0.0,0.0,0.0,0.0,0.0,0.0,-3.5137,-3.5346,-3.5604,-3.4683,-3.3932,-3.3711,-3.3094,-3.2376,-3.1602,-3.1582,-3.1426,-3.0918,-3.0059,-2.9726,-3.0117,-3.0527,-3.1269,-3.2402,-3.2851,-3.3184,-3.3418,-3.3418,-3.3418,-3.3418,-3.3613,-3.3594,-3.3437,-3.3613,-3.3691,-3.3711,-3.3965,-3.4277,-3.4655,-3.4956,-3.5872,-3.7015,-3.7532,-3.8201,-3.9047,-3.9363,-3.9738,-4.0032,-3.9726,0.0,0.0,0.0,0.0,0.0,0.0,0.0,0.0,0.0,0.0,0.0,0.0,0.0,0.0,0.0,0.0,0.0,0.0,0.0,0.0,0.0,0.0,0.0,0.0,-3.7959,-3.884,-3.9729,-4.128,-4.1907,-4.0868,-4.2231,-4.2708,-4.1262,-4.1166,-4.1067,-4.0735,-4.0798,-4.076,-4.0715,-4.0798,-4.0605,-4.0176,-4.0332,-4.0137,-3.9492,-3.9492,-3.9277,-3.8828,-3.8652,-3.8574,-3.8555,-3.7949,-3.7539,-3.7266,-3.666,-3.6113,-3.5625,-3.5371,-3.4883,-3.4297,0.0,0.0,0.0,0.0,-3.2851,-3.2305,0.0,0.0,0.0,0.0,0.0,0.0,0.0,-3.4969,-3.479,-3.4814,-3.4693,-3.416,-3.3035,-3.3095,-3.2761,-3.1564,-3.1055,-3.0801,-3.0742,-2.9961,-2.9922,-3.0859,-3.1289,-3.1914,-3.2773,-3.3203,-3.3418,-3.3418,-3.3418,-3.3418,-3.3437,-3.3828,-3.3828,-3.3516,-3.3848,-3.4062,-3.4141,-3.4141,-3.4629,-3.5351,-3.5,-3.5525,-3.6547,-3.6678,-3.7584,-3.8911,-3.9476,-3.9581,-3.9602,-4.0194,0.0,0.0,0.0,0.0,0.0,0.0,0.0,0.0,0.0,0.0,0.0,0.0,0.0,0.0,0.0,0.0,0.0,0.0,0.0,0.0,0.0,0.0,0.0,0.0,-3.8337,-3.8281,-4.0254,-4.0853,-4.0969,-4.0605,-4.0937,-4.1172,-4.1172,-4.1172,-4.1172,-4.1172,-4.1172,-4.1172,-4.1172,-4.1172,0.0,0.0,0.0,-4.0781,-3.998,-3.9922,-3.9668,-3.9199,-3.8769,-3.8555,-3.8476,-3.7715,-3.7324,-3.7187,-3.6426,-3.6074,-3.6016,-3.5918,-3.5351,-3.4473,-3.3711,-3.3418,-3.3359,-3.2891,-3.2734,-3.2598,0.0,0.0,0.0,0.0,0.0,0.0,0.0,-3.4969,-3.511,-3.5938,-3.5212,-3.4479,-3.4115,-3.3317,-3.2313,-3.1133,-3.0586,-3.0195,-2.9844,-2.9336,-2.959,-3.084,-3.1289,-3.1914,-3.2773,-3.3203,-3.3418,-3.3418,-3.3418,-3.3418,-3.3418,-3.3516,-3.3691,-3.3945,-3.3672,-3.3926,-3.457,-3.457,-3.4883,-3.541,-3.5664,-3.5701,-3.5726,-3.6435,-3.6874,-3.7234,-3.7932,-3.8464,-3.8687,-3.7998,-3.867,-3.9847,-3.9488,-3.977,0.0,0.0,0.0,0.0,0.0,0.0,0.0,0.0,0.0,0.0,0.0,0.0,0.0,0.0,0.0,0.0,0.0,0.0,0.0,-3.7758,-3.8694,-3.9668,-4.041,-4.0897,-4.1113,-4.1055,-4.1113,-4.1172,-4.1172,-4.1172,-4.1172,-4.1172,-4.1172,-4.1172,-4.1172,-4.1172,-4.1133,-4.1055,-4.1133,-4.0918,-4.041,-4.0059,-3.9668,-3.9199,-3.8769,0.0,-3.8047,-3.7871,-3.7441,-3.6777,-3.6621,-3.6348,-3.5957,-3.5254,-3.4453,-3.3652,-3.3496,-3.3418,-3.332,-3.2559,-3.2285,-3.2168,0.0,0.0,0.0,0.0,0.0,0.0,0.0,-3.5475,-3.5259,-3.5905,-3.5473,-3.4935,-3.4558,-3.3508,-3.2371,-3.116,-3.0339,-2.9785,-2.9646,-2.9785,-3.0391,-3.1484,-3.1934,-3.2461,-3.3105,-3.332,-3.3418,-3.3418,-3.3418,-3.3418,-3.3437,-3.3652,-3.3867,-3.4082,-3.4062,-3.4434,-3.5039,-3.5039,-3.5312,-3.5723,-3.5937,-3.5898,-3.5751,-3.6163,-3.6648,-3.7115,-3.7971,-3.853,-3.8888,-3.8846,-3.9289,-3.9833,-3.9588,-3.9415,-3.9268,0.0,0.0,0.0,0.0,0.0,0.0,0.0,0.0,0.0,0.0,0.0,0.0,0.0,0.0,-3.6582,-3.6596,0.0,-3.8326,-3.8804,-3.9824,-4.0684,-4.1094,-4.1543,-4.1641,-4.123,-4.1172,-4.1172,-4.1172,-4.1172,-4.1172,-4.1172,-4.1172,-4.1172,-4.1172,-4.1172,-4.1172,-4.1172,-4.1172,-4.1074,-4.084,-4.0215,-3.9785,-3.9551,-3.8887,-3.834,-3.791,-3.7715,-3.7266,-3.666,-3.6445,-3.623,-3.5957,-3.5059,-3.4453,-3.4023,-3.3594,-3.3418,-3.3379,-3.2949,-3.2793,-3.2695,0.0,0.0,0.0,0.0,0.0,0.0,0.0,-3.6213,-3.5599,-3.5644,-3.5667,-3.5384,-3.4676,-3.3742,-3.2596,-3.1063,-3.0258,-2.979,-2.9744,-3.0351,-3.1211,-3.2246,-3.2617,-3.2988,-3.3418,-3.3418,-3.3418,-3.3418,-3.3418,-3.3418,-3.3437,-3.3867,-3.4121,-3.4219,-3.4551,-3.5,-3.5508,-3.543,-3.5684,-3.6133,-3.6055,-3.6074,-3.6133,-3.6055,-3.6515,-3.7269,-3.7948,-3.8412,-3.8784,-3.9553,-3.9728,-3.969,-3.969,-3.9261,-3.8673,-3.7667,-3.7475,0.0,0.0,0.0,0.0,0.0,0.0,0.0,0.0,-3.5936,-3.543,-3.6673,-3.6542,-3.6445,-3.748,-3.8164,-3.9004,-4.043,-4.1074,-4.1543,-4.1875,-4.2207,-4.2148,-4.1387,-4.1289,-4.1269,-4.1172,-4.1172,-4.1172,-4.1172,-4.1172,-4.1172,-4.1172,-4.1172,-4.1172,-4.1172,-4.1172,-4.1133,-4.1055,-4.0293,-3.9844,-3.9746,-3.8867,-3.8223,-3.7793,-3.7363,-3.6953,-3.6523,-3.6172,-3.5918,-3.5703,-3.5,-3.4609,-3.4375,-3.3691,-3.3418,-3.3418,-3.332,-3.3242,-3.3125,0.0,0.0,0.0,0.0,0.0,0.0,0.0,0.0,-3.6578,-3.6039,-3.5964,-3.5585,-3.4676,-3.42,-3.2871,-3.0255,-3.029,-3.0397,-3.0135,-3.0215,-3.0996,-3.2656,-3.2773,-3.2988,-3.3418,-3.3418,-3.3418,-3.3418,-3.3418,-3.3418,-3.3437,-3.3867,-3.4277,-3.4629,-3.4668,-3.5156,-3.5918,-3.5547,-3.5859,-3.6562,-3.6172,-3.625,-3.6562,-3.6172,-3.6299,-3.676,-3.6396,-3.6612,-3.6946,-3.6649,-3.7564,-3.8823,-3.8823,-3.9566,-4.0105,-3.8342,-3.7558,-3.6839,-3.4937,-3.5141,-3.6005,-3.6353,-3.6453,-3.6811,0.0,-3.7676,-3.7261,-3.8164,-3.8549,-3.8828,-3.8965,-3.998,-4.0879,-4.1074,-4.1777,-4.2305,-4.2344,-4.2402,-4.2246,-4.1777,-4.1738,-4.1582,-4.1211,-4.1172,-4.1172,-4.1172,-4.1172,-4.1172,-4.1172,-4.1172,-4.1172,-4.1172,-4.1172,-4.0996,-4.0605,-4.0137,-3.9687,-3.9277,-3.8398,-3.7773,-3.7344,-3.6934,-3.6504,-3.6094,-3.6035,-3.5566,-3.4844,-3.4746,-3.4258,-3.3555,-3.3457,-3.3418,-3.3379,-3.3008,-3.2637,-3.2246,0.0,0.0,0.0,0.0,0.0,0.0,0.0,0.0,0.0,-3.5915,-3.5746,-3.5575,-3.5027,-3.409,-3.2825,-3.1021,-3.1089,-3.1074,-3.0787,-3.124,-3.1816,-3.2444,-3.2891,-3.3242,-3.3418,-3.3418,-3.3418,-3.3418,-3.3418,-3.3418,-3.3437,-3.3867,-3.416,-3.4355,-3.4883,-3.5312,-3.5664,-3.5723,-3.6113,-3.6641,-3.6191,-3.6289,-3.6621,-3.6191,-3.6289,-3.6621,-3.6172,-3.5976,0.0,0.0,-3.6739,-3.7217,-3.7737,-3.7948,-3.7688,-3.6131,-3.5722,-3.5618,-3.5147,-3.5228,-3.5631,-3.6056,-3.6742,-3.746,-3.8092,-3.791,-3.7988,-3.9121,-3.9687,-4.0039,-4.0293,-4.0996,-4.1621,-4.1855,-4.2402,-4.2812,-4.2812,-4.2812,-4.2656,-4.2207,-4.2168,-4.1894,-4.123,-4.1172,-4.1172,-4.1172,-4.1172,-4.1172,-4.1172,-4.1172,-4.1172,-4.1172,-4.1172,-4.0957,-4.0527,-4.0098,-3.9668,-3.9199,-3.8594,-3.8086,-3.7656,-3.7226,-3.666,-3.6016,-3.6016,-3.5801,-3.5449,-3.5215,-3.4726,-3.4141,-3.3906,-3.3652,-3.3398,-3.3223,-3.3047,-3.2871,0.0,0.0,0.0,0.0,0.0,0.0,0.0,0.0,0.0,0.0,-3.6121,-3.5883,-3.538,-3.4339,-3.3192,-3.2124,-3.2023,-3.1914,-3.1655,-3.2496,-3.3106,-3.3274,-3.3758,-3.397,-3.3965,-3.367,-3.3481,-3.3418,-3.3418,-3.3418,-3.3437,-3.3867,-3.4141,-3.4277,-3.5059,-3.5449,-3.5586,-3.5898,-3.6269,-3.6641,-3.6191,-3.6289,-3.6621,-3.6055,-3.5898,-3.5937,-3.5723,-3.5547,0.0,0.0,-3.5644,-3.5586,-3.6211,-3.6055,-3.543,-3.4238,-3.3848,-3.3965,-3.4668,-3.5019,-3.543,-3.6328,-3.7519,-3.8496,-3.8613,-3.873,-3.9082,-4.0059,-4.0488,-4.0801,-4.1113,-4.1523,-4.1933,-4.2363,-4.2793,-4.3086,-4.3086,-4.3086,-4.2871,-4.2324,-4.2246,-4.1973,-4.125,-4.1269,-4.1308,-4.1191,-4.1172,-4.1172,-4.1172,-4.1172,-4.1172,-4.1172,-4.1172,-4.0918,-4.0351,-4.0059,-3.9609,-3.9023,-3.8594,-3.8164,-3.7734,-3.7187,-3.6601,-3.6016,-3.6016,-3.5957,-3.582,-3.5371,-3.4941,-3.4473,-3.4062,-3.3691,-3.3418,-3.3418,-3.334,-3.3242,0.0,0.0,0.0,0.0,0.0,0.0,0.0,0.0,0.0,0.0,0.0,0.0,0.0,-3.5106,-3.4291,-3.3169,-3.3049,-3.3004,-3.2768,-3.3746,-3.4836,-3.5917,-3.5639,-3.5407,-3.5376,-3.4403,-3.3733,-3.3418,-3.3418,-3.3418,-3.3437,-3.3867,-3.4297,-3.4707,-3.5176,-3.5625,-3.5996,-3.6016,-3.6269,-3.6641,-3.6191,-3.6289,-3.6582,-3.5742,-3.4883,-3.4199,-3.459,0.0,-3.5195,-3.3945,-3.3789,-3.4141,-3.416,-3.4434,-3.457,-3.3691,-3.2578,-3.1894,-3.3144,-3.4082,-3.5234,-3.7344,-3.8867,-3.9941,-4.0351,-4.0781,-4.1094,-4.1133,-4.1152,-4.1152,-4.1172,-4.1523,-4.1933,-4.2363,-4.2793,-4.3086,-4.3086,-4.3086,-4.2773,-4.1914,-4.1816,-4.1641,-4.1211,-4.1543,-4.1621,-4.1211,-4.1172,-4.1172,-4.1172,-4.1172,-4.1172,-4.1172,-4.1172,-4.0762,-3.9922,-3.9902,-3.9453,-3.8594,-3.8144,-3.7734,-3.7285,-3.6445,-3.6035,-3.6016,-3.6016,-3.5781,-3.5371,-3.4902,-3.4473,-3.4043,-3.3613,-3.3437,-3.3418,-3.3418,-3.3164,-3.2812,0.0,0.0,0.0,0.0,0.0,0.0,0.0,0.0,0.0,0.0,0.0,0.0,0.0,0.0,0.0,0.0,-3.3881,-3.3482,-3.2955,-3.3843,-3.4343,-3.4316,-3.5163,-3.5823,-3.6208,-3.6216,-3.5937,-3.5335,-3.5335,-3.4819,-3.3753,-3.4482,-3.4452,-3.3906,-3.5234,-3.541,-3.4785,-3.5644,-3.6269,-3.6601,-3.5898,-3.6035,-3.6523,-3.5078,-3.416,-3.3555,0.0,0.0,-3.2422,-3.2559,-3.25,-3.2519,-3.3379,-3.3555,-3.3262,-3.2402,-3.2266,-3.2578,-3.3574,-3.5312,-3.7148,-3.8457,-3.9766,-4.0781,-4.0918,-4.1074,-4.1172,-4.1172,-4.0723,-4.0332,-4.0332,-4.0664,-4.0996,-4.1133,-4.2246,-4.3086,-4.3086,-4.3086,-4.2871,-4.2285,-4.2207,-4.1953,-4.125,-4.1308,-4.1328,-4.1191,-4.1172,-4.1172,-4.1172,-4.1172,-4.1172,-4.1172,-4.1172,-4.0762,-3.9902,-3.9902,-3.9453,-3.8574,-3.8125,-3.7559,-3.6875,-3.6582,-3.6289,-3.6016,-3.6016,-3.5937,-3.5801,-3.5644,-3.5156,-3.4473,-3.4336,-3.3926,-3.3418,-3.3418,-3.332,-3.3203,0.0,0.0,0.0,0.0,0.0,0.0,0.0,0.0,0.0,0.0,0.0,0.0,0.0,0.0,0.0,0.0,0.0,-3.4686,-3.3693,-3.4582,-3.4975,-3.4606,-3.5367,-3.6086,-3.6657,-3.6477,-3.613,-3.5509,-3.5509,-3.5087,-3.4283,-3.5026,-3.5025,-3.4381,-3.5396,-3.5355,-3.455,-3.5262,-3.5625,-3.5684,-3.498,-3.4922,-3.5137,-3.3711,-3.2891,0.0,0.0,-3.0664,-3.0312,-3.1172,-3.1269,-3.1211,-3.2207,-3.2441,-3.2285,-3.2051,-3.2461,-3.3379,-3.5,-3.666,-3.8242,-3.957,-4.0664,-4.1348,-4.1211,-4.1289,-4.1348,-4.1211,-4.0351,-3.9648,-3.9648,-3.9746,-3.9824,-3.9824,-4.1133,-4.2226,-4.2383,-4.2402,-4.2402,-4.2422,-4.2285,-4.1992,-4.1445,-4.1387,-4.1328,-4.1191,-4.1172,-4.1172,-4.1172,-4.1172,-4.1172,-4.1172,-4.1016,-4.0605,-3.9902,-3.9726,-3.9199,-3.834,-3.791,-3.7344,-3.666,-3.6504,-3.6289,-3.6016,-3.6016,-3.6016,-3.5996,-3.5684,-3.5215,-3.4687,-3.4531,-3.4141,-3.3652,-3.3652,-3.3652,-3.3633,0.0,0.0,0.0,0.0,0.0,0.0,0.0,0.0,0.0,0.0,0.0,0.0,0.0,0.0,0.0,0.0,0.0,0.0,-3.4836,-3.5772,-3.6461,-3.66,-3.6254,-3.6288,-3.6831,-3.5459,-3.4589,-3.4213,-3.4213,-3.4403,-3.4869,-3.5413,-3.5758,-3.5943,-3.5701,-3.5395,-3.5102,-3.4857,-3.453,-3.4118,-3.3686,-3.3211,-3.2718,-3.1837,-3.125,-3.0801,-3.0332,-2.9648,-2.9082,-2.9922,-3.0234,-3.0391,-3.0859,-3.1309,-3.1816,-3.2656,-3.3242,-3.4238,-3.7109,-3.7969,-3.8555,-4.0625,-4.1465,-4.166,-4.1269,-4.1484,-4.1641,-4.1172,-4.0039,-3.9101,-3.9023,-3.875,-3.8535,-3.8516,-3.9687,-4.0762,-4.1172,-4.1269,-4.1582,-4.2344,-4.207,-4.1816,-4.1777,-4.1758,-4.1601,-4.1211,-4.1172,-4.1172,-4.1172,-4.1172,-4.1172,-4.1172,-4.0742,-4.0332,-3.9902,-3.9394,-3.8711,-3.7891,-3.7461,-3.7031,-3.6582,-3.6191,-3.5996,-3.5957,-3.5976,-3.5976,-3.5879,-3.5039,-3.4687,-3.4629,-3.4219,-3.4062,-3.4043,-3.4043,-3.4043,-3.3984,0.0,0.0,0.0,0.0,0.0,0.0,0.0,0.0,0.0,0.0,0.0,0.0,0.0,0.0,0.0,0.0,0.0,0.0,-3.5254,-3.5789,-3.5878,-3.5236,-3.5481,-3.6084,-3.7047,-3.6726,-3.6247,-3.5582,-3.5582,-3.508,-3.4075,-3.4543,-3.446,-3.4086,-3.5041,-3.5064,-3.4447,-3.5189,-3.5452,-3.5304,-3.4682,-3.4049,-3.3415,-3.2235,-3.1194,-3.0312,-2.9883,-2.959,-2.9492,-3.0019,-3.0859,-3.1797,-3.2539,-3.3066,-3.3535,-3.4062,-3.5215,-3.6484,-3.7246,-3.8633,-4.0,-4.0547,-4.1016,-4.1308,-4.1191,-4.125,-4.1035,-3.9941,-3.8926,-3.7871,-3.6601,-3.7305,-3.7988,-3.7676,-4.0059,-4.1973,-4.209,-4.2656,-4.291,-4.248,-4.2324,-4.2031,-4.1387,-4.1328,-4.1289,-4.1172,-4.1172,-4.1172,-4.1172,-4.1172,-4.1172,-4.1172,-4.0742,-4.0332,-3.9902,-3.8809,-3.7988,-3.7461,-3.7031,-3.6445,-3.5723,-3.5937,-3.5664,-3.5059,-3.541,-3.5351,-3.5019,-3.4785,-3.4512,-3.4219,-3.4121,-3.3867,-3.3594,-3.3594,-3.3594,-3.3574,0.0,0.0,0.0,0.0,0.0,0.0,0.0,0.0,0.0,0.0,0.0,0.0,0.0,0.0,0.0,0.0,0.0,0.0,0.0,-3.695,-3.67,-3.5731,-3.5993,-3.6222,-3.6458,-3.6458,-3.6026,-3.5112,-3.5356,-3.5016,-3.4231,-3.4698,-3.4648,-3.4239,-3.5077,-3.508,-3.4378,-3.5111,-3.5251,0.0,0.0,-3.3695,-3.3001,-3.1781,-3.1064,-3.0558,-3.0032,-3.0098,-3.0547,-3.1348,-3.2109,-3.2832,-3.3496,-3.4004,-3.4551,-3.5547,-3.6523,-3.75,-3.8457,-3.9609,-4.0566,-4.0762,-4.1133,-4.125,-4.0488,-4.0469,-4.0195,-3.8672,-3.7539,-3.6523,-3.5566,-3.6484,-3.7226,-3.6797,-3.9316,-4.1387,-4.1562,-4.2168,-4.2558,-4.2441,-4.2422,-4.2168,-4.1504,-4.1445,-4.1367,-4.1191,-4.1172,-4.1172,-4.1172,-4.1172,-4.1094,-4.0898,-4.0469,-3.9941,-3.9316,-3.8398,-3.7715,-3.7285,-3.6875,-3.6328,-3.5684,-3.5918,-3.5644,-3.5019,-3.5273,-3.5137,-3.4687,-3.4492,-3.4277,-3.4082,-3.4082,-3.3926,-3.3711,-3.3711,-3.3711,-3.3691,0.0,0.0,0.0,0.0,0.0,0.0,0.0,0.0,0.0,0.0,0.0,0.0,0.0,0.0,0.0,0.0,0.0,0.0,0.0,0.0,-3.8271,-3.7289,-3.721,-3.6765,-3.5963,-3.5887,-3.5378,-3.4412,-3.4711,-3.485,-3.4906,-3.5173,-3.5246,-3.5207,-3.5461,-3.5273,-3.4721,-3.493,-3.4693,-3.4129,-3.3682,-3.3093,-3.2389,0.0,0.0,-3.1477,-3.0797,-3.0937,-3.1719,-3.3066,-3.3535,-3.3711,-3.4375,-3.4883,-3.5527,-3.709,-3.7637,-3.8125,-4.0019,-4.0566,-4.0703,-4.1074,-4.1445,-4.1269,-3.959,-3.9512,-3.9277,-3.7422,-3.6172,-3.5351,-3.5156,-3.5879,-3.6426,-3.623,-3.8281,-4.0078,-4.0625,-4.1074,-4.1582,-4.2266,-4.2344,-4.2168,-4.1758,-4.1719,-4.1562,-4.1211,-4.1172,-4.1172,-4.1172,-4.1172,-4.0957,-4.0449,-4.0019,-3.9375,-3.8496,-3.8066,-3.7637,-3.7207,-3.6797,-3.6367,-3.5937,-3.5996,-3.5723,-3.5215,-3.5273,-3.5,-3.4492,-3.4141,-3.3984,-3.3984,-3.3984,-3.3984,-3.3984,-3.3984,-3.3984,-3.3926,0.0,0.0,0.0,0.0,0.0,0.0,0.0,0.0,0.0,0.0,-4.2585,-4.2822,0.0,0.0,0.0,0.0,0.0,0.0,0.0,0.0,0.0,-3.8718,-3.8224,-3.8112,-3.839,-3.797,-3.7573,-3.7199,-3.6035,-3.56,-3.5851,-3.4679,-3.439,-3.4831,-3.5285,-3.5441,-3.535,-3.5673,-3.5746,-3.56,-3.5308,-3.4712,-3.3986,0.0,0.0,0.0,-3.2544,-3.1931,-3.1758,-3.3418,-3.418,-3.4805,-3.668,-3.7559,-3.8027,-3.8691,-3.9394,-4.0039,-4.041,-4.0781,-4.1074,-4.1152,-4.123,-4.0918,-3.9512,-3.9258,-3.8633,-3.6211,-3.5547,-3.5059,-3.3965,-3.4785,-3.5937,-3.6914,-3.8652,-4.0293,-4.1426,-4.1933,-4.2129,-4.1933,-4.1914,-4.1738,-4.1328,-4.1289,-4.125,-4.1172,-4.1172,-4.1172,-4.1172,-4.1172,-4.082,-4.0019,-3.9551,-3.8906,-3.8047,-3.7617,-3.7187,-3.6777,-3.6348,-3.5918,-3.5508,-3.5859,-3.5391,-3.4316,-3.4668,-3.4375,-3.3633,-3.3555,-3.3535,-3.3535,-3.3535,-3.3535,-3.3535,-3.3535,-3.3535,-3.3516,0.0,0.0,0.0,0.0,0.0,0.0,0.0,-4.1743,-4.2372,-4.241,-4.2832,-4.313,-4.3021,-4.29,-4.2809,0.0,0.0,0.0,0.0,0.0,0.0,0.0,0.0,0.0,-3.8988,-3.9086,-3.874,-3.8062,0.0,-3.7165,-3.7037,-3.6214,-3.5982,-3.6227,-3.6251,-3.6282,-3.6288,-3.6225,-3.6146,-3.598,-3.6157,-3.5917,-3.5392,0.0,0.0,0.0,0.0,-3.2571,-3.2554,-3.3411,-3.4316,-3.5391,-3.7324,-3.8379,-3.9023,-3.9687,-4.0351,-4.0957,-4.1387,-4.166,-4.1777,-4.1562,-4.1504,-4.0918,-3.8711,-3.8203,-3.748,-3.4902,-3.4375,-3.418,-3.3535,-3.4492,-3.5586,-3.6211,-3.7754,-3.9238,-4.0293,-4.1016,-4.1445,-4.1465,-4.166,-4.1641,-4.1211,-4.1172,-4.1172,-4.1172,-4.0957,-4.0937,-4.1172,-4.0742,-4.0215,-3.9551,-3.8887,-3.834,-3.793,-3.7285,-3.6875,-3.666,-3.623,-3.5918,-3.5723,-3.5937,-3.543,-3.4414,-3.4609,-3.4219,-3.3418,-3.3418,-3.3418,-3.3418,-3.3418,-3.3418,-3.3418,-3.3418,-3.3418,-3.3418,0.0,0.0,0.0,0.0,0.0,0.0,0.0,-4.2132,-4.3,-4.2611,-4.303,-4.325,-4.3061,-4.3061,-4.301,0.0,0.0,0.0,0.0,0.0,0.0,0.0,0.0,0.0,-3.997,0.0,0.0,-3.9237,-3.9159,0.0,0.0,0.0,0.0,0.0,-3.7616,-3.7366,-3.7168,-3.6811,-3.6528,0.0,0.0,-3.6873,-3.68,0.0,0.0,0.0,0.0,-3.3464,-3.3526,-3.3635,-3.4349,-3.5429,-3.6788,-3.8144,-3.9316,-3.9922,-4.0605,-4.1348,-4.209,-4.2285,-4.2207,-4.1875,-4.1738,-4.0898,-3.7969,-3.7305,-3.6562,-3.3965,-3.3418,-3.3418,-3.3418,-3.4277,-3.5059,-3.5351,-3.6523,-3.7812,-3.9023,-3.9805,-4.0469,-4.1094,-4.1465,-4.1543,-4.1211,-4.1172,-4.1133,-4.1035,-4.0625,-4.0547,-4.0879,-4.0176,-3.957,-3.9219,-3.8379,-3.7871,-3.7793,-3.7051,-3.6621,-3.6523,-3.6191,-3.6016,-3.6016,-3.6016,-3.5527,-3.4707,-3.4707,-3.4219,-3.3418,-3.3418,-3.3418,-3.3418,-3.3418,-3.3418,-3.3418,-3.3418,-3.3418,-3.3418,0.0,0.0,0.0,0.0,0.0,0.0,0.0,-4.2381,-4.2641,-4.314,-4.326,-4.329,-4.325,-4.325,-4.325,0.0,0.0,0.0,0.0,0.0,0.0,0.0,0.0,0.0,0.0,0.0,0.0,-4.2562,-4.125,0.0,0.0,0.0,0.0,0.0,0.0,-3.8505,-3.7743,-3.7704,0.0,0.0,0.0,0.0,0.0,0.0,0.0,0.0,0.0,-3.5212,-3.4337,-3.4479,-3.4554,-3.4718,-3.4961,-3.6934,-3.9141,-3.8848,-3.9902,-4.1269,-4.1738,-4.1855,-4.1855,-4.1816,-4.1523,-4.0547,-3.7891,-3.7305,-3.6562,-3.3965,-3.3418,-3.3418,-3.3418,-3.3516,-3.4004,-3.5195,-3.5527,-3.6465,-3.8867,-3.9277,-3.9785,-4.1035,-4.1211,-4.1211,-4.1172,-4.1172,-4.1016,-4.0605,-4.0195,-3.9961,-4.0019,-3.9531,-3.9238,-3.9199,-3.8379,-3.7734,-3.7363,-3.6894,-3.6465,-3.6074,-3.6035,-3.6016,-3.6016,-3.6016,-3.5527,-3.4707,-3.4707,-3.4219,-3.3418,-3.3418,-3.3418,-3.3418,-3.3418,-3.3418,-3.3418,-3.3418,-3.3418,-3.3418,0.0,0.0,0.0,0.0,0.0,0.0,-4.241,-4.2701,-4.303,-4.326,-4.329,-4.329,-4.329,-4.329,-4.329,-4.329,0.0,0.0,0.0,0.0,0.0,0.0,0.0,0.0,0.0,0.0,-4.325,-4.317,-4.2474,0.0,0.0,0.0,0.0,0.0,0.0,-3.9519,-3.8612,-3.8392,0.0,0.0,0.0,0.0,0.0,0.0,0.0,0.0,0.0,0.0,-3.5257,-3.3922,-3.3971,-3.441,-3.3144,-3.4492,-3.6719,-3.7851,-3.9238,-4.0664,-4.1855,-4.2363,-4.2558,-4.2558,-4.1484,-3.9922,-3.8086,-3.6894,-3.5625,-3.3789,-3.3418,-3.3418,-3.3418,-3.3418,-3.3594,-3.4121,-3.4199,-3.4844,-3.666,-3.666,-3.7363,-3.9707,-3.9766,-3.9922,-4.0703,-4.0781,-4.0488,-3.9785,-3.957,-3.9375,-3.9121,-3.916,-3.8965,-3.8437,-3.7851,-3.7344,-3.6934,-3.6504,-3.6191,-3.6016,-3.6016,-3.6016,-3.6016,-3.5762,-3.5293,-3.4687,-3.4434,-3.3984,-3.3418,-3.3418,-3.3418,-3.3418,-3.3418,-3.3418,-3.3418,-3.3418,-3.3418,-3.3418,0.0,0.0,0.0,0.0,0.0,-4.2671,-4.244,-4.2761,-4.312,-4.326,-4.329,-4.329,-4.329,-4.329,-4.329,-4.329,-4.329,0.0,0.0,0.0,0.0,0.0,0.0,0.0,0.0,0.0,-4.329,-4.329,-4.3349,-4.3269,0.0,0.0,-4.2691,-4.2474,0.0,0.0,0.0,0.0,0.0,0.0,0.0,0.0,0.0,0.0,0.0,0.0,0.0,0.0,0.0,0.0,0.0,-3.4167,-3.1979,-3.2363,-3.4023,-3.6309,-3.8164,-3.9824,-4.1289,-4.2187,-4.2695,-4.2695,-4.1191,-3.9355,-3.8027,-3.6523,-3.5019,-3.3691,-3.3418,-3.3418,-3.3418,-3.332,-3.3242,-3.3242,-3.3125,-3.3516,-3.4824,-3.4726,-3.5449,-3.7969,-3.7988,-3.834,-3.9629,-3.998,-3.9824,-3.9062,-3.8887,-3.8633,-3.8223,-3.8476,-3.8418,-3.7949,-3.7402,-3.6973,-3.668,-3.623,-3.6016,-3.6016,-3.6016,-3.5957,-3.582,-3.5527,-3.5078,-3.4492,-3.4199,-3.3828,-3.3418,-3.3418,-3.3418,-3.3418,-3.3418,-3.3418,-3.3418,-3.3418,-3.3418,-3.3418,0.0,0.0,0.0,0.0,0.0,0.0,-4.2291,-4.241,-4.265,-4.32,-4.329,-4.329,-4.329,-4.329,-4.329,-4.329,-4.329,0.0,0.0,0.0,0.0,0.0,0.0,0.0,0.0,0.0,-4.329,-4.329,-4.3947,-4.3917,-4.329,-4.3542,-4.3348,-4.2688,0.0,0.0,0.0,0.0,0.0,0.0,0.0,0.0,0.0,0.0,0.0,0.0,0.0,0.0,0.0,0.0,0.0,0.0,0.0,-3.0918,-3.1426,-3.3984,-3.6562,-3.8789,-3.9687,-4.084,-4.1816,-4.1816,-4.0508,-3.8867,-3.7598,-3.6309,-3.5019,-3.3691,-3.3418,-3.3418,-3.3418,-3.3086,-3.2793,-3.2793,-3.2461,-3.2637,-3.3906,-3.4082,-3.457,-3.5898,-3.6055,-3.6543,-3.7832,-3.8711,-3.9043,-3.8613,-3.8184,-3.7754,-3.7324,-3.7324,-3.75,-3.791,-3.7109,-3.668,-3.668,-3.623,-3.6016,-3.6016,-3.6016,-3.5801,-3.541,-3.5391,-3.4922,-3.4082,-3.4082,-3.3828,-3.3418,-3.3418,-3.3418,-3.3418,-3.3418,-3.3418,-3.3418,-3.3418,-3.3418,-3.3418,0.0,0.0,0.0,0.0,0.0,0.0,0.0,-4.303,-4.309,-4.326,-4.329,-4.329,-4.329,-4.329,-4.329,-4.329,-4.329,0.0,0.0,0.0,0.0,0.0,0.0,0.0,0.0,-4.329,-4.3499,-4.3977,-4.3738,-4.3988,-4.4646,-4.3512,-4.3171,-4.3337,-4.2911,-4.2281,0.0,0.0,0.0,0.0,0.0,0.0,-3.9645,0.0,0.0,0.0,0.0,0.0,0.0,0.0,0.0,0.0,0.0,0.0,0.0,-3.2207,-3.4141,-3.6113,-3.7012,-3.8184,-3.9141,-3.9141,-3.7871,-3.6562,-3.6445,-3.5195,-3.3926,-3.3516,-3.3418,-3.334,-3.3047,-3.2891,-3.2695,-3.2422,-3.2012,-3.1973,-3.2676,-3.3027,-3.3906,-3.5801,-3.7305,-3.8359,-3.8769,-3.8789,-3.8594,-3.8164,-3.8008,-3.7734,-3.7324,-3.7031,-3.6934,-3.707,-3.6816,-3.6523,-3.623,-3.6094,-3.6016,-3.6016,-3.6016,-3.5801,-3.5391,-3.5059,-3.4609,-3.4062,-3.375,-3.3555,-3.3418,-3.3418,-3.3418,-3.3418,-3.3418,-3.3418,-3.3418,-3.3418,-3.3418,-3.3418,0.0,0.0,0.0,0.0,0.0,0.0,0.0,-4.329,-4.329,-4.329,-4.329,-4.329,-4.329,-4.329,-4.329,-4.329,-4.329,0.0,0.0,0.0,0.0,0.0,0.0,0.0,-4.329,-4.329,-4.3618,-4.4317,-4.4167,-4.4496,-4.5274,-4.4252,-4.3867,-4.4015,-4.3582,-4.3185,0.0,0.0,0.0,0.0,0.0,0.0,-3.9697,0.0,0.0,0.0,0.0,0.0,0.0,0.0,0.0,0.0,0.0,0.0,0.0,0.0,-3.2578,-3.4004,-3.5195,-3.6582,-3.7734,-3.7891,-3.6641,-3.5508,-3.5918,-3.4668,-3.3418,-3.3418,-3.3301,-3.3105,-3.2851,-3.2539,-3.2226,-3.1973,-3.1562,-3.1484,-3.209,-3.2519,-3.3476,-3.5312,-3.7129,-3.8242,-3.8242,-3.8301,-3.8144,-3.7715,-3.7539,-3.7266,-3.6836,-3.6562,-3.6426,-3.6426,-3.6269,-3.6133,-3.6016,-3.5859,-3.5859,-3.6016,-3.6016,-3.5703,-3.5117,-3.4824,-3.4375,-3.3809,-3.3535,-3.3418,0.0,-3.3418,-3.3418,-3.3418,-3.3418,-3.3418,-3.3418,-3.3418,-3.3418,-3.3418,0.0,0.0,0.0,0.0,0.0,0.0,0.0,-4.329,-4.329,-4.329,-4.329,-4.329,-4.329,-4.329,-4.329,-4.329,0.0,0.0,0.0,0.0,0.0,0.0,0.0,0.0,-4.329,-4.329,-4.3648,-4.4377,-4.4945,-4.5304,-4.5454,-4.5539,-4.5266,-4.465,-4.4253,-4.4385,-4.4744,-4.3405,-4.2208,-4.1119,-4.0083,-3.9697,0.0,0.0,0.0,0.0,0.0,0.0,0.0,0.0,0.0,0.0,0.0,0.0,0.0,0.0,0.0,0.0,0.0,-3.5742,-3.7109,-3.7422,-3.6367,-3.5351,-3.5742,-3.459,0.0,-3.3418,-3.3105,-3.2832,-3.2754,-3.2109,-3.1543,-3.1484,-3.1152,-3.1172,-3.2012,-3.2617,-3.3437,-3.4648,-3.5976,-3.6777,-3.668,-3.7422,-3.7754,-3.7324,-3.6914,-3.6484,-3.6035,-3.6016,-3.6016,-3.5976,-3.5566,-3.5566,-3.6016,-3.5605,-3.5605,-3.6016,-3.6016,-3.5547,-3.4707,-3.4707,-3.4238,-3.3418,-3.3418,-3.3418,-3.3418,-3.3418,-3.3418,-3.3418,-3.3418,-3.3418,-3.3418,-3.3418,-3.3418,-3.3418,0.0,0.0,0.0,0.0,0.0,0.0,0.0,0.0,0.0,0.0,-4.329,-4.329,-4.329,-4.329,-4.329,0.0,0.0,0.0,0.0,0.0,0.0,0.0,0.0,0.0,-4.329,-4.329,-4.3898,-4.5065,-4.4706,-4.5334,-4.683,-4.5637,-4.5217,-4.5341,-4.5112,-4.4802,-4.4394,-4.3266,-4.2208,-4.1119,-4.0083,-3.9697,0.0,0.0,0.0,0.0,-3.8736,-3.8421,0.0,0.0,0.0,0.0,0.0,0.0,0.0,0.0,-3.1348,-3.1836,-3.2559,0.0,-3.4199,-3.3652,-3.3711,-3.3906,0.0,-3.3711,-3.3418,-3.3418,-3.334,-3.3086,-3.2441,-3.2148,-3.1797,-3.1152,-3.0957,-3.1074,-3.1601,-3.3476,-3.5019,-3.5644,-3.7148,-3.7754,-3.6758,-3.7422,-3.7754,-3.7324,-3.6914,-3.6484,-3.6035,-3.6016,-3.5879,-3.5547,-3.5098,-3.5234,-3.6016,-3.5605,-3.5605,-3.6016,-3.6016,-3.5547,-3.4707,-3.4707,-3.4238,-3.3418,-3.3418,-3.3418,-3.3418,-3.3418,-3.3418,-3.3418,-3.3418,-3.3418,-3.3418,-3.3418,-3.3418,-3.3379,0.0,0.0,0.0,0.0,0.0,0.0,0.0,0.0,0.0,0.0,0.0,0.0,0.0,0.0,0.0,0.0,0.0,0.0,0.0,0.0,0.0,0.0,0.0,-4.3838,-4.3738,-4.3738,-4.4436,-4.5753,-4.5424,-4.5933,-4.7279,-4.6347,-4.5954,-4.618,-4.5874,-4.5473,-4.4943,-4.3416,-4.2452,-4.1815,-4.0313,0.0,0.0,0.0,0.0,0.0,-3.8788,-3.8473,0.0,-3.7974,-3.6371,-3.4391,0.0,0.0,0.0,0.0,-3.1641,-3.1914,-3.2344,-3.2793,-3.3066,-3.2812,-3.3086,-3.3418,-3.3418,-3.3418,-3.3359,-3.3184,-3.2988,-3.2637,-3.1992,-3.1875,-3.166,-3.0996,-3.123,-3.1699,-3.2305,-3.3769,-3.5176,-3.6191,-3.7129,-3.7578,-3.7266,-3.748,-3.7461,-3.7031,-3.6621,-3.6269,-3.6035,-3.6016,-3.582,-3.541,-3.5156,-3.5254,-3.5723,-3.5293,-3.5391,-3.6016,-3.582,-3.5371,-3.4687,-3.4492,-3.4043,-3.3418,-3.3418,-3.3418,-3.3418,-3.3418,-3.3418,-3.3418,-3.3418,-3.3418,-3.3418,-3.3418,-3.3418,-3.3359,0.0,0.0,0.0,0.0,0.0,0.0,0.0,0.0,0.0,0.0,0.0,0.0,0.0,0.0,0.0,0.0,0.0,0.0,0.0,0.0,0.0,0.0,-4.3798,-4.3738,-4.4436,-4.4377,-4.4975,-4.6279,-4.6279,-4.6651,-4.7309,-4.7062,-4.6931,-4.6844,-4.6403,-4.609,-4.5776,-4.3843,-4.2937,-4.2647,-4.0719,0.0,0.0,0.0,0.0,0.0,0.0,0.0,0.0,-3.7974,-3.6371,-3.4391,-3.4391,0.0,0.0,0.0,0.0,0.0,-3.2559,-3.2793,-3.2969,-3.3242,-3.332,-3.334,-3.3398,-3.3379,-3.3242,-3.2949,-3.25,-3.207,-3.1777,-3.1601,-3.1406,-3.1055,-3.1699,-3.2578,-3.3496,-3.4101,-3.4961,-3.6309,-3.6758,-3.7148,-3.7598,-3.7422,-3.7129,-3.6699,-3.6269,-3.5996,-3.5937,-3.5918,-3.5703,-3.5215,-3.5195,-3.5195,-3.5195,-3.4863,-3.5117,-3.5918,-3.5488,-3.5039,-3.459,-3.4238,-3.3828,-3.3418,-3.3418,-3.3418,-3.3418,-3.3418,-3.3418,-3.3418,-3.3418,-3.3418,-3.3418,-3.3418,-3.3379,-3.3262,0.0,0.0,0.0,0.0,0.0,0.0,0.0,0.0,0.0,0.0,0.0,0.0,0.0,0.0,0.0,0.0,0.0,0.0,0.0,0.0,0.0,-4.5155,-4.4496,-4.4466,-4.5125,-4.4586,-4.4975,-4.6279,-4.6279,-4.6651,-4.7309,-4.7266,-4.7048,-4.6624,-4.6358,-4.609,-4.585,-4.462,-4.3606,-4.2695,-4.1468,0.0,0.0,0.0,0.0,0.0,0.0,0.0,0.0,-3.7974,-3.6371,-3.4391,-3.4391,0.0,0.0,0.0,0.0,0.0,-3.2051,-3.2793,-3.3262,-3.2969,-3.2891,-3.2988,-3.334,-3.3144,-3.2969,-3.3262,-3.2715,-3.2266,-3.2539,-3.2012,-3.1504,-3.1426,-3.2148,-3.3125,-3.4336,-3.5527,-3.6113,-3.5644,-3.7187,-3.7773,-3.6445,-3.6914,-3.7129,-3.6699,-3.6269,-3.5859,-3.5508,-3.5488,-3.5117,-3.4297,-3.4277,-3.4277,-3.4277,-3.4551,-3.4961,-3.5488,-3.5019,-3.459,-3.416,-3.4101,-3.3828,-3.3418,-3.3418,-3.3418,-3.3418,-3.3418,-3.3418,-3.3418,-3.3418,-3.3418,-3.3418,-3.3418,-3.3184,-3.2832,0.0,0.0,0.0,0.0,0.0,0.0,0.0,0.0,0.0,0.0,0.0,0.0,0.0,0.0,0.0,0.0,0.0,0.0,0.0,0.0,-4.5095,-4.5813,-4.5214,-4.5155,-4.5843,-4.5185,-4.5514,-4.686,-4.686,-4.701,-4.7309,-4.7309,-4.7048,-4.6609,-4.6447,-4.6225,-4.585,-4.4759,-4.3748,-4.2695,0.0,0.0,0.0,0.0,0.0,0.0,0.0,0.0,0.0,0.0,-3.5881,-3.428,-3.3685,0.0,0.0,0.0,0.0,0.0,-3.1992,-3.2285,-3.2461,-3.2734,-3.3496,-3.4121,-3.3848,-3.3789,-3.3691,-3.3184,-3.2773,-3.2422,-3.2148,-3.2168,-3.2519,-3.3457,-3.3535,-3.3769,-3.459,-3.5019,-3.5293,-3.5391,-3.6465,-3.6973,-3.6426,-3.6738,-3.6777,-3.6348,-3.5918,-3.5605,-3.541,-3.5156,-3.4726,-3.4082,-3.4297,-3.4297,-3.4082,-3.4258,-3.459,-3.5019,-3.457,-3.4258,-3.4062,-3.3828,-3.3613,-3.3418,-3.3418,-3.3418,-3.3418,-3.3418,-3.3418,-3.3418,-3.3418,-3.3418,-3.3418,-3.3418,-3.2871,-3.2148,0.0,0.0,0.0,0.0,0.0,0.0,0.0,0.0,0.0,0.0,0.0,0.0,0.0,0.0,0.0,0.0,0.0,0.0,0.0,-4.4377,-4.5005,-4.6022,-4.5723,-4.5873,-4.6531,-4.5873,-4.6112,-4.7309,-4.7309,-4.7309,-4.7309,-4.7266,-4.7005,-4.6609,-4.6535,-4.6269,-4.585,-4.4989,-4.3937,-4.2744,0.0,0.0,0.0,0.0,0.0,0.0,0.0,0.0,0.0,0.0,0.0,0.0,0.0,0.0,0.0,-3.1387,-3.1445,-3.1465,-3.1894,-3.1914,-3.1953,-3.25,-3.3574,-3.4434,-3.4258,-3.4238,-3.4101,-3.3516,-3.3086,-3.2617,-3.207,-3.2422,-3.3262,-3.4707,-3.4531,-3.4394,-3.4941,-3.4824,-3.4941,-3.5605,-3.6074,-3.6406,-3.6641,-3.668,-3.6484,-3.6055,-3.5625,-3.5351,-3.5234,-3.4805,-3.4355,-3.3945,-3.4238,-3.4238,-3.3926,-3.3926,-3.4141,-3.4551,-3.4121,-3.3926,-3.3906,-3.3574,-3.3418,-3.3418,-3.3418,-3.3418,-3.3418,-3.332,-3.334,-3.3398,-3.3203,-3.3184,-3.3281,-3.3281,-3.2598,-3.1758,0.0,0.0,0.0,0.0,0.0,0.0,0.0,0.0,0.0,0.0,0.0,0.0,0.0,0.0,0.0,0.0,0.0,0.0,0.0,-4.4556,-4.5274,-4.5364,-4.5933,-4.6561,-4.7219,-4.6591,-4.6591,-4.7309,-4.7309,-4.7309,-4.7309,-4.7062,-4.68,-4.6609,-4.6358,-4.609,-4.5866,-4.585,-4.462,-4.2792,-4.2744,0.0,0.0,0.0,0.0,0.0,0.0,0.0,0.0,0.0,0.0,0.0,0.0,0.0,-3.0976,-3.1387,-3.125,-3.1035,-3.1445,-3.2129,-3.2617,-3.2285,-3.2012,-3.2305,-3.4219,-3.375,-3.3359,-3.4883,-3.3926,-3.2891,-3.3223,-3.3008,-3.2969,-3.3476,-3.418,-3.4961,-3.5801,-3.625,-3.6504,-3.6582,-3.6953,-3.707,-3.6699,-3.668,-3.6484,-3.6055,-3.5625,-3.5195,-3.4766,-3.4336,-3.3926,-3.3476,-3.3496,-3.3496,-3.3476,-3.3476,-3.3691,-3.4121,-3.3672,-3.3476,-3.3476,-3.3437,-3.3418,-3.3418,-3.3418,-3.3418,-3.3398,-3.3008,-3.3066,-3.334,-3.2559,-3.25,-3.2832,-3.2832,-3.2539,-3.2129,0.0,0.0,0.0,0.0,0.0,0.0,0.0,0.0,0.0,0.0,0.0,0.0,0.0,0.0,0.0,0.0,0.0,0.0,0.0,-4.4407,-4.4855,-4.5274,-4.5963,-4.6441,-4.6681,-4.6441,-4.6651,-4.7309,-4.7309,-4.7309,-4.7309,-4.7019,-4.68,-4.6609,-4.6314,-4.609,-4.5895,-4.5895,-4.4712,-4.2792,-4.2792,-4.1518,0.0,0.0,0.0,0.0,0.0,0.0,0.0,0.0,-3.5772,-3.428,-3.3572,-3.2227,-3.0918,-3.1074,-3.1016,-3.0918,-3.1094,-3.1562,-3.1953,-3.1797,-3.1641,-3.207,-3.4219,-3.4551,-3.4375,-3.4199,-3.4297,-3.4199,-3.3535,-3.3965,-3.4473,-3.4629,-3.5371,-3.6035,-3.6387,-3.6562,-3.6562,-3.6289,-3.6641,-3.6738,-3.6309,-3.6269,-3.6094,-3.5664,-3.5215,-3.4766,-3.4336,-3.3906,-3.3594,-3.3437,-3.3418,-3.3418,-3.3418,-3.3418,-3.3496,-3.3672,-3.3496,-3.3418,-3.3418,-3.3418,-3.3418,-3.3418,-3.3418,-3.3418,-3.3379,-3.2969,-3.3047,-3.3379,-3.3066,-3.2891,-3.2832,-3.3086,-3.2754,-3.2268,0.0,0.0,0.0,0.0,0.0,0.0,0.0,0.0,0.0,0.0,0.0,0.0,0.0,0.0,0.0,0.0,0.0,0.0,-4.3917,-4.4197,-4.4616,-4.5274,-4.5963,-4.6369,-4.6493,-4.6493,-4.6774,-4.7309,-4.7309,-4.7309,-4.7309,-4.6975,-4.6712,-4.6609,-4.6269,-4.6001,-4.5895,-4.5895,-4.4712,-4.2792,-4.2792,-4.1518,0.0,0.0,0.0,0.0,0.0,0.0,0.0,0.0,-3.5959,-3.4781,-3.3628,-3.2399,-3.1402,-3.0995,-3.0898,-3.0898,-3.0898,-3.1094,-3.1328,-3.1328,-3.1426,-3.2012,-3.3867,-3.4648,-3.4922,-3.4687,-3.4824,-3.4668,-3.3613,-3.416,-3.4824,-3.4961,-3.582,-3.6465,-3.6465,-3.6465,-3.6348,-3.6055,-3.6289,-3.6348,-3.6055,-3.5898,-3.5703,-3.541,-3.4844,-3.4375,-3.4082,-3.3652,-3.3418,-3.3418,-3.3418,-3.3418,-3.3418,-3.3418,-3.3418,-3.3418,-3.3418,-3.3418,-3.3418,-3.3418,-3.3418,-3.3418,-3.3281,-3.3301,-3.3379,-3.2676,-3.248,-3.2676,-3.3223,-3.3086,-3.2656,-3.3223,-3.2969,-3.2422,0.0,0.0,0.0,0.0,0.0,0.0,0.0,0.0,0.0,0.0,0.0,0.0,0.0,0.0,0.0,0.0,0.0,0.0,-4.329,-4.3958,-4.4586,-4.5244,-4.5933,-4.6493,-4.6901,-4.6931,-4.7019,-4.7309,-4.7309,-4.7309,-4.7266,-4.68,-4.6609,-4.6609,-4.612,-4.5895,-4.5895,-4.5895,-4.4712,-4.2792,-4.2792,-4.1518,-3.9697,0.0,0.0,0.0,0.0,0.0,0.0,0.0,-3.7227,-3.6013,-3.4781,-3.3628,-3.2457,-3.1228,-3.0898,-3.0898,-3.0898,-3.0898,-3.0898,-3.0898,-3.1211,-3.1855,-3.3144,-3.3769,-3.4687,-3.6836,-3.5566,-3.3945,-3.3516,-3.3437,-3.3574,-3.4004,-3.5176,-3.6016,-3.6016,-3.6016,-3.6016,-3.6016,-3.6016,-3.6016,-3.6016,-3.5644,-3.5391,-3.5391,-3.457,-3.4082,-3.4062,-3.3652,-3.3418,-3.3418,-3.3418,-3.3418,-3.3418,-3.3418,-3.3418,-3.3418,-3.3418,-3.3418,-3.3418,-3.3418,-3.3418,-3.3398,-3.2988,-3.3027,-3.332,-3.2051,-3.1289,-3.1074,-3.2754,-3.291,-3.2285,-3.3105,-3.3164,-3.2851,0.0,0.0,0.0,0.0,0.0,0.0,0.0,0.0,0.0,0.0,0.0,0.0,0.0,0.0,0.0,0.0,0.0,0.0,-4.4018,-4.3738,-4.3888,-4.4586,-4.5078,-4.5679,-4.6248,-4.6549,-4.6712,-4.6829,-4.6829,-4.6829,-4.6829,-4.6447,-4.6314,-4.6314,-4.6001,-4.5895,-4.5895,-4.5895,-4.4712,-4.2792,-4.2792,-4.1518,-3.9697,0.0,0.0,0.0,0.0,0.0,0.0,0.0,0.0,0.0,-3.4781,-3.3628,-3.2457,-3.1228,-3.0898,-3.0898,-3.0898,-3.1113,-3.1328,-3.1328,-3.1875,-3.2676,-3.3652,-3.3984,-3.4512,-3.6074,-3.5156,-3.4121,-3.4297,-3.459,-3.4746,-3.4551,-3.5351,-3.6016,-3.6016,-3.6016,-3.6016,-3.6016,-3.6016,-3.6016,-3.6016,-3.5644,-3.5254,-3.4922,-3.4394,-3.3945,-3.3633,-3.3496,-3.3418,-3.3418,-3.3418,-3.3418,-3.3418,-3.3418,-3.3281,-3.2988,-3.2988,-3.3144,-3.3418,-3.3418,-3.3262,-3.2988,-3.3164,-3.3144,-3.2969,-3.2891,-3.2441,-3.1894,-3.2988,-3.3086,-3.2676,-3.3223,-3.334,-3.3262,0.0,0.0,0.0,0.0,0.0,0.0,0.0,0.0,0.0,0.0,0.0,0.0,0.0,0.0,0.0,0.0,0.0,0.0,0.0,-4.4347,-4.4366,-4.4971,-4.5263,-4.5598,-4.6063,-4.6226,-4.6135,-4.5702,-4.6314,-4.6403,-4.5943,-4.5718,-4.5582,-4.5582,-4.5384,-4.5247,-4.5247,-4.5247,-4.4078,-4.2159,-4.2159,-4.1196,-3.9697,0.0,0.0,0.0,0.0,0.0,0.0,0.0,0.0,0.0,-3.4947,-3.3944,-3.3063,-3.1402,-3.0898,-3.0898,-3.0898,-3.1074,-3.1309,-3.1484,-3.2168,-3.3066,-3.4082,-3.4726,-3.5332,-3.6113,-3.5391,-3.4668,-3.4922,-3.5059,-3.5078,-3.498,-3.5566,-3.6016,-3.6016,-3.6016,-3.6016,-3.6016,-3.5879,-3.5762,-3.5762,-3.5234,-3.4746,-3.4473,-3.4062,-3.3691,-3.3437,-3.3418,-3.3418,-3.3418,-3.3418,-3.3418,-3.3418,-3.3262,-3.3047,-3.2793,-3.2617,-3.2676,-3.293,-3.293,-3.2871,-3.2812,-3.3066,-3.2832,-3.2344,-3.293,-3.2676,-3.1973,-3.2656,-3.2773,-3.2598,-3.3008,-3.3281,-3.3398,0.0,0.0,0.0,0.0,0.0,0.0,0.0,0.0,0.0,0.0,-4.4855,0.0,0.0,0.0,0.0,0.0,0.0,0.0,0.0,-4.5334,-4.552,-4.6024,-4.607,-4.6034,-4.6016,-4.5866,-4.5247,-4.4172,-4.5656,-4.5853,-4.4794,-4.4638,-4.4545,-4.4499,-4.4266,-4.4219,-4.4312,-4.4312,-4.315,-4.1369,-4.1369,-4.0693,-3.9697,-3.9697,0.0,0.0,0.0,0.0,0.0,0.0,0.0,0.0,-3.5278,-3.4503,-3.3944,-3.173,-3.0995,-3.0898,-3.0937,-3.0937,-3.1055,-3.1523,-3.2305,-3.3301,-3.4466,-3.5742,-3.6601,-3.6562,-3.5957,-3.5382,-3.5382,-3.5031,-3.4895,-3.5304,-3.5714,-3.5947,-3.6016,-3.5996,-3.5957,-3.5957,-3.5586,-3.5332,-3.5332,-3.457,-3.4082,-3.4082,-3.3633,-3.3359,-3.3359,-3.3359,-3.334,-3.3301,-3.334,-3.334,-3.3301,-3.293,-3.2715,-3.2676,-3.2324,-3.2209,-3.2109,-3.2148,-3.2383,-3.2734,-3.2695,-3.2266,-3.1641,-3.2461,-3.2285,-3.1562,-3.2051,-3.2187,-3.2168,-3.2578,-3.2988,-3.3242,0.0,0.0,0.0,0.0,0.0,0.0,0.0,0.0,0.0,0.0,0.0,0.0,0.0,0.0,0.0,0.0,0.0,0.0,0.0,-4.5603,-4.5562,-4.6207,-4.6399,-4.5945,-4.473,-4.4666,-4.4125,-4.3129,-4.4266,-4.4266,-4.3245,-4.3225,-4.3225,-4.3225,-4.3177,-4.3559,-4.4312,-4.4312,-4.3606,-4.2452,-4.2452,-4.1345,-3.9697,-3.9697,-3.9697,0.0,0.0,0.0,0.0,0.0,0.0,0.0,-3.634,-3.5168,-3.4112,-3.2742,-3.1614,-3.0957,-3.1289,-3.1387,-3.1562,-3.2324,-3.3418,-3.4485,-3.5191,-3.5549,-3.5664,-3.5249,-3.5375,-3.5403,-3.5062,-3.4918,-3.5016,-3.5403,-3.5549,-3.5675,-3.5947,-3.5742,-3.5527,-3.5527,-3.5137,-3.4844,-3.4844,-3.4375,-3.4082,-3.4082,-3.3359,-3.293,-3.293,-3.293,-3.2773,-3.2441,-3.2754,-3.2773,-3.2441,-3.2344,-3.2129,-3.1797,-3.2051,-3.1992,-3.168,-3.2012,-3.2226,-3.2285,-3.1934,-3.1875,-3.207,-3.2578,-3.2285,-3.1601,-3.2363,-3.2246,-3.1719,-3.2148,-3.2363,-3.2422,0.0,0.0,0.0,0.0,0.0,0.0,0.0,0.0,0.0,0.0,0.0,0.0,0.0,0.0,0.0,0.0,0.0,0.0,0.0,0.0,-4.6326,-4.6426,-4.6315,-4.5656,-4.4312,-4.4312,-4.3531,-4.2061,-4.2571,-4.2523,-4.2061,-4.2061,-4.2061,-4.2061,-4.2061,-4.2355,-4.2813,-4.2813,-4.2257,-4.1295,-4.1295,-4.0668,-3.9697,-3.9697,-3.9697,-3.9697,-3.9542,0.0,0.0,0.0,0.0,0.0,0.0,0.0,-3.4168,-3.3006,-3.1845,-3.0937,-3.1152,-3.1367,-3.1777,-3.2832,-3.3906,-3.4817,-3.5365,-3.5607,-3.5549,-3.4978,-3.5043,-3.5127,-3.4921,-3.4921,-3.4914,-3.491,-3.4958,-3.495,-3.5142,-3.4929,-3.486,-3.5059,-3.4668,-3.4394,-3.4394,-3.4023,-3.375,-3.375,-3.3164,-3.2793,-3.2793,-3.2598,-3.2402,-3.2229,-3.2383,-3.2383,-3.2229,-3.1953,-3.1738,-3.1523,-3.1543,-3.1445,-3.123,-3.166,-3.1738,-3.1543,-3.1523,-3.1641,-3.1875,-3.209,-3.1914,-3.1543,-3.1797,-3.1738,-3.1543,-3.1777,-3.1992,-3.2148,0.0,0.0,0.0,0.0,0.0,0.0,0.0,0.0,0.0,0.0,0.0,0.0,0.0,0.0,0.0,0.0,0.0,0.0,0.0,0.0,0.0,-4.6653,-4.6001,-4.5201,-4.4078,-4.389,-4.2813,-4.0945,-4.0945,-4.0997,-4.1075,-4.0971,-4.0945,-4.0945,-4.0945,-4.1019,-4.1219,-4.1219,-4.0693,-3.9981,-3.9981,-3.9826,-3.9697,-3.9697,-3.9697,-3.9697,-3.9697,-3.9542,-3.931,-3.8998,0.0,0.0,0.0,0.0,-3.4503,-3.3346,-3.2113,-3.119,-3.1035,-3.1367,-3.2012,-3.3144,-3.4004,-3.4707,-3.5109,-3.5471,-3.5559,-3.4945,-3.4865,-3.4853,-3.4715,-3.4659,-3.4489,-3.4267,-3.4153,-3.4117,-3.4154,-3.4123,-3.4197,-3.459,-3.4219,-3.3965,-3.3965,-3.3633,-3.3418,-3.3418,-3.3027,-3.2754,-3.2695,-3.2363,-3.215,-3.1953,-3.2012,-3.2031,-3.2013,-3.1601,-3.1406,-3.1406,-3.1055,-3.0937,-3.1016,-3.1289,-3.1211,-3.0918,-3.1269,-3.1406,-3.1406,-3.1484,-3.1465,-3.1387,-3.1113,-3.1172,-3.1406,-3.1406,-3.1641,-3.1894,0.0,0.0,0.0,0.0,0.0,0.0,0.0,0.0,0.0,0.0,-4.6681,-4.6249,0.0,0.0,0.0,0.0,0.0,0.0,0.0,0.0,0.0,-4.6609,-4.5446,-4.4266,-4.3033,-4.2084,-4.1045,-3.9878,-3.9878,-4.013,-4.0585,-4.0105,-3.9878,-3.9878,-3.9878,-4.0364,-4.1219,-4.1219,-4.1119,-4.0969,-4.0969,-4.0465,-3.9697,-3.9697,-3.9697,-3.9697,-3.9697,-3.9697,-3.9594,-3.931,-3.8998,0.0,0.0,0.0,-3.574,-3.4503,-3.3346,-3.233,-3.1624,-3.2012,-3.2754,-3.3281,-3.3789,-3.4212,-3.4332,-3.469,-3.4864,-3.4459,-3.4675,-3.4715,-3.4094,-3.3679,-3.3489,-3.3842,-3.3591,-3.3529,-3.4115,-3.3873,-3.3772,-3.416,-3.3769,-3.3516,-3.3516,-3.3457,-3.3418,-3.3418,-3.3027,-3.2637,-3.2266,-3.2268,-3.1816,-3.1094,-3.1406,-3.1426,-3.1074,-3.0996,-3.0976,-3.0976,-3.0918,-3.1074,-3.1426,-3.1113,-3.0937,-3.0898,-3.0957,-3.0976,-3.0996,-3.1367,-3.1309,-3.0996,-3.1309,-3.125,-3.0976,-3.0976,-3.1016,-3.1055,0.0,0.0,0.0,0.0,0.0,0.0,0.0,0.0,0.0,0.0,0.0,-4.6279,0.0,0.0,0.0,0.0,0.0,0.0,0.0,0.0,0.0,-4.6403,-4.5747,-4.4573,-4.284,-4.2355,-4.1295,-3.9697,-3.9697,-3.9823,-4.0049,-4.0124,-4.0149,-4.0149,-3.9823,-3.9929,-4.0364,-4.0364,-4.0364,-4.0364,-4.0364,-4.0083,-3.9697,-3.9697,-3.9697,-3.9697,-3.9697,-3.9697,-3.9645,-3.9362,-3.9206,-3.8998,-3.8526,0.0,0.0,0.0,-3.4134,-3.2502,-3.1742,-3.1797,-3.2246,-3.291,-3.3398,-3.3764,-3.4063,-3.4425,-3.4669,-3.4337,-3.4356,-3.4364,-3.3861,-3.341,-3.3058,-3.2855,-3.2652,-3.2646,-3.3119,-3.3058,-3.3136,-3.3647,-3.3535,-3.3418,-3.3418,-3.3418,-3.3418,-3.3418,-3.2812,-3.2363,-3.2187,-3.1719,-3.1289,-3.0898,-3.1074,-3.1074,-3.0898,-3.0898,-3.0898,-3.0898,-3.0898,-3.0996,-3.1152,-3.0976,-3.0898,-3.0898,-3.0898,-3.0898,-3.0898,-3.1094,-3.1055,-3.0918,-3.1094,-3.1055,-3.0898,-3.0898,-3.0898,-3.0898,0.0,0.0,0.0,0.0,0.0,0.0,0.0,0.0,0.0,0.0,0.0,0.0,0.0,0.0,0.0,0.0,0.0,0.0,0.0,0.0,0.0,-4.6225,-4.5475,-4.4387,-4.284,-4.2257,-4.1246,-3.9697,-3.9697,-3.9848,-4.0124,-4.04,-4.0752,-4.1103,-4.0425,-4.0124,-4.0099,-3.9973,-3.9973,-4.0099,-3.9798,-3.9697,-3.9697,-3.9697,-3.9697,-3.9697,-3.9697,-3.9697,-3.9697,-3.9465,-3.9362,-3.9206,-3.8788,-3.7897,0.0,0.0,0.0,-3.2596,-3.1956,-3.1663,-3.168,-3.2305,-3.2793,-3.3223,-3.3652,-3.4062,-3.4349,-3.4185,-3.4158,-3.4077,-3.3803,-3.3329,-3.2794,-3.2253,-3.1975,-3.2004,-3.2332,-3.2422,-3.2676,-3.3292,-3.3418,-3.3418,-3.3418,-3.3418,-3.3418,-3.3418,-3.2734,-3.2285,-3.2229,-3.1465,-3.0996,-3.0898,-3.0898,-3.0898,-3.0898,-3.0898,-3.0898,-3.0898,-3.0898,-3.0898,-3.0898,-3.0898,-3.0898,-3.0898,-3.0898,-3.0898,-3.0898,-3.0898,-3.0898,-3.0898,-3.0898,-3.0898,-3.0898,-3.0898,-3.0898,-3.0898,0.0,0.0,0.0,0.0,0.0,0.0,0.0,0.0,0.0,0.0,0.0,0.0,-4.6339,-4.6279,-4.6279,-4.6279,-4.6309,0.0,0.0,0.0,0.0,-4.6225,-4.4125,0.0,-4.2792,-4.087,-3.98,-3.9697,-3.9697,-4.0224,-4.12,-4.0752,-4.1354,-4.2811,-4.1731,-4.12,-4.1175,-4.0701,-4.0777,-4.11,-4.0124,-3.9697,-3.9697,-3.9697,-3.9697,-3.9697,-3.9697,-3.9697,-3.9697,-3.9697,-3.9517,-3.931,-3.9258,-3.8841,-3.808,0.0,0.0,0.0,-3.2669,-3.2071,-3.1523,-3.1582,-3.1914,-3.2344,-3.2773,-3.3184,-3.3613,-3.4023,-3.4101,-3.3992,-3.3688,-3.3019,-3.2544,-3.246,-3.1866,-3.1672,-3.2294,-3.2422,-3.2676,-3.3292,-3.3418,-3.3418,-3.3418,-3.3418,-3.3418,-3.3418,-3.3008,-3.2598,-3.2187,-3.1738,-3.1309,-3.0898,-3.0898,-3.0898,-3.0898,-3.0898,-3.0898,-3.0898,-3.0898,-3.0898,-3.0898,-3.0898,-3.0898,-3.0898,-3.0898,-3.0898,-3.0898,-3.0898,-3.0898,-3.0898,-3.0898,-3.0898,-3.0898,-3.0898,-3.0898,-3.0898,0.0,0.0,0.0,0.0,0.0,0.0,0.0,0.0,0.0,0.0,0.0,0.0,0.0,-4.695,-4.6864,-4.6705,-4.6561,0.0,0.0,0.0,0.0,-4.5035,-4.4219,-4.315,-4.1815,-4.1045,-4.0364,-3.9697,-3.9697,-3.9898,-4.03,-4.045,-4.0827,-4.1379,-4.0978,-4.0949,-4.1225,-4.0375,-4.0099,-4.0249,-3.9848,-3.9697,-3.9697,-3.9697,-3.9697,-3.9697,-3.9697,-3.9697,-3.9697,-3.9697,-3.9645,-3.9542,-3.9362,-3.9154,-3.8659,-3.7073,-3.5827,-3.4636,-3.314,-3.2465,-3.2147,-3.1623,-3.1641,-3.1875,-3.2305,-3.2519,-3.2656,-3.2812,-3.2851,-3.2851,-3.2727,-3.2543,-3.2392,-3.2134,-3.1746,-3.157,-3.2038,-3.223,-3.2549,-3.3038,-3.3292,-3.3418,-3.3418,-3.3418,-3.3301,-3.3047,-3.2637,-3.2207,-3.1777,-3.1348,-3.1055,-3.0898,-3.0898,-3.0898,-3.0898,-3.0898,-3.0898,-3.0898,-3.0898,-3.0898,-3.0898,-3.0898,-3.0898,-3.0898,-3.0898,-3.0898,-3.0898,-3.0898,-3.0898,-3.0898,-3.0898,-3.0898,-3.0898,-3.0898,-3.0762,-3.0567,0.0,0.0,0.0,0.0,0.0,0.0,0.0,0.0,0.0,-4.68,0.0,0.0,0.0,0.0,-4.6975,-4.68,-4.6668,-4.6491,-4.6225,-4.6225,-4.5627,-4.4359,-4.3984,-4.2958,-4.1219,-4.0895,-4.0364,-3.9697,-3.9697,-3.9798,-3.9973,-4.035,-4.0701,-4.1053,-4.0676,-4.1028,-4.1831,-4.0902,-4.0626,-4.0752,-4.0199,-4.0074,-4.0224,-4.0049,-3.9973,-3.9973,-3.9973,-3.9848,-3.9697,-3.9697,-3.9697,-3.9697,-3.949,-3.9362,-3.905,-3.7607,-3.6804,-3.5991,-3.4357,-3.3289,-3.2596,-3.2033,-3.1584,-3.1426,-3.1855,-3.1953,-3.1992,-3.2148,-3.2229,-3.2229,-3.2229,-3.2185,-3.2043,-3.1877,-3.1625,-3.1506,-3.1846,-3.2166,-3.2549,-3.2848,-3.3165,-3.3418,-3.3418,-3.3301,-3.3105,-3.2812,-3.2266,-3.1816,-3.1543,-3.1113,-3.0898,-3.0898,-3.0898,-3.0898,-3.0898,-3.0898,-3.0898,-3.0898,-3.0898,-3.0898,-3.0898,-3.0898,-3.0898,-3.0898,-3.0898,-3.0898,-3.0898,-3.0898,-3.0898,-3.0898,-3.0898,-3.0898,-3.0898,-3.0898,-3.0704,-3.0392,0.0,0.0,0.0,0.0,0.0,0.0,0.0,0.0,-4.6609,-4.6609,0.0,0.0,0.0,0.0,0.0,-4.6609,-4.658,-4.6447,-4.6225,-4.618,-4.5582,-4.4312,0.0,0.0,-4.1169,-4.0211,-3.9697,-3.9697,-3.9697,-3.9973,-4.0501,-4.0501,-4.1078,-4.2112,-4.0978,-4.1404,-4.2886,-4.2389,-4.2464,-4.2785,-4.1153,-4.0827,-4.12,-4.0701,-4.0501,-4.0501,-4.0501,-4.0149,-3.9697,-3.9697,-3.9697,-3.9697,-3.9697,-3.9542,-3.9154,-3.8579,-3.7578,-3.6565,0.0,0.0,0.0,-3.2742,-3.1845,-3.1055,-3.1406,-3.1504,-3.1621,-3.2051,-3.2129,-3.2129,-3.2129,-3.1825,-3.1593,-3.1764,-3.1548,-3.157,-3.1846,-3.2166,-3.2549,-3.2848,-3.3165,-3.3418,-3.3418,-3.3047,-3.2793,-3.2773,-3.1992,-3.1504,-3.1504,-3.1113,-3.0898,-3.0898,-3.0898,-3.0898,-3.0898,-3.0898,-3.0898,-3.0898,-3.0898,-3.0898,-3.0898,-3.0898,-3.0898,-3.0898,-3.0898,-3.0898,-3.0898,-3.0898,-3.0898,-3.0898,-3.0898,-3.0898,-3.0898,-3.0898,-3.0704,-3.0392,0.0,0.0,0.0,0.0,0.0,0.0,-4.6358,-4.6491,-4.6535,0.0,0.0,0.0,-4.6609,-4.6447,-4.6314,-4.6314,-4.618,-4.6046,-4.6001,-4.5264,-4.4359,-4.3273,-4.2208,-4.1196,-4.0134,-3.9826,-3.9697,-3.9697,-3.9697,-3.9772,-3.9923,-3.9923,-4.03,-4.0953,-4.0651,-4.1003,-4.1731,-4.0777,-4.0927,-4.1681,-4.0425,-4.0249,-4.0676,-4.0124,-3.9923,-3.9923,-3.9923,-3.9823,-3.9697,-3.9697,-3.9697,-3.9697,-3.9697,-3.9542,-3.9258,-3.9102,-3.8502,-3.7684,-3.675,0.0,0.0,0.0,0.0,0.0,-3.1269,-3.1055,-3.1094,-3.1211,-3.125,-3.125,-3.125,-3.1186,-3.1197,-3.1191,-3.1513,-3.1828,-3.2192,-3.2549,-3.2804,-3.2867,-3.3165,-3.3418,-3.3418,-3.3047,-3.2676,-3.2363,-3.1836,-3.1387,-3.1074,-3.0957,-3.0898,-3.0898,-3.0898,-3.0898,-3.0898,-3.0898,-3.0898,-3.0898,-3.0898,-3.0898,-3.0898,-3.0898,-3.0898,-3.0898,-3.0898,-3.0898,-3.0898,-3.0898,-3.0898,-3.0898,-3.0898,-3.0898,-3.0898,-3.0898,-3.0528,-3.0039,0.0,0.0,0.0,0.0,0.0,-4.4989,-4.4823,-4.4915,-4.4989,0.0,0.0,0.0,-4.5035,-4.4869,-4.4776,-4.4776,-4.4666,-4.462,-4.462,-4.4031,-4.3197,-4.2208,-4.1518,-4.0743,-3.9749,-3.9697,-3.9697,-3.9697,-3.9697,-3.9697,-3.9697,-3.9697,-3.9873,-4.0174,-4.0174,-4.0475,-4.0874,-4.0074,-4.0325,-4.12,-4.04,-4.0375,-4.0802,-4.0249,-4.0049,-4.0049,-4.0049,-4.0049,-3.9998,-3.9772,-3.9697,-3.9697,-3.9697,-3.9594,-3.9413,-3.931,-3.905,-3.8554,-3.7631,-3.6858,-3.5991,-3.4525,0.0,0.0,-3.1903,-3.1672,-3.1498,-3.0995,-3.0898,-3.0898,-3.0898,-3.0917,-3.1012,-3.1186,-3.145,-3.1803,-3.2081,-3.2562,-3.2912,-3.2912,-3.3165,-3.3418,-3.3418,-3.2871,-3.2422,-3.2248,-3.1601,-3.1152,-3.0898,-3.0898,-3.0898,-3.0898,-3.0898,-3.0898,-3.0898,-3.0898,-3.0898,-3.0898,-3.0898,-3.0898,-3.0898,-3.0898,-3.0898,-3.0898,-3.0898,-3.0898,-3.0898,-3.0898,-3.0898,-3.0898,-3.0898,-3.0898,-3.0898,-3.0762,-3.0352,-2.9863,0.0,0.0,-4.2792,-4.2792,-4.2792,-4.2792,-4.2792,-4.2792,-4.2792,0.0,-4.2792,-4.2792,-4.2792,-4.2792,-4.2792,-4.2792,-4.2792,-4.2792,-4.2792,-4.2695,-4.2208,-4.1219,-4.1069,-4.0592,-3.9749,-3.9697,-3.9697,-3.9697,-3.9697,-3.9697,-3.9697,-3.9697,-3.9697,-3.9697,-3.9697,-3.9973,-4.04,-3.9898,-4.0249,-4.1075,-4.0626,-4.0752,-4.1125,-4.0626,-4.0425,-4.0425,-4.0425,-4.0425,-4.035,-3.9848,-3.9697,-3.9697,-3.9697,-3.9697,-3.9645,-3.9413,-3.931,-3.9154,-3.8631,-3.7684,-3.675,-3.634,-3.5443,0.0,-3.3176,-3.2799,-3.2399,-3.1344,-3.0995,-3.0898,-3.0898,-3.0898,-3.1016,-3.1387,-3.1523,-3.1614,-3.1832,-3.2459,-3.2917,-3.2917,-3.3209,-3.3418,-3.3418,-3.2695,-3.2226,-3.2168,-3.1367,-3.0898,-3.0898,-3.0898,-3.0898,-3.0898,-3.0898,-3.0898,-3.0898,-3.0898,-3.0898,-3.0898,-3.0898,-3.0898,-3.0898,-3.0898,-3.0898,-3.0898,-3.0898,-3.0898,-3.0898,-3.0898,-3.0898,-3.0898,-3.0898,-3.0898,-3.084,-3.0509,-3.0216,-2.9863,0.0,0.0,-4.2792,-4.2792,-4.2792,-4.2792,-4.2792,-4.2792,-4.2792,-4.2792,-4.2792,-4.2792,-4.2792,-4.2792,-4.2792,-4.2792,-4.2792,-4.2792,-4.2792,-4.2012,-4.1419,-4.1219,-4.0415,-3.9878,-3.9697,-3.9697,-3.9697,-3.9697,-3.9697,-3.9697,-3.9697,-3.9697,-3.9697,-3.9697,-3.9697,-3.9747,-3.9848,-3.9747,-3.9823,-3.9998,-3.9898,-4.0199,-4.0626,-4.0074,-3.9848,-3.9848,-3.9848,-3.9848,-3.9848,-3.9722,-3.9697,-3.9697,-3.9697,-3.9697,-3.9697,-3.9645,-3.9465,-3.9258,-3.9154,-3.8788,-3.8056,-3.6858,-3.6348,0.0,-3.4391,-3.3346,-3.2628,-3.2399,-3.1556,-3.0898,-3.0898,-3.0898,-3.0918,-3.0996,-3.1601,-3.2109,-3.2144,-3.2533,-3.2786,-3.2786,-3.316,-3.3418,-3.3418,-3.2969,-3.2539,-3.2187,-3.1367,-3.0898,-3.0898,-3.0898,-3.0898,-3.0898,-3.0898,-3.0898,-3.0898,-3.0898,-3.0898,-3.0898,-3.0898,-3.0898,-3.0898,-3.0898,-3.0898,-3.0898,-3.0898,-3.0898,-3.0898,-3.0898,-3.0898,-3.0898,-3.0898,-3.0898,-3.084,-3.0509,-3.0216,-2.9863,-4.1246,-4.1246,-4.1246,-4.1246,-4.1246,-4.1246,-4.1246,-4.1246,-4.1246,-4.1246,-4.1246,-4.1246,-4.1246,-4.1246,-4.1246,-4.1246,-4.1246,-4.1246,-4.1246,-4.0743,-4.0465,-4.0465,-3.9981,-3.9697,-3.9697,-3.9697,-3.9697,-3.9697,-3.9697,-3.9697,-3.9697,-3.9697,-3.9697,-3.9697,-3.9697,-3.9697,-3.9697,-3.9697,-3.9697,-3.9697,-3.9697,-3.9848,-4.0074,-3.9798,-3.9697,-3.9697,-3.9697,-3.9697,-3.9747,-4.0023,-4.0099,-4.0049,-3.9772,-3.9873,-4.0049,-3.9772,-3.9594,-3.9465,-3.931,-3.9154,-3.8841,-3.795,-3.7684,0.0,0.0,-3.5035,-3.4447,-3.3685,-3.2628,-3.1787,-3.1787,-3.1286,-3.0898,-3.0898,-3.125,-3.1523,-3.1523,-3.2441,-3.3105,-3.3105,-3.3301,-3.3418,-3.3418,-3.3047,-3.2617,-3.2207,-3.1562,-3.1211,-3.1211,-3.0996,-3.0898,-3.0898,-3.0898,-3.0898,-3.0898,-3.0898,-3.0898,-3.0898,-3.0898,-3.0898,-3.0898,-3.0898,-3.0898,-3.0898,-3.0898,-3.0898,-3.0898,-3.0898,-3.0898,-3.0898,-3.0898,-3.0898,-3.084,-3.0333,-3.0039,-2.9863,-3.9697,-3.9697,-3.9697,-3.9697,-3.9697,-3.9697,-3.9697,-3.9697,-3.9697,-3.9697,-3.9798,-3.9848,-3.9848,-3.9848,-3.9898,-3.9998,-3.9823,-3.9747,-3.9848,-3.9747,-3.9697,-3.9697,-3.9697,-3.9697,-3.9697,-3.9697,-3.9697,-3.9697,-3.9697,-3.9697,-3.9697,-3.9697,-3.9697,-3.9697,-3.9697,-3.9697,-3.9697,-3.9697,-3.9697,-3.9697,-3.9697,-3.9697,-3.9697,-3.9697,-3.9697,-3.9697,-3.9697,-3.9697,-3.9772,-4.0199,-4.035,-4.0275,-3.9848,-3.9998,-4.0275,-3.9823,-3.9697,-3.9645,-3.9438,-3.9362,-3.931,-3.8998,-3.8893,-3.8554,0.0,0.0,0.0,-3.509,-3.3888,-3.297,-3.2742,-3.1903,-3.117,-3.0937,-3.0957,-3.1016,-3.1016,-3.2266,-3.3144,-3.3066,-3.3125,-3.3203,-3.3301,-3.293,-3.2559,-3.2305,-3.1738,-3.1426,-3.1504,-3.1113,-3.0898,-3.0898,-3.0898,-3.0898,-3.0898,-3.0898,-3.0898,-3.0898,-3.0898,-3.0898,-3.0898,-3.0898,-3.0898,-3.0898,-3.0898,-3.0898,-3.0898,-3.0898,-3.0898,-3.0898,-3.0898,-3.084,-3.0704,-3.0098,-2.9863,-2.9686,-3.9697,-3.9697,-3.9697,-3.9697,-3.9697,-3.9697,-3.9697,-3.9697,-3.9697,-3.9697,-4.0124,-4.0425,-4.0425,-4.0425,-4.0626,-4.105,-4.0249,-3.9898,-4.04,-3.9973,-3.9697,-3.9697,-3.9697,-3.9697,-3.9697,-3.9697,-3.9697,-3.9697,-3.9697,-3.9697,-3.9697,-3.9697,-3.9697,-3.9697,-3.9697,-3.9697,-3.9697,-3.9697,-3.9697,-3.9697,-3.9697,-3.9697,-3.9697,-3.9697,-3.9697,-3.9697,-3.9697,-3.9697,-3.9697,-3.9772,-3.9798,-3.9772,-3.9722,-3.9747,-3.9772,-3.9722,-3.9697,-3.9697,-3.9645,-3.9645,-3.9594,-3.931,-3.9258,-3.9102,-3.8684,0.0,-3.6565,-3.6402,0.0,-3.3888,-3.2913,0.0,0.0,-3.1054,-3.1211,-3.1445,-3.1445,-3.1953,-3.2168,-3.1777,-3.207,-3.2461,-3.2832,-3.248,-3.2383,-3.2695,-3.1621,-3.1133,-3.1504,-3.1113,-3.0898,-3.0898,-3.0898,-3.0898,-3.0898,-3.0898,-3.0898,-3.0898,-3.0898,-3.0898,-3.0898,-3.0898,-3.0898,-3.0898,-3.0898,-3.0898,-3.0898,-3.0898,-3.0898,-3.0898,-3.0898,-3.0704,-3.0392,-3.0039,-2.9745,-2.9313,-3.9697,-3.9697,-3.9697,-3.9697,-3.9697,-3.9697,-3.9697,-3.9697,-3.9697,-3.9697,-3.9898,-4.0049,-4.0049,-4.0049,-4.0249,-4.0802,-4.0149,-3.9923,-4.0475,-3.9998,-3.9697,-3.9697,-3.9697,-3.9697,-3.9697,-3.9697,-3.9697,-3.9697,-3.9697,-3.9697,-3.9697,-3.9697,-3.9697,-3.9697,-3.9697,-3.9697,-3.9697,-3.9697,-3.9697,-3.9697,-3.9697,-3.9697,-3.9697,-3.9697,-3.9697,-3.9697,-3.9697,-3.9697,-3.9697,-3.9697,-3.9898,-4.0124,-3.9798,-3.9923,-4.0099,-3.9798,-3.9697,-3.9697,-3.9697,-3.9697,-3.9697,-3.9594,-3.9542,-3.9413,-3.9154,-3.8607,-3.8108,-3.7897,0.0,0.0,0.0,0.0,0.0,0.0,-3.1483,-3.1152,-3.1152,-3.1309,-3.1543,-3.1855,-3.2051,-3.2307,-3.2422,-3.25,-3.25,-3.2441,-3.1934,-3.1601,-3.1523,-3.1113,-3.0898,-3.0898,-3.0898,-3.0898,-3.0898,-3.0898,-3.0898,-3.0898,-3.0898,-3.0898,-3.0898,-3.0898,-3.0898,-3.0898,-3.0898,-3.0898,-3.0898,-3.0898,-3.0898,-3.0898,-3.0898,-3.0704,-3.0392,-3.0039,-2.9253,-2.8224,-3.9413,-3.9594,-3.9697,-3.9697,-3.9697,-3.9697,-3.9697,-3.9697,-3.9697,-3.9697,-3.9823,-3.9973,-4.0124,-4.0149,-4.0425,-4.1128,-4.0551,-4.03,-4.0701,-4.0224,-3.9848,-3.9697,-3.9697,-3.9697,-3.9697,-3.9697,-3.9697,-3.9697,-3.9697,-3.9697,-3.9697,-3.9697,-3.9517,-3.9206,-3.9542,-3.9617,-3.9481,-3.9404,-3.9504,-3.9628,-3.9628,-3.971,-3.9898,-3.9747,-3.9697,-3.9697,-3.9697,-3.9697,-3.9697,-3.9697,-3.9948,-4.0224,-3.9823,-3.9973,-4.0199,-3.9798,-3.9697,-3.9697,-3.9697,-3.9697,-3.9697,-3.9697,-3.9697,-3.9645,-3.9465,-3.9362,-3.9206,-3.8998,-3.8003,0.0,0.0,0.0,-3.3551,-3.2892,0.0,-3.1286,-3.0957,-3.0898,-3.1113,-3.1738,-3.1914,-3.1992,-3.1992,-3.2266,-3.2363,-3.2187,-3.1953,-3.1738,-3.1523,-3.1113,-3.0898,-3.0898,-3.0898,-3.0898,-3.0898,-3.0898,-3.0898,-3.0898,-3.0898,-3.0898,-3.0898,-3.0898,-3.0898,-3.0898,-3.0898,-3.0898,-3.0898,-3.0898,-3.0898,-3.0898,-3.0898,-3.0645,-3.0216,-2.9981,-2.8879,-2.7409,-3.8841,-3.931,-3.9697,-3.9697,-3.9697,-3.9697,-3.9697,-3.9697,-3.9697,-3.9697,-4.0149,-4.0701,-4.1175,-4.1225,-4.1731,-4.2811,-4.1907,-4.125,-4.125,-4.0802,-4.0249,-3.9722,-3.9697,-3.9697,-3.9697,-3.9697,-3.9697,-3.9697,-3.9697,-3.9697,-3.9697,-3.9697,-3.9102,-3.8003,-3.9206,-3.9374,-3.8803,-3.8671,-3.8905,-3.9441,-3.9441,-3.9829,-4.0425,-3.9898,-3.9697,-3.9697,-3.9697,-3.9697,-3.9697,-3.9697,-3.9697,-3.9722,-3.9697,-3.9697,-3.9722,-3.9697,-3.9697,-3.9697,-3.9697,-3.9697,-3.9697,-3.9697,-3.9697,-3.9697,-3.9697,-3.949,-3.931,-3.9258,-3.8998,-3.8396,-3.7311,-3.675,-3.5727,-3.3473,-3.2835,0.0,0.0,-3.0898,-3.0898,-3.0918,-3.1289,-3.1543,-3.1543,-3.1543,-3.1719,-3.2148,-3.1406,-3.1113,-3.1504,-3.1113,-3.0898,-3.0898,-3.0898,-3.0898,-3.0898,-3.0898,-3.0898,-3.0898,-3.0898,-3.0898,-3.0898,-3.0898,-3.0898,-3.0898,-3.0898,-3.0898,-3.0898,-3.0898,-3.0898,-3.0898,-3.0898,-3.0528,-2.9922,-2.9922,-2.8879,-2.7289,-3.8788,-3.8945,-3.9102,-3.9102,-3.9102,-3.9102,-3.9102,-3.9102,-3.9374,-4.0092,-4.05,-4.0985,-4.1479,-4.1773,-4.2032,-4.2464,-4.1756,-4.1505,-4.1856,-4.1028,-4.0425,-4.0249,-3.9898,-3.9697,-3.9697,-3.9697,-3.9697,-3.9697,-3.9697,-3.931,-3.8502,-3.8502,-3.7897,-3.678,-3.718,-3.7274,-3.7115,-3.7356,-3.7402,-3.7294,-3.7294,-3.8119,-3.9394,-3.9638,-3.9697,-3.9697,-3.9697,-3.9697,-3.9697,-3.9697,-3.9697,-3.9697,-3.9697,-3.9697,-3.9697,-3.9697,-3.9697,-3.9697,-3.9697,-3.9697,-3.9798,-4.0149,-3.9973,-3.9798,-4.0149,-3.9896,-3.9594,-3.9594,-3.931,-3.8998,-3.8607,-3.7684,-3.6696,-3.5859,-3.4202,-3.2815,0.0,-3.1498,-3.0898,-3.0898,-3.1016,-3.1094,-3.1094,-3.1094,-3.1172,-3.1309,-3.1055,-3.0957,-3.1094,-3.0976,-3.0898,-3.0898,-3.0898,-3.0898,-3.0898,-3.0898,-3.0898,-3.0898,-3.0898,-3.0898,-3.0898,-3.0898,-3.0898,-3.0898,-3.0898,-3.0898,-3.0898,-3.0898,-3.0898,-3.0898,-3.0898,-3.0079,-2.8861,-2.8701,-2.7486,-2.5529,-3.855,-3.8185,-3.808,-3.8684,-3.8788,-3.8788,-3.8788,-3.896,-3.9402,-4.0286,-4.072,-4.1304,-4.2022,-4.2115,-4.2202,-4.2457,-4.2013,-4.1688,-4.1609,-4.1272,-4.0874,-4.0367,-4.0297,-4.0199,-3.9998,-3.9869,-3.9561,-3.8921,-3.8816,-3.8161,-3.6996,-3.6996,-3.6348,-3.5233,-3.5804,-3.5895,-3.5713,-3.6083,-3.6207,-3.6127,-3.5869,-3.6755,-3.816,-3.8355,-3.881,-3.9349,-3.9151,-3.9025,-3.9154,-3.9594,-3.9697,-3.9697,-3.9697,-3.9697,-3.9697,-3.9697,-3.9697,-3.9697,-3.9697,-3.9697,-3.9772,-4.0149,-3.9948,-3.9798,-4.0149,-3.9948,-3.9697,-3.9697,-3.9594,-3.9413,-3.9413,-3.8607,-3.7737,-3.7287,-3.5617,-3.4013,0.0,-3.1767,-3.0898,-3.0898,-3.0898,-3.0898,-3.0898,-3.0898,-3.082,-3.0644,-3.0644,-3.0644,-3.0644,-3.0644,-3.0723,-3.0879,-3.0898,-3.0898,-3.0898,-3.0898,-3.0898,-3.0898,-3.0898,-3.0898,-3.0898,-3.0898,-3.0898,-3.0898,-3.0898,-3.0898,-3.0898,-3.0898,-3.0898,-3.0898,-3.0762,-2.9962,-2.8861,-2.8206,-2.6443,-2.4008,-3.7934,-3.6881,-3.6611,-3.8291,-3.8631,-3.8684,-3.8736,-3.9251,-3.9815,-4.0354,-4.0943,-4.1759,-4.2732,-4.2446,-4.2324,-4.2897,-4.2683,-4.1997,-4.0684,-4.1604,-4.1597,-4.0202,-4.0839,-4.105,-4.0523,-4.0209,-3.9251,-3.7501,-3.7233,-3.6457,-3.5233,-3.5233,-3.457,-3.3452,-3.4902,-3.5168,-3.469,-3.4905,-3.5381,-3.5911,-3.5272,-3.5791,-3.6865,-3.6283,-3.7107,-3.8539,-3.8011,-3.7844,-3.8003,-3.9154,-3.9594,-3.9645,-3.9645,-3.9645,-3.9697,-3.9697,-3.9697,-3.9697,-3.9697,-3.9697,-3.9697,-3.9722,-3.9722,-3.9697,-3.9722,-3.9722,-3.9697,-3.9697,-3.9697,-3.9697,-3.9697,-3.949,-3.8921,-3.7796,-3.6996,-3.564,-3.3063,-3.1672,-3.0898,-3.0898,-3.0859,-3.0859,-3.0898,-3.0859,-3.0644,-3.0234,-3.0176,-3.0176,-3.0195,-3.0215,-3.043,-3.0879,-3.0898,-3.0898,-3.0898,-3.0898,-3.0898,-3.0898,-3.0898,-3.0898,-3.0898,-3.0898,-3.0898,-3.0898,-3.0898,-3.0898,-3.0898,-3.0898,-3.0898,-3.0879,-3.0567,-3.0157,-2.9568,-2.8283,-2.5774,-2.2827,-3.5423,-3.5057,-3.5002,-3.5443,-3.6263,-3.715,-3.808,-3.9346,-4.0386,-4.0918,-4.2302,-4.3403,-4.3636,-4.3801,-4.3723,-4.3536,-4.3422,-4.3078,-4.2332,-4.2125,-4.1737,-4.1016,-4.0775,-4.0552,-4.0429,-3.9956,-3.9072,-3.78,-3.7315,-3.6022,-3.3957,-3.3957,-3.336,-3.2285,-3.2607,-3.2727,-3.2625,-3.3575,-3.4432,-3.5047,-3.4148,-3.4833,-3.6086,-3.4288,-3.4662,-3.6229,-3.6533,-3.6619,-3.6673,-3.6996,-3.766,-3.8372,-3.8372,-3.8973,-3.9697,-3.9697,-3.9697,-3.9697,-3.9697,-3.9697,-3.9798,-4.0199,-3.9998,-3.9798,-4.0199,-3.9998,-3.9697,-3.9697,-3.9697,-3.9697,-3.9697,-3.9645,-3.9517,-3.9181,-3.7156,-3.498,-3.297,-3.1672,-3.0898,-3.0898,-3.0586,-3.0508,-3.0859,-3.0293,-2.998,-3.0176,-2.9902,-2.9863,-3.0176,-3.0527,-3.0762,-3.0879,-3.0898,-3.0898,-3.0898,-3.0898,-3.0898,-3.0898,-3.0898,-3.0898,-3.0898,-3.0898,-3.0898,-3.0898,-3.0898,-3.0898,-3.0898,-3.0898,-3.0898,-3.0898,-3.082,-2.9235,-2.691,-2.6078,-2.4008,-2.1538,-3.4479,-3.4,-3.3685,-3.3685,-3.4688,-3.606,-3.7637,-3.8453,-3.9481,-4.0995,-4.2335,-4.3227,-4.3433,-4.3832,-4.3952,-4.366,-4.3535,-4.3193,-4.254,-4.243,-4.2095,-4.1475,-4.1237,-4.0998,-4.0832,-4.0128,-3.8796,-3.6865,-3.6219,-3.4703,-3.2358,-3.2358,-3.2035,-3.1402,-3.1498,-3.1556,-3.1654,-3.2428,-3.3087,-3.3469,-3.2878,-3.3281,0.0,-3.2777,-3.2908,-3.3819,-3.4332,-3.4891,-3.5553,-3.6022,-3.6619,-3.718,-3.718,-3.795,-3.8921,-3.8921,-3.931,-3.9697,-3.9697,-3.9697,-3.9772,-4.0074,-3.9923,-3.9772,-4.0099,-3.9923,-3.9697,-3.9697,-3.9697,-3.9645,-3.9542,-3.9645,-3.9594,-3.9362,-3.7049,-3.4869,-3.3628,-3.196,-3.0898,-3.0898,-3.0664,-3.0605,-3.0859,-3.0098,-2.9746,-3.0156,-2.9805,-2.9746,-3.0176,-3.0449,-3.0684,-3.0879,-3.0898,-3.0898,-3.0898,-3.0898,-3.0898,-3.0898,-3.0898,-3.0898,-3.0898,-3.0898,-3.0898,-3.0898,-3.0898,-3.0898,-3.0898,-3.0898,-3.0528,-2.9962,-2.9116,-2.7091,-2.4717,-2.4301,-2.2904,-2.1109,-3.4052,-3.3182,-3.2539,-3.2477,-3.3507,-3.5071,-3.7264,-3.7542,-3.8321,-4.0655,-4.1508,-4.2078,-4.2518,-4.3068,-4.3378,-4.3241,-4.324,-4.2772,-4.1828,-4.2383,-4.2244,-4.1187,-4.1604,-4.1558,-4.0757,-3.9977,-3.8181,-3.5417,-3.4575,-3.3063,-3.0898,-3.0898,-3.0898,-3.0898,-3.117,-3.1306,-3.1404,-3.1694,-3.1908,-3.1968,-3.1908,-3.1868,-3.1868,-3.1808,-3.1787,-3.1845,-3.2133,-3.3084,-3.4357,-3.5388,-3.5859,-3.5968,-3.5968,-3.675,-3.766,-3.7607,-3.8502,-3.9413,-3.9413,-3.9517,-3.9645,-3.9697,-3.9697,-3.9697,-3.9697,-3.9697,-3.9697,-3.9697,-3.9697,-3.9569,-3.9154,-3.9102,-3.8998,-3.8631,-3.6565,-3.4814,-3.428,-3.2285,-3.0898,-3.0898,-3.084,0.0,-3.0879,-3.0137,-2.9805,-3.0176,-2.9863,-2.9785,-3.0098,-3.0234,-3.0449,-3.0781,-3.0859,-3.0898,-3.0898,-3.0898,-3.0898,-3.0898,-3.0898,-3.0898,-3.0898,-3.0898,-3.0898,-3.0898,-3.0898,-3.0898,-3.0898,-3.0898,-3.0098,-2.8683,-2.6624,-2.4733,-2.3201,-2.2952,-2.2153,-2.1109,-3.1658,-3.1622,-3.1584,-3.1287,-3.2295,-3.3899,-3.6141,-3.8483,-3.9904,-3.9607,-4.0775,-4.1528,-4.1217,-4.2385,-4.2807,-4.1949,-4.2655,-4.2344,-4.0484,-4.1217,-4.08,-3.8631,-4.0106,-4.0043,-3.8037,-3.7406,-3.6216,-3.4358,-3.3482,-3.2285,-3.0898,-3.0898,-3.0898,-3.0898,-3.0937,-3.1309,-3.188,-3.1939,-3.2315,-3.2913,-3.2551,-3.2409,-3.2369,-3.1928,-3.1787,-3.1787,-3.1845,-3.2248,-3.2763,-3.3161,-3.3987,-3.4803,-3.4803,-3.5608,-3.6457,-3.6162,-3.6942,-3.7897,-3.7926,-3.8635,-3.9413,-3.9645,-3.9697,-3.9697,-3.9697,-3.9697,-3.9697,-3.9697,-3.9697,-3.931,-3.8031,-3.6865,-3.6348,-3.7233,-3.5178,-3.336,-3.3063,-3.1787,-3.0898,-3.0898,-3.0547,-3.0469,-3.0859,-3.041,-3.0117,-3.0195,-3.0137,-2.9961,-2.9687,-3.0371,-3.0625,-3.0332,-3.0684,-3.0898,-3.0898,-3.0898,-3.0898,-3.0898,-3.0898,-3.0898,-3.0898,-3.0898,-3.0898,-3.0898,-3.0898,-3.0898,-3.0898,-3.0898,-3.0098,-2.8623,-2.5896,-2.444,-2.376,-2.2341,-2.1538,-2.1109,-3.1641,-3.1543,-3.166,-3.2129,-3.3086,-3.4398,-3.6208,-3.8221,-3.9604,-3.9585,-4.0258,-4.0584,-4.0366,-4.1507,-4.206,-4.1544,-4.1728,-4.135,-4.0149,-4.031,-3.9774,-3.8401,-3.9157,-3.8958,-3.7619,-3.7139,-3.5956,-3.409,-3.3348,-3.2299,-3.0898,-3.0898,-3.0898,-3.0898,-3.0898,-3.1113,-3.1446,-3.1663,-3.186,-3.2038,-3.1979,-3.186,-3.1642,-3.1424,-3.1344,-3.1344,-3.1498,-3.1614,-3.1845,-3.2153,-3.2649,-3.314,-3.331,-3.4,-3.4792,-3.4814,-3.553,-3.6348,-3.6379,-3.6888,-3.7477,-3.7607,-3.7767,-3.7873,-3.7873,-3.7767,-3.766,-3.766,-3.7477,-3.721,-3.6487,-3.6162,-3.5968,-3.5968,-3.4869,-3.3698,-3.2856,-3.1672,-3.0898,-3.0898,-3.0488,-3.0371,-3.084,-3.0469,-3.0195,-3.0195,-3.0195,-3.0019,-2.959,-3.041,-3.0684,-3.0215,-3.0644,-3.0898,-3.0898,-3.0898,-3.0898,-3.0898,-3.0898,-3.0898,-3.0898,-3.0898,-3.0898,-3.0898,-3.0898,-3.0898,-3.0762,-2.9235,-2.7769,-2.62,-2.3946,-2.2841,-2.2466,-2.1664,-2.1235,-2.1109,-3.2422,-3.2226,-3.2402,-3.3496,-3.4492,-3.5469,-3.6523,-3.7754,-3.8815,-3.9403,-3.946,-3.946,-3.946,-4.0522,-4.1151,-4.0895,-4.0654,-4.0227,-3.9597,-3.9303,-3.8766,-3.8018,-3.8294,-3.8015,-3.7102,-3.674,-3.5634,-3.3674,-3.3164,-3.225,-3.1016,-3.0937,-3.0898,-3.0898,-3.0898,-3.0898,-3.0918,-3.125,-3.125,-3.1055,-3.1387,-3.1328,-3.1016,-3.1016,-3.0976,-3.0957,-3.117,-3.1208,-3.1286,-3.1498,-3.1672,-3.1845,-3.2133,-3.2607,-3.3191,-3.3381,-3.4112,-3.4814,-3.4847,-3.5178,-3.5563,-3.5617,-3.5781,-3.6022,-3.6022,-3.5781,-3.5617,-3.5617,-3.5178,-3.4902,-3.5233,-3.5343,-3.5178,-3.4648,-3.4258,-3.3663,-3.2457,-3.1518,-3.0898,-3.0898,-3.0566,-3.0449,-3.0723,-3.0508,-3.0273,-3.0078,-3.0137,-3.0019,-2.959,-3.0312,-3.0527,-3.0078,-3.0605,-3.0898,-3.0898,-3.0898,-3.0898,-3.0898,-3.0898,-3.0898,-3.0898,-3.0898,-3.0898,-3.0898,-3.0898,-3.0762,-3.0274,-2.7409,-2.5407,-2.407,-2.2418,-2.1551,-2.1235,-2.1235,-2.1172,-2.1109,-3.3223,-3.3594,-3.3984,-3.4492,-3.5644,-3.6523,-3.666,-3.7754,-3.8451,-3.8169,-3.809,-3.809,-3.809,-3.9403,-3.9889,-3.8977,-3.9351,-3.9027,-3.7658,-3.8004,-3.7463,-3.5798,-3.7248,-3.6992,-3.4532,-3.4408,-3.3713,-3.2411,-3.1898,-3.1603,-3.1445,-3.1074,-3.0898,-3.0898,-3.0898,-3.0898,-3.0898,-3.0937,-3.1152,-3.1465,-3.1504,-3.1504,-3.1465,-3.1465,-3.123,-3.0898,-3.0957,-3.0937,-3.0937,-3.0937,-3.1344,-3.1787,-3.1845,-3.1903,-3.1903,-3.1614,-3.2399,-3.3325,-3.3304,-3.4125,-3.5013,-3.5288,-3.5343,-3.5398,-3.5398,-3.5343,-3.5343,-3.5343,-3.4236,-3.3677,-3.5068,-3.3212,-3.1825,-3.3077,-3.215,-3.1228,-3.1112,-3.0937,-3.0898,-3.0898,-3.0859,-3.0684,-3.0293,-3.0605,-3.0488,-2.9744,-2.998,-3.0019,-2.959,-3.0,-3.0059,-2.9648,-3.0449,-3.0898,-3.0898,-3.0898,-3.0898,-3.0898,-3.0898,-3.0898,-3.0898,-3.0898,-3.0898,-3.0898,-3.0898,-3.0216,-2.8861,-2.6277,-2.4949,-2.4456,-2.3043,-2.2104,-2.1551,-2.1551,-2.1362,-2.1109,-3.4941,-3.4922,-3.5156,-3.6094,-3.6484,-3.6934,-3.7695,-3.8242,-3.8516,-3.834,-3.832,-3.832,-3.832,-3.8878,-3.9082,-3.8627,-3.8343,-3.7868,-3.7003,-3.6876,-3.6428,-3.541,-3.6063,-3.5971,-3.4883,-3.4336,-3.3574,-3.2539,-3.2109,-3.1641,-3.1133,-3.0976,-3.0898,-3.0898,-3.0898,-3.0898,-3.0918,-3.1152,-3.1367,-3.1543,-3.1797,-3.1758,-3.1523,-3.1523,-3.125,-3.0898,-3.0898,-3.0898,-3.0898,-3.0898,-3.1054,-3.1286,-3.1441,-3.1383,-3.1286,-3.1267,-3.1556,-3.1787,-3.1767,-3.2264,-3.2758,-3.2871,-3.3042,-3.3212,-3.3212,-3.3042,-3.2928,-3.2928,-3.2322,-3.194,-3.255,-3.2285,-3.196,-3.1825,-3.1883,-3.173,-3.0995,-3.0898,-3.0898,-3.0898,-3.043,-3.0117,-3.0195,-3.0137,-3.0059,-2.9961,-3.0351,-3.0312,-2.9665,-2.9961,-3.0117,-2.9961,-3.0293,-3.0605,-3.0898,-3.0898,-3.0898,-3.0898,-3.0898,-3.0898,-3.0898,-3.0898,-3.045,-2.9667,-2.8879,-2.7787,-2.652,-2.5117,-2.3961,-2.3029,-2.2041,-2.1551,-2.1299,-2.1299,-2.1235,-2.1109,-3.6348,-3.6152,-3.6309,-3.748,-3.7422,-3.7539,-3.8437,-3.8574,-3.8574,-3.8574,-3.8574,-3.8574,-3.8574,-3.8574,-3.8516,-3.8398,-3.7715,-3.7129,-3.6699,-3.6269,-3.5879,-3.5586,-3.5469,-3.5332,-3.5195,-3.4453,-3.3652,-3.2793,-3.2383,-3.1855,-3.1269,-3.1133,-3.1074,-3.1074,-3.1074,-3.1074,-3.1094,-3.1387,-3.1523,-3.1543,-3.1855,-3.1797,-3.1523,-3.1523,-3.125,-3.0898,-3.0898,-3.0898,-3.0898,-3.0898,-3.0898,-3.0957,-3.1112,-3.1054,-3.0937,-3.1112,-3.1054,-3.0898,-3.0898,-3.1054,-3.117,-3.117,-3.1325,-3.1518,-3.1518,-3.1344,-3.117,-3.117,-3.1054,-3.0898,-3.0898,-3.1634,-3.1903,-3.1054,-3.1614,-3.1845,-3.0995,-3.0898,-3.0898,-3.0898,-3.0332,-3.0019,-3.0176,-2.9922,-2.9824,-3.0,-3.0312,-3.0234,-2.9609,-2.9961,-3.0137,-3.0019,-3.0273,-3.0566,-3.0879,-3.0898,-3.0898,-3.0898,-3.0898,-3.082,-3.0762,-3.0274,-2.9785,-2.9216,-2.7065,-2.5912,-2.5423,-2.407,-2.2904,-2.1929,-2.1425,-2.1172,-2.1109,-2.1109,-2.1109,-2.1109,-3.7109,-3.7285,-3.7539,-3.8398,-3.8555,-3.8555,-3.8574,-3.8574,-3.8574,-3.8574,-3.8574,-3.8574,-3.8574,-3.8574,-3.8398,-3.7969,-3.7539,-3.7129,-3.6699,-3.6269,-3.6016,-3.6016,-3.5605,-3.5176,-3.4726,-3.4297,-3.3652,-3.2793,-3.2383,-3.2168,-3.2148,-3.1719,-3.1504,-3.1504,-3.1504,-3.1504,-3.1504,-3.1523,-3.1523,-3.1523,-3.1523,-3.1523,-3.1523,-3.1523,-3.125,-3.0898,-3.0898,-3.0898,-3.0898,-3.0898,-3.0898,-3.0898,-3.0898,-3.0898,-3.0898,-3.0898,-3.0898,-3.0898,-3.0898,-3.0898,-3.0898,-3.0898,-3.0898,-3.0898,-3.0898,-3.0898,-3.0898,-3.0898,-3.0898,-3.0898,-3.0898,-3.0898,-3.0898,-3.0898,-3.0898,-3.0898,-3.0898,-3.0898,-3.0898,-3.0898,-3.0879,-3.0703,-3.0234,-3.0195,-3.0019,-2.9665,-2.9646,-2.9646,-2.9626,-2.9961,-3.0,-2.959,-3.043,-3.0879,-3.0898,-3.0898,-3.0898,-3.0898,-3.0898,-3.0704,-3.0333,-2.876,-2.8879,-3.0138,-2.5956,-2.504,-2.6244,-2.3325,-2.1915,-2.1614,-2.1614,-2.1425,-2.1109,-2.1109,-2.1109,-2.1109,-3.8125,-3.8164,-3.8262,-3.8535,-3.8574,-3.8574,-3.8574,-3.8574,-3.8574,-3.8574,-3.8574,-3.8574,-3.8574,-3.8574,-3.8398,-3.7969,-3.7539,-3.7129,-3.6699,-3.6269,-3.6016,-3.6016,-3.5312,-3.5,-3.5176,-3.416,-3.3496,-3.3223,-3.2793,-3.2441,-3.2209,-3.1719,-3.1523,-3.1504,-3.1211,-3.1094,-3.1094,-3.1094,-3.125,-3.1523,-3.1523,-3.1523,-3.1523,-3.1523,-3.125,-3.0898,-3.0898,-3.0898,-3.0898,-3.0898,-3.0898,-3.0898,-3.0898,-3.0898,-3.0898,-3.0898,-3.0898,-3.0898,-3.0898,-3.1094,-3.125,-3.0957,-3.1113,-3.125,-3.0957,-3.0898,-3.0898,-3.0898,-3.0898,-3.0898,-3.0898,-3.0898,-3.0898,-3.0898,-3.0898,-3.0898,-3.0898,-3.0898,-3.0898,-3.0898,-3.0605,-3.0351,-3.0215,-3.0195,-3.0137,-3.0,-3.0293,-3.0215,-2.9609,-2.9687,-2.9844,-3.0,-3.0273,-3.0566,-3.0879,-3.0898,-3.0898,-3.0898,-3.0898,-3.0274,-2.8979,-2.7349,-2.6564,-2.6321,-2.3822,-2.3153,-2.376,-2.2355,-2.1677,-2.1614,-2.1362,-2.1172,-2.1109,-2.1109,-2.1109,-2.1109,-3.8574,-3.8574,-3.8574,-3.8574,-3.8574,-3.8574,-3.8574,-3.8574,-3.8574,-3.8574,-3.8574,-3.8574,-3.8574,-3.8574,-3.834,-3.7734,-3.7305,-3.6875,-3.6465,-3.6172,-3.6016,-3.6016,-3.5332,-3.5098,-3.5391,-3.4414,-3.3828,-3.3672,-3.3242,-3.2812,-3.2402,-3.1973,-3.1758,-3.1738,-3.1309,-3.1133,-3.1133,-3.1133,-3.1191,-3.1289,-3.1289,-3.1289,-3.1289,-3.1289,-3.1113,-3.0898,-3.0898,-3.0898,-3.0898,-3.0898,-3.0996,-3.1133,-3.1133,-3.1133,-3.1094,-3.0937,-3.0898,-3.0898,-3.0898,-3.1074,-3.1211,-3.0957,-3.1211,-3.1445,-3.1191,-3.0996,-3.0898,-3.0898,-3.0898,-3.0898,-3.0898,-3.0898,-3.0898,-3.0898,-3.0898,-3.0898,-3.0898,-3.0898,-3.0898,-3.0898,-3.0644,-3.0449,-3.0449,-3.0293,-3.0137,-2.998,-3.0234,-3.0078,-2.9355,-2.9805,-3.0098,-3.0195,-3.0371,-3.0586,-3.0898,-3.0898,-3.0898,-3.0898,-3.0645,-2.9981,-2.8861,-2.6624,-2.5652,-2.5546,-2.2904,-2.2292,-2.3091,-2.1915,-2.1488,-2.1551,-2.1235,-2.1109,-2.1109,-2.1109,-2.1109,-2.1109,-3.8574,-3.8574,-3.8574,-3.8574,-3.8574,-3.8574,-3.8574,-3.8574,-3.8555,-3.8535,-3.8535,-3.8516,-3.8496,-3.8457,-3.8125,-3.7324,-3.6914,-3.6523,-3.6094,-3.6035,-3.6016,-3.6016,-3.5605,-3.5391,-3.5391,-3.4941,-3.4492,-3.4082,-3.3672,-3.3262,-3.2871,-3.2461,-3.2246,-3.2187,-3.1719,-3.1504,-3.1465,-3.1465,-3.125,-3.0898,-3.0898,-3.0898,-3.0898,-3.0898,-3.0898,-3.0898,-3.0898,-3.0918,-3.0937,-3.0937,-3.1211,-3.1562,-3.1562,-3.1562,-3.1484,-3.1055,-3.0918,-3.0898,-3.0898,-3.0918,-3.0918,-3.0898,-3.1191,-3.1484,-3.1504,-3.1191,-3.0898,-3.0898,-3.0898,-3.0898,-3.0898,-3.0898,-3.0898,-3.0898,-3.0898,-3.0898,-3.0898,-3.0898,-3.0898,-3.0898,-3.0898,-3.0898,-3.0898,-3.0488,-3.0078,-2.9744,-2.9668,-2.9492,-2.9082,-3.0215,-3.0684,-3.0215,-3.0644,-3.0898,-3.0898,-3.0898,-3.0898,-3.0898,-3.0235,-2.9804,-2.949,-2.6399,-2.5774,-2.6866,-2.2827,-2.2153,-2.376,-2.1853,-2.1299,-2.1551,-2.1235,-2.1109,-2.1109,-2.1109,-2.1109,-2.1109,-3.8574,-3.8574,-3.8574,-3.8574,-3.8574,-3.8574,-3.8574,-3.8574,-3.8457,-3.8125,-3.8086,-3.7949,-3.7637,-3.7305,-3.7031,-3.6836,-3.7031,-3.6973,-3.6543,-3.6211,-3.6016,-3.6016,-3.5605,-3.5391,-3.5391,-3.4941,-3.4492,-3.4082,-3.3965,-3.3867,-3.375,-3.332,-3.2949,-3.2617,-3.1855,-3.1348,-3.1035,-3.1035,-3.0976,-3.0898,-3.0898,-3.0898,-3.0898,-3.0898,-3.0898,-3.0898,-3.0898,-3.1094,-3.1367,-3.1367,-3.166,-3.2012,-3.2012,-3.2012,-3.1934,-3.1504,-3.1133,-3.0898,-3.0898,-3.1133,-3.1289,-3.0976,-3.0957,-3.1133,-3.1445,-3.1191,-3.0898,-3.0898,-3.0898,-3.0898,-3.0898,-3.0898,-3.0898,-3.0898,-3.0898,-3.0898,-3.0898,-3.0898,-3.0898,-3.0898,-3.0898,-3.0898,-3.0898,-3.0801,-3.0684,-3.0586,-3.0586,-3.0527,-3.043,-3.0723,-3.0684,-3.0215,-3.0644,-3.0898,-3.0898,-3.0898,-3.0898,-3.0898,-3.0235,-2.8879,-2.691,-2.5591,-2.4255,-2.2952,-2.1664,-2.1538,-2.2167,-2.1425,-2.1172,-2.1235,-2.1109,-2.1109,-2.1109,-2.1109,-2.1109,-2.1109,-3.8574,-3.8574,-3.8574,-3.8574,-3.8574,-3.8574,-3.8574,-3.8574,-3.8418,-3.7988,-3.793,-3.7773,-3.7344,-3.709,-3.6953,-3.6953,-3.6816,-3.6621,-3.6387,-3.6152,-3.6016,-3.6016,-3.5801,-3.5684,-3.5684,-3.5234,-3.4805,-3.4355,-3.416,-3.416,-3.4355,-3.3926,-3.3594,-3.334,-3.2285,-3.168,-3.1445,-3.1055,-3.0898,-3.0898,-3.0898,-3.0898,-3.0898,-3.0898,-3.0898,-3.0918,-3.1113,-3.1328,-3.1523,-3.1523,-3.1934,-3.2422,-3.2226,-3.2305,-3.2402,-3.2168,-3.1797,-3.1426,-3.123,-3.1348,-3.1465,-3.123,-3.1172,-3.1289,-3.1719,-3.1484,-3.1172,-3.1172,-3.1016,-3.0898,-3.0898,-3.0898,-3.0898,-3.0898,-3.0898,-3.0898,-3.0898,-3.0898,-3.0898,-3.0898,-3.0898,-3.0898,-3.0898,-3.0898,-3.0801,-3.0586,-3.0762,-3.0801,-3.0586,-3.0781,-3.0781,-3.0527,-3.0762,-3.0898,-3.0898,-3.0898,-3.082,-3.0704,-3.0157,-2.876,-2.6668,-2.5529,-2.4008,-2.2215,-2.1475,-2.1299,-2.1551,-2.1235,-2.1172,-2.1299,-2.1172,-2.1109,-2.1109,-2.1109,-2.1109,-2.1109,-3.8574,-3.8574,-3.8574,-3.8574,-3.8574,-3.8555,-3.8496,-3.8476,-3.8301,-3.7793,-3.7734,-3.7578,-3.7148,-3.7109,-3.7109,-3.7109,-3.6445,-3.6055,-3.6113,-3.6055,-3.6016,-3.6016,-3.6016,-3.6016,-3.6016,-3.5547,-3.5059,-3.4609,-3.4316,-3.4355,-3.4687,-3.4394,-3.4238,-3.4121,-3.2969,-3.2405,-3.2129,-3.1387,-3.1016,-3.0898,-3.0898,-3.0937,-3.0996,-3.0996,-3.1035,-3.1133,-3.1484,-3.166,-3.1719,-3.1719,-3.2246,-3.2832,-3.248,-3.2598,-3.2891,-3.2891,-3.2598,-3.2148,-3.166,-3.1465,-3.1445,-3.1582,-3.1562,-3.1641,-3.2148,-3.1934,-3.1601,-3.1523,-3.123,-3.0957,-3.0898,-3.0898,-3.0898,-3.0898,-3.0898,-3.0898,-3.0898,-3.0898,-3.0898,-3.0898,-3.0898,-3.0898,-3.0898,-3.0898,-3.0723,-3.0332,-3.0664,-3.0723,-3.0332,-3.0684,-3.082,-3.0587,-3.0762,-3.0898,-3.0898,-3.0704,-3.045,-3.0079,-2.9549,-2.8462,-2.6866,-2.5407,-2.4008,-2.2702,-2.1601,-2.1235,-2.1488,-2.1235,-2.1299,-2.1488,-2.1235,-2.1109,-2.1109,-2.1109,-2.1109,-2.1109,-3.8574,-3.8574,-3.8574,-3.8574,-3.8574,-3.8457,-3.8086,-3.8027,-3.7754,-3.6973,-3.6875,-3.6699,-3.6269,-3.6211,-3.6211,-3.6211,-3.6094,-3.6172,-3.6543,-3.623,-3.6016,-3.6016,-3.6016,-3.6016,-3.6016,-3.5215,-3.459,-3.416,-3.4453,-3.4629,-3.4707,-3.5039,-3.498,-3.457,-3.4023,-3.3184,-3.2168,-3.2031,-3.1543,-3.0898,-3.0898,-3.1094,-3.1426,-3.1426,-3.1641,-3.2033,-3.2051,-3.2305,-3.2598,-3.2598,-3.291,-3.332,-3.3242,-3.3281,-3.332,-3.332,-3.3027,-3.2519,-3.1738,-3.1269,-3.1172,-3.1894,-3.1797,-3.1719,-3.2519,-3.2363,-3.1953,-3.1601,-3.1465,-3.1309,-3.0957,-3.0898,-3.0898,-3.0898,-3.0898,-3.0898,-3.0898,-3.0898,-3.0898,-3.0898,-3.0898,-3.0898,-3.0898,-3.0898,-3.0859,-3.0781,-3.0859,-3.0859,-3.0781,-3.0859,-3.0392,-2.9235,-3.0333,-3.0898,-3.0898,-2.9785,-2.9039,-2.8664,-2.7289,-2.5774,-2.4178,-2.3636,-2.2654,-2.1425,-2.1172,-2.1109,-2.1172,-2.1109,-2.1109,-2.1172,-2.1109,-2.1109,-2.1109,-2.1109,-2.1109,-2.1109,-3.8574,-3.8574,-3.8574,-3.8574,-3.8379,-3.8164,-3.7949,-3.7734,-3.7363,-3.6758,-3.668,-3.6504,-3.6074,-3.6016,-3.6016,-3.6016,-3.6016,-3.6094,-3.6309,-3.6133,-3.6016,-3.6016,-3.5801,-3.5469,-3.498,-3.457,-3.416,-3.373,-3.3926,-3.4238,-3.4707,-3.4922,-3.5039,-3.5039,-3.4375,-3.3613,-3.2812,-3.2363,-3.1934,-3.1582,-3.1582,-3.1699,-3.1875,-3.1875,-3.1992,-3.2229,-3.2229,-3.2441,-3.2754,-3.2539,-3.2891,-3.3379,-3.3164,-3.3242,-3.3418,-3.3418,-3.2969,-3.2324,-3.168,-3.1367,-3.1328,-3.1719,-3.2012,-3.2305,-3.2695,-3.2656,-3.2383,-3.1953,-3.168,-3.1387,-3.0976,-3.0898,-3.0898,-3.0898,-3.0898,-3.0898,-3.0898,-3.0898,-3.0898,-3.0898,-3.0898,-3.0898,-3.0898,-3.0898,-3.0898,-3.0898,-3.0216,-2.9844,-2.9844,-2.9844,-2.9116,-2.7649,-2.8188,-2.8861,-2.953,-2.8051,-2.7151,-2.6849,-2.6062,-2.4917,-2.3325,-2.3201,-2.2404,-2.1109,-2.1109,-2.1109,-2.1109,-2.1109,-2.1109,-2.1109,-2.1109,-2.1109,-2.1109,-2.1109,-2.1109,-2.1109,-3.8574,-3.8574,-3.8555,-3.8437,-3.8144,-3.7851,-3.7656,-3.7363,-3.6992,-3.6582,-3.6523,-3.6387,-3.6055,-3.6016,-3.6055,-3.6152,-3.6172,-3.6211,-3.6309,-3.6309,-3.6191,-3.5879,-3.5469,-3.4863,-3.4082,-3.4082,-3.3867,-3.3418,-3.3516,-3.3965,-3.4707,-3.4805,-3.5059,-3.5371,-3.4687,-3.4023,-3.3379,-3.2734,-3.2344,-3.2229,-3.2229,-3.2287,-3.2324,-3.2324,-3.2383,-3.2461,-3.2461,-3.2676,-3.2891,-3.2559,-3.2891,-3.334,-3.293,-3.3008,-3.3262,-3.3164,-3.2598,-3.1953,-3.1601,-3.1523,-3.1543,-3.1641,-3.2246,-3.2812,-3.293,-3.2949,-3.2793,-3.2285,-3.1894,-3.1504,-3.0996,-3.0898,-3.0898,-3.0898,-3.0898,-3.0898,-3.0898,-3.0898,-3.0898,-3.0898,-3.0898,-3.0898,-3.0898,-3.0528,-3.0333,-3.0333,-2.9039,-2.8247,-2.8307,-2.8247,-2.7649,-2.6443,-2.6365,-2.691,-2.7931,-2.6349,-2.5391,-2.5024,-2.4717,-2.3931,-2.264,-2.264,-2.209,-2.1109,-2.1109,-2.1109,-2.1109,-2.1109,-2.1109,-2.1109,-2.1109,-2.1109,-2.1109,-2.1109,-2.1109,-2.1109,-3.8574,-3.8574,-3.8437,-3.8047,-3.7949,-3.7656,-3.6875,-3.6738,-3.6562,-3.6133,-3.6074,-3.6055,-3.6016,-3.6016,-3.6191,-3.6582,-3.6621,-3.6797,-3.7168,-3.7207,-3.668,-3.5488,-3.5,-3.4531,-3.4082,-3.4082,-3.3867,-3.3418,-3.3828,-3.4258,-3.4707,-3.5137,-3.5351,-3.5391,-3.5332,-3.4609,-3.3418,-3.3359,-3.2871,-3.2229,-3.2229,-3.2402,-3.2754,-3.2754,-3.2988,-3.332,-3.332,-3.334,-3.3379,-3.334,-3.3379,-3.334,-3.293,-3.2812,-3.2773,-3.2383,-3.1934,-3.1562,-3.1523,-3.1523,-3.1621,-3.2012,-3.2461,-3.2891,-3.3281,-3.3379,-3.3144,-3.2344,-3.2148,-3.1875,-3.1035,-3.0898,-3.0898,-3.0898,-3.0898,-3.0898,-3.0898,-3.0898,-3.0898,-3.0898,-3.0898,-3.0898,-3.0898,-2.953,-2.8605,-2.8605,-2.7134,-2.6349,-2.6668,-2.6409,-2.6167,-2.6045,-2.6062,-2.6244,-2.6668,-2.504,-2.407,-2.376,-2.2466,-2.1664,-2.1235,-2.1235,-2.1172,-2.1109,-2.1109,-2.1109,-2.1109,-2.1109,-2.1109,-2.1109,-2.1109,-2.1109,-2.1109,-2.1109,-2.1109,-2.1109,-3.8574,-3.8359,-3.8125,-3.7949,-3.75,-3.7031,-3.6719,-3.6445,-3.6211,-3.6035,-3.6016,-3.6016,-3.6016,-3.6269,-3.6484,-3.666,-3.6914,-3.7129,-3.7285,-3.7305,-3.6719,-3.5449,-3.4687,-3.4101,-3.3672,-3.3672,-3.3594,-3.3418,-3.3594,-3.4023,-3.4707,-3.4883,-3.5117,-3.5391,-3.5098,-3.4531,-3.3809,-3.3535,-3.3242,-3.2949,-3.2949,-3.3047,-3.3184,-3.3184,-3.3281,-3.3379,-3.3125,-3.3203,-3.3379,-3.3125,-3.3203,-3.3398,-3.3242,-3.3184,-3.3105,-3.2676,-3.207,-3.1523,-3.1523,-3.1719,-3.2031,-3.2461,-3.2871,-3.3223,-3.3379,-3.3418,-3.3184,-3.2344,-3.2229,-3.1914,-3.1055,-3.0898,-3.0898,-3.0898,-3.0898,-3.0898,-3.0898,-3.0898,-3.0898,-3.0898,-3.0898,-3.0587,-2.9726,-2.892,-2.8051,-2.7271,-2.5757,-2.4855,-2.4978,-2.4116,-2.3931,-2.4794,-2.3807,-2.3745,-2.4655,-2.3076,-2.2153,-2.2027,-2.1538,-2.1235,-2.1109,-2.1109,-2.1109,-2.1109,-2.1109,-2.1109,-2.1109,-2.1109,-2.1109,-2.1109,-2.1109,-2.1109,-2.1109,-2.1109,-2.1109,-2.1109,-3.8359,-3.8027,-3.7676,-3.7559,-3.7051,-3.6621,-3.6484,-3.6211,-3.6016,-3.6016,-3.6016,-3.6016,-3.6016,-3.6406,-3.6719,-3.6855,-3.7246,-3.7559,-3.7695,-3.7441,-3.6797,-3.5644,-3.4746,-3.4121,-3.3828,-3.3555,-3.3496,-3.3633,-3.3496,-3.3867,-3.4707,-3.4707,-3.4941,-3.5391,-3.5059,-3.4609,-3.4062,-3.375,-3.3535,-3.3418,-3.3418,-3.3418,-3.3418,-3.3418,-3.3418,-3.3379,-3.3105,-3.3184,-3.3398,-3.3242,-3.3301,-3.3418,-3.3418,-3.3242,-3.2969,-3.2676,-3.2187,-3.1719,-3.1719,-3.1934,-3.2307,-3.2519,-3.3008,-3.3418,-3.3418,-3.3418,-3.3223,-3.2519,-3.2363,-3.2109,-3.125,-3.1094,-3.1055,-3.0918,-3.0898,-3.0898,-3.0898,-3.0898,-3.0898,-3.0898,-3.0898,-3.0392,-2.9039,-2.8247,-2.7211,-2.5879,-2.424,-2.3278,-2.3153,-2.2418,-2.2292,-2.3153,-2.2041,-2.1853,-2.2841,-2.1664,-2.1109,-2.1109,-2.1109,-2.1109,-2.1109,-2.1109,-2.1109,-2.1109,-2.1109,-2.1109,-2.1109,-2.1109,-2.1109,-2.1109,-2.1109,-2.1109,-2.1109,-2.1109,-2.1109,-2.1109,-3.791,-3.7578,-3.7168,-3.6738,-3.668,-3.6523,-3.6094,-3.6016,-3.6016,-3.6016,-3.6016,-3.6016,-3.6035,-3.6406,-3.6855,-3.7266,-3.7676,-3.8105,-3.8555,-3.7773,-3.6934,-3.6074,-3.5176,-3.4707,-3.4707,-3.3867,-3.3633,-3.4082,-3.3633,-3.3867,-3.4707,-3.4707,-3.4961,-3.5391,-3.5391,-3.4902,-3.4082,-3.4082,-3.3828,-3.3437,-3.3437,-3.3418,-3.3418,-3.3418,-3.3418,-3.3437,-3.3418,-3.3418,-3.3496,-3.3926,-3.3789,-3.3418,-3.3418,-3.2851,-3.2168,-3.2229,-3.2229,-3.2229,-3.2229,-3.2229,-3.2229,-3.2168,-3.2793,-3.3418,-3.3418,-3.3418,-3.3301,-3.2871,-3.2793,-3.2539,-3.168,-3.1523,-3.1387,-3.0957,-3.0898,-3.0898,-3.0898,-3.0898,-3.0898,-3.0898,-3.0898,-3.0392,-2.9039,-2.7452,-2.5818,-2.4193,-2.2529,-2.1425,-2.1109,-2.1425,-2.1425,-2.1109,-2.1109,-2.1109,-2.1109,-2.1109,-2.1109,-2.1109,-2.1109,-2.1109,-2.1109,-2.1109,-2.1109,-2.1109,-2.1109,-2.1109,-2.1109,-2.1109,-2.1109,-2.1109,-2.1109,-2.1109,-2.1109,-2.1109,-2.1109,-2.1109,-3.748,-3.7148,-3.6816,-3.6699,-3.6426,-3.6172,-3.6035,-3.6016,-3.6016,-3.6016,-3.6016,-3.6133,-3.6445,-3.6855,-3.7285,-3.7695,-3.8125,-3.8437,-3.8574,-3.834,-3.7949,-3.7383,-3.625,-3.5332,-3.4707,-3.4453,-3.4238,-3.4082,-3.3945,-3.416,-3.4707,-3.5039,-3.543,-3.582,-3.5527,-3.5254,-3.498,-3.4648,-3.4277,-3.3887,-3.3887,-3.3691,-3.3418,-3.3418,-3.3613,-3.3828,-3.3535,-3.3613,-3.3848,-3.3672,-3.3535,-3.3379,-3.3066,-3.2812,-3.25,-3.1894,-3.1934,-3.2109,-3.1797,-3.1934,-3.2307,-3.2539,-3.2793,-3.3066,-3.3359,-3.3418,-3.3223,-3.25,-3.2598,-3.2441,-3.1289,-3.1328,-3.1387,-3.0957,-3.0898,-3.0898,-3.0898,-3.0898,-3.0898,-3.0898,-3.0898,-3.002,-2.7769,-2.691,-2.5452,-2.2904,-2.179,-2.1235,-2.1109,-2.1172,-2.1172,-2.1109,-2.1109,-2.1109,-2.1109,-2.1109,-2.1109,-2.1109,-2.1109,-2.1109,-2.1109,-2.1109,-2.1109,-2.1109,-2.1109,-2.1109,-2.1109,-2.1109,-2.1109,-2.1109,-2.1109,-2.1109,-2.1109,-2.1109,-2.1109,-2.1109,-3.7051,-3.6699,-3.6406,-3.6406,-3.6191,-3.6016,-3.6016,-3.6016,-3.6074,-3.625,-3.6289,-3.6445,-3.6875,-3.7285,-3.7656,-3.791,-3.832,-3.8574,-3.8574,-3.8574,-3.8301,-3.7695,-3.709,-3.6367,-3.5508,-3.4961,-3.4668,-3.459,-3.4414,-3.4551,-3.498,-3.5254,-3.5605,-3.6016,-3.5762,-3.5547,-3.5371,-3.5098,-3.4726,-3.4297,-3.4141,-3.3906,-3.3652,-3.3496,-3.3691,-3.4043,-3.3769,-3.3848,-3.4062,-3.3965,-3.3828,-3.3633,-3.3379,-3.3066,-3.2695,-3.2168,-3.209,-3.2031,-3.1426,-3.1582,-3.1973,-3.2226,-3.2539,-3.2871,-3.3105,-3.3301,-3.3281,-3.2773,-3.2871,-3.2715,-3.1601,-3.1601,-3.1582,-3.0996,-3.045,-3.0098,-3.0098,-2.9667,-2.9549,-3.0039,-2.9667,-2.876,-2.7168,-2.6382,-2.4855,-2.2292,-2.1488,-2.1109,-2.1109,-2.1109,-2.1109,-2.1109,-2.1109,-2.1109,-2.1109,-2.1109,-2.1109,-2.1109,-2.1109,-2.1109,-2.1109,-2.1109,-2.1109,-2.1109,-2.1109,-2.1109,-2.1109,-2.1109,-2.1109,-2.1109,-2.1109,-2.1109,-2.1109,-2.1109,-2.1109,-2.1109,-3.6621,-3.6289,-3.6035,-3.6074,-3.6074,-3.6094,-3.6133,-3.6133,-3.6269,-3.668,-3.6719,-3.6894,-3.7305,-3.7695,-3.7949,-3.7969,-3.834,-3.8574,-3.8574,-3.8574,-3.8223,-3.7441,-3.7734,-3.7539,-3.6738,-3.543,-3.4941,-3.5332,-3.4902,-3.4922,-3.5332,-3.541,-3.5664,-3.6016,-3.6016,-3.5801,-3.5449,-3.5449,-3.5176,-3.4726,-3.4297,-3.4101,-3.4023,-3.3594,-3.3691,-3.4082,-3.4082,-3.4082,-3.4121,-3.4473,-3.4336,-3.4004,-3.3965,-3.3476,-3.2871,-3.2734,-3.25,-3.209,-3.1191,-3.123,-3.1523,-3.1562,-3.2168,-3.2754,-3.2793,-3.3125,-3.3418,-3.3379,-3.3398,-3.3101,-3.2202,-3.2046,-3.1714,-3.078,-2.9568,-2.8742,-2.8742,-2.7727,-2.7426,-2.8564,-2.7727,-2.6961,-2.684,-2.5623,-2.4085,-2.223,-2.1488,-2.1109,-2.1109,-2.1109,-2.1109,-2.1109,-2.1109,-2.1109,-2.1109,-2.1109,-2.1109,-2.1109,-2.1109,-2.1109,-2.1109,-2.1109,-2.1109,-2.1109,-2.1109,-2.1109,-2.1109,-2.1109,-2.1109,-2.1109,-2.1109,-2.1109,-2.1109,-2.1109,-2.1109,-2.1109,-3.6152,-3.6094,-3.6133,-3.6465,-3.6523,-3.6641,-3.6973,-3.7012,-3.7051,-3.7148,-3.7168,-3.7324,-3.7734,-3.7871,-3.8066,-3.8398,-3.8516,-3.8574,-3.8574,-3.8574,-3.8496,-3.8301,-3.8066,-3.7676,-3.7168,-3.5898,-3.5117,-3.4844,-3.4746,-3.4746,-3.4863,-3.5566,-3.5937,-3.6016,-3.6016,-3.5976,-3.5879,-3.5879,-3.5644,-3.5195,-3.4746,-3.4375,-3.4023,-3.3594,-3.3691,-3.4082,-3.4082,-3.4082,-3.4043,-3.3789,-3.3633,-3.3516,-3.3184,-3.3398,-3.3535,-3.2187,-3.2441,-3.2891,-3.1699,-3.1445,-3.1601,-3.1953,-3.2168,-3.2383,-3.2715,-3.3125,-3.332,-3.3008,-3.3184,-3.2831,-3.0915,-3.0581,-3.0088,-2.8498,-2.7799,-2.7426,-2.7426,-2.7203,-2.7082,-2.7366,-2.7203,-2.6598,-2.5623,-2.3837,-2.2543,-2.2104,-2.1488,-2.1109,-2.1109,-2.1109,-2.1109,-2.1109,-2.1109,-2.1109,-2.1109,-2.1109,-2.1109,-2.1109,-2.1109,-2.1109,-2.1109,-2.1109,-2.1109,-2.1109,-2.1109,-2.1109,-2.1109,-2.1109,-2.1109,-2.1109,-2.1109,-2.1109,-2.1109,-2.1109,-2.1109,-2.1109,-3.6289,-3.6328,-3.6465,-3.6894,-3.6973,-3.7051,-3.7266,-3.7305,-3.7363,-3.7578,-3.7598,-3.7754,-3.8184,-3.8223,-3.832,-3.8555,-3.8574,-3.8574,-3.8574,-3.8574,-3.8476,-3.8281,-3.8047,-3.7734,-3.7305,-3.625,-3.5566,-3.5332,-3.5137,-3.5137,-3.5332,-3.5605,-3.582,-3.6016,-3.6016,-3.6016,-3.6016,-3.6016,-3.5781,-3.5371,-3.5137,-3.4648,-3.4043,-3.3828,-3.3867,-3.4082,-3.4082,-3.4082,-3.4043,-3.3809,-3.3594,-3.3379,-3.3164,-3.3125,-3.3027,-3.2324,-3.2305,-3.2422,-3.1953,-3.1816,-3.1875,-3.2109,-3.2324,-3.2519,-3.2734,-3.3125,-3.3359,-3.3144,-3.2738,-3.1985,-3.0659,-2.9843,-2.9073,-2.794,-2.6901,-2.6298,-2.6298,-2.5598,-2.5362,-2.605,-2.5546,-2.4887,-2.4209,-2.2918,-2.2104,-2.2104,-2.1488,-2.1109,-2.1109,-2.1109,-2.1109,-2.1109,-2.1109,-2.1109,-2.1109,-2.1109,-2.1109,-2.1109,-2.1109,-2.1109,-2.1109,-2.1109,-2.1109,-2.1109,-2.1109,-2.1109,-2.1109,-2.1109,-2.1109,-2.1109,-2.1109,-2.1109,-2.1109,-2.1109,-2.1109,-2.1109,-3.6719,-3.6777,-3.6914,-3.7324,-3.7402,-3.7422,-3.75,-3.7519,-3.7637,-3.7988,-3.8027,-3.8164,-3.8535,-3.8516,-3.8457,-3.8457,-3.8457,-3.8496,-3.8574,-3.8574,-3.8418,-3.8047,-3.8027,-3.7832,-3.7402,-3.6699,-3.623,-3.6016,-3.5527,-3.5449,-3.5781,-3.5527,-3.5586,-3.5918,-3.5996,-3.6016,-3.6016,-3.6016,-3.582,-3.5488,-3.5332,-3.4844,-3.416,-3.4023,-3.3965,-3.3965,-3.4043,-3.4082,-3.4062,-3.3984,-3.373,-3.3418,-3.334,-3.293,-3.2519,-3.2656,-3.2285,-3.1914,-3.2207,-3.2226,-3.2207,-3.2344,-3.2598,-3.2812,-3.2891,-3.3164,-3.3355,-3.3102,-3.211,-3.102,-3.0247,-2.9101,-2.805,-2.751,-2.6166,-2.5203,-2.5203,-2.3986,-2.3542,-2.4641,-2.3728,-2.2981,-2.2918,-2.2418,-2.2104,-2.2041,-2.1488,-2.1172,-2.1109,-2.1109,-2.1109,-2.1109,-2.1109,-2.1109,-2.1109,-2.1109,-2.1109,-2.1109,-2.1109,-2.1109,-2.1109,-2.1109,-2.1109,-2.1109,-2.1109,-2.1109,-2.1109,-2.1109,-2.1109,-2.1109,-2.1109,-2.1109,-2.1109,-2.1109,-2.1109,-2.1109,-3.7207,-3.7207,-3.7344,-3.7773,-3.7832,-3.7969,-3.834,-3.8398,-3.8418,-3.8476,-3.8496,-3.8516,-3.8574,-3.8242,-3.8008,-3.8008,-3.8008,-3.8164,-3.8555,-3.8574,-3.8555,-3.8496,-3.8496,-3.8281,-3.7851,-3.7734,-3.7129,-3.6016,-3.5195,-3.4824,-3.4883,-3.5234,-3.543,-3.5488,-3.5859,-3.6016,-3.6016,-3.6016,-3.5996,-3.5859,-3.5098,-3.4726,-3.4531,-3.3789,-3.3516,-3.3555,-3.3945,-3.4082,-3.4023,-3.3633,-3.3476,-3.3359,-3.2988,-3.3301,-3.3613,-3.2559,-3.2676,-3.3105,-3.2793,-3.2441,-3.2344,-3.3066,-3.3027,-3.2891,-3.3262,-3.3379,-3.3019,-3.1835,-3.1451,-3.0513,-2.8065,-2.7229,-2.6547,-2.5287,-2.4372,-2.3843,-2.3843,-2.3436,-2.3168,-2.3355,-2.2981,-2.2543,-2.223,-2.2167,-2.1978,-2.1664,-2.1614,-2.1425,-2.1109,-2.1109,-2.1109,-2.1109,-2.1109,-2.1109,-2.1109,-2.1109,-2.1109,-2.1109,-2.1109,-2.1109,-2.1109,-2.1109,-2.1109,-2.1109,-2.1109,-2.1109,-2.1109,-2.1109,-2.1109,-2.1109,-2.1109,-2.1109,-2.1109,-2.1109,-2.1109,-2.1109,-3.7559,-3.7656,-3.7773,-3.8223,-3.8281,-3.8359,-3.8555,-3.8574,-3.8574,-3.8574,-3.8359,-3.8223,-3.8223,-3.8027,-3.793,-3.793,-3.8144,-3.8359,-3.8555,-3.8574,-3.8574,-3.8574,-3.8574,-3.8476,-3.8301,-3.8047,-3.7539,-3.6738,-3.5625,-3.5078,-3.5078,-3.4785,-3.4785,-3.5019,-3.5195,-3.5293,-3.5293,-3.5566,-3.5391,-3.4941,-3.5039,-3.4648,-3.3965,-3.3848,-3.3789,-3.3848,-3.4277,-3.4121,-3.375,-3.4043,-3.3809,-3.3379,-3.3203,-3.3242,-3.3242,-3.2676,-3.2949,-3.3437,-3.3496,-3.3535,-3.3613,-3.375,-3.3652,-3.3496,-3.3437,-3.2765,-3.2046,-3.1451,-3.0077,-2.8575,-2.7352,-2.6377,-2.5635,-2.4966,-2.4452,-2.4071,-2.3896,-2.3588,-2.3247,-2.2885,-2.2856,-2.2668,-2.2167,-2.2104,-2.1992,-2.1614,-2.1425,-2.1235,-2.1109,-2.1109,-2.1109,-2.1109,-2.1109,-2.1109,-2.1109,-2.1109,-2.1109,-2.1109,-2.1109,-2.1109,-2.1109,-2.1109,-2.1109,-2.1109,-2.1109,-2.1109,-2.1109,-2.1109,-2.1109,-2.1109,-2.1109,-2.1109,-2.1109,-2.1109,-2.1109,-2.1109]},{"header":{"parameterUnit":"m.s-1","parameterCategory":1,"la1":30.6,"la2":28.766,"lo1":-90.7593,"lo2":-88.6598,"dy":0.0162,"dx":0.0183,"nx":116,"ny":114,"refTime":"2023-05-08T12:00:00:Z","depth":0,"parameterNumber":3,"parameterNumberName":"V-component_of_WINDS"},"data":[0.0,0.0,0.0,0.0,0.0,0.0,0.0,0.0,0.0,0.0,0.0,0.0,0.0,0.0,0.0,0.0,0.0,0.0,0.0,0.0,0.0,0.0,0.0,0.0,0.0,0.0,0.0,0.0,0.0,0.0,0.0,0.0,0.0,0.0,0.0,0.0,0.0,0.0,0.0,0.0,0.0,0.0,0.0,0.0,0.0,0.0,0.0,0.0,0.0,0.0,0.0,0.0,0.0,0.0,0.0,0.0,0.0,0.0,0.0,0.0,0.0,0.0,0.0,0.0,0.0,0.0,0.0,0.0,0.0,0.0,0.0,0.0,0.0,0.0,0.0,0.0,0.0,0.0,0.0,0.0,0.0,0.0,0.0,0.0,0.0,0.0,0.0,0.0,0.0,0.0,0.0,0.0,0.0,0.0,0.0,0.0,0.0,0.0,0.0,0.0,0.0,0.0,0.0,0.0,0.0,0.0,0.0,0.0,0.0,0.0,0.0,0.0,0.0,0.0,0.0,0.0,0.0,0.0,0.0,0.0,0.0,0.0,0.0,0.0,0.0,0.0,0.0,0.0,0.0,0.0,0.0,0.0,0.0,0.0,0.0,0.0,0.0,0.0,0.0,0.0,0.0,0.0,0.0,0.0,0.0,0.0,0.0,0.0,0.0,0.0,0.0,0.0,0.0,0.0,0.0,0.0,0.0,0.0,0.0,0.0,0.0,0.0,0.0,0.0,0.0,0.0,0.0,0.0,0.0,0.0,0.0,0.0,0.0,0.0,0.0,0.0,0.0,0.0,0.0,0.0,0.0,0.0,0.0,0.0,0.0,0.0,0.0,0.0,0.0,0.0,0.0,0.0,0.0,0.0,0.0,0.0,0.0,0.0,0.0,0.0,0.0,0.0,0.0,0.0,0.0,0.0,0.0,0.0,0.0,0.0,0.0,0.0,0.0,0.0,0.0,0.0,0.0,0.0,0.0,0.0,0.0,0.0,0.0,0.0,0.0,0.0,0.0,0.0,0.0,0.0,0.0,0.0,0.0,0.0,0.0,0.0,0.0,0.0,0.0,0.0,0.0,0.0,0.0,0.0,0.0,0.0,0.0,0.0,0.0,0.0,0.0,0.0,0.0,0.0,0.0,0.0,0.0,0.0,0.0,0.0,0.0,0.0,0.0,0.0,0.0,0.0,0.0,0.0,0.0,0.0,0.0,0.0,0.0,0.0,0.0,0.0,0.0,0.0,0.0,0.0,0.0,0.0,0.0,0.0,0.0,0.0,0.0,0.0,0.0,0.0,0.0,0.0,0.0,0.0,0.0,0.0,0.0,0.0,0.0,0.0,0.0,0.0,0.0,0.0,0.0,0.0,0.0,0.0,0.0,0.0,0.0,0.0,0.0,0.0,0.0,0.0,0.0,0.0,0.0,0.0,0.0,0.0,0.0,0.0,0.0,0.0,0.0,0.0,0.0,0.0,0.0,0.0,0.0,0.0,0.0,0.0,0.0,0.0,0.0,0.0,0.0,0.0,0.0,0.0,0.0,0.0,0.0,0.0,0.0,0.0,0.0,0.0,0.0,0.0,0.0,0.0,0.0,0.0,0.0,0.0,0.0,0.0,0.0,0.0,0.0,0.0,0.0,0.0,0.0,0.0,0.0,0.0,0.0,0.0,0.0,0.0,0.0,0.0,0.0,0.0,0.0,0.0,0.0,0.0,0.0,0.0,0.0,0.0,0.0,0.0,0.0,0.0,0.0,0.0,0.0,0.0,0.0,0.0,0.0,0.0,0.0,0.0,0.0,0.0,0.0,0.0,0.0,0.0,0.0,0.0,0.0,0.0,0.0,0.0,0.0,0.0,0.0,0.0,0.0,0.0,0.0,0.0,0.0,0.0,0.0,0.0,0.0,0.0,0.0,0.0,0.0,0.0,0.0,0.0,0.0,0.0,0.0,0.0,0.0,0.0,0.0,0.0,0.0,0.0,0.0,0.0,0.0,0.0,0.0,0.0,0.0,0.0,0.0,0.0,0.0,0.0,0.0,0.0,0.0,0.0,0.0,0.0,0.0,0.0,0.0,0.0,0.0,0.0,0.0,0.0,0.0,0.0,0.0,0.0,0.0,0.0,0.0,0.0,0.0,0.0,0.0,0.0,0.0,0.0,0.0,0.0,0.0,0.0,0.0,0.0,0.0,0.0,0.0,0.0,0.0,0.0,0.0,0.0,0.0,0.0,0.0,0.0,0.0,0.0,0.0,0.0,0.0,0.0,0.0,0.0,0.0,0.0,0.0,0.0,0.0,0.0,0.0,0.0,0.0,0.0,0.0,0.0,0.0,0.0,0.0,0.0,0.0,0.0,0.0,0.0,0.0,0.0,0.0,0.0,0.0,0.0,0.0,0.0,0.0,0.0,0.0,0.0,0.0,0.0,0.0,0.0,0.0,0.0,0.0,0.0,0.0,0.0,0.0,0.0,0.0,0.0,0.0,0.0,0.0,0.0,0.0,0.0,0.0,0.0,0.0,0.0,0.0,0.0,0.0,0.0,0.0,0.0,0.0,0.0,0.0,0.0,0.0,0.0,0.0,0.0,0.0,0.0,0.0,0.0,0.0,0.0,0.0,0.0,0.0,0.0,0.0,0.0,0.0,0.0,0.0,0.0,0.0,0.0,0.0,0.0,0.0,0.0,0.0,0.0,0.0,0.0,0.0,0.0,0.0,0.0,0.0,0.0,0.0,0.0,0.0,0.0,0.0,0.0,0.0,0.0,0.0,0.0,0.0,0.0,0.0,0.0,0.0,0.0,0.0,0.0,0.0,0.0,0.0,0.0,0.0,0.0,0.0,0.0,0.0,0.0,0.0,0.0,0.0,0.0,0.0,0.0,0.0,0.0,0.0,0.0,0.0,0.0,0.0,0.0,0.0,0.0,0.0,0.0,0.0,0.0,0.0,0.0,0.0,0.0,0.0,0.0,0.0,0.0,0.0,0.0,0.0,0.0,0.0,0.0,0.0,0.0,0.0,0.0,0.0,0.0,0.0,0.0,0.0,0.0,0.0,0.0,0.0,0.0,0.0,0.0,0.0,0.0,0.0,0.0,0.0,0.0,0.0,0.0,0.0,0.0,0.0,0.0,0.0,0.0,0.0,0.0,0.0,0.0,0.0,0.0,0.0,0.0,0.0,0.0,0.0,0.0,0.0,0.0,0.0,0.0,0.0,0.0,0.0,0.0,0.0,0.0,0.0,0.0,0.0,0.0,0.0,0.0,0.0,0.0,0.0,0.0,0.0,0.0,0.0,0.0,0.0,0.0,0.0,0.0,0.0,0.0,0.0,0.0,0.0,0.0,0.0,0.0,0.0,0.0,0.0,0.0,0.0,0.0,0.0,0.0,0.0,0.0,0.0,0.0,0.0,0.0,0.0,0.0,0.0,0.0,0.0,0.0,0.0,0.0,0.0,0.0,0.0,0.0,0.0,0.0,0.0,0.0,0.0,0.0,0.0,0.0,0.0,0.0,0.0,0.0,0.0,0.0,0.0,0.0,0.0,0.0,0.0,0.0,0.0,0.0,0.0,0.0,0.0,0.0,0.0,0.0,0.0,0.0,0.0,0.0,0.0,0.0,0.0,0.0,0.0,0.0,0.0,0.0,0.0,0.0,0.0,0.0,0.0,0.0,0.0,0.0,0.0,0.0,0.0,0.0,0.0,0.0,0.0,0.0,0.0,0.0,0.0,0.0,0.0,0.0,0.0,0.0,0.0,0.0,0.0,0.0,0.0,0.0,0.0,0.0,0.0,0.0,0.0,0.0,0.0,0.0,0.0,0.0,0.0,0.0,0.0,0.0,0.0,0.0,0.0,0.0,0.0,0.0,0.0,0.0,0.0,0.0,0.0,0.0,0.0,0.0,0.0,0.0,0.0,0.0,0.0,0.0,0.0,0.0,0.0,0.0,0.0,0.0,0.0,0.0,0.0,0.0,0.0,0.0,0.0,0.0,0.0,0.0,0.0,0.0,0.0,0.0,0.0,0.0,0.0,0.0,0.0,0.0,0.0,0.0,0.0,0.0,0.0,0.0,0.0,0.0,0.0,0.0,0.0,0.0,0.0,0.0,0.0,0.0,0.0,0.0,0.0,0.0,0.0,0.0,0.0,0.0,0.0,0.0,0.0,0.0,0.0,0.0,0.0,0.0,0.0,0.0,0.0,0.0,0.0,0.0,0.0,0.0,0.0,0.0,0.0,0.0,0.0,0.0,0.0,0.0,0.0,0.0,0.0,0.0,0.0,0.0,0.0,0.0,0.0,0.0,0.0,0.0,0.0,0.0,0.0,0.0,0.0,0.0,0.0,0.0,0.0,0.0,0.0,0.0,0.0,0.0,0.0,0.0,0.0,0.0,0.0,0.0,0.0,0.0,0.0,0.0,0.0,0.0,0.0,0.0,0.0,0.0,0.0,0.0,0.0,0.0,0.0,0.0,0.0,0.0,0.0,0.0,0.0,0.0,0.0,0.0,0.0,0.0,0.0,0.0,0.0,0.0,0.0,0.0,0.0,0.0,0.0,0.0,0.0,0.0,0.0,0.0,0.0,0.0,0.0,0.0,0.0,0.0,0.0,0.0,0.0,0.0,0.0,0.0,0.0,0.0,0.0,0.0,0.0,0.0,0.0,0.0,0.0,0.0,0.0,0.0,0.0,0.0,0.0,0.0,0.0,0.0,0.0,0.0,0.0,0.0,0.0,0.0,0.0,0.0,0.0,0.0,0.0,0.0,0.0,0.0,0.0,0.0,0.0,0.0,0.0,0.0,0.0,0.0,0.0,0.0,0.0,0.0,0.0,0.0,0.0,0.0,0.0,0.0,0.0,0.0,0.0,0.0,0.0,0.0,0.0,0.0,0.0,0.0,0.0,0.0,0.0,0.0,0.0,0.0,0.0,0.0,0.0,0.0,0.0,0.0,0.0,0.0,0.0,0.0,0.0,0.0,0.0,0.0,0.0,0.0,0.0,0.0,0.0,0.0,0.0,0.0,0.0,0.0,0.0,0.0,0.0,0.0,0.0,0.0,0.0,0.0,0.0,0.0,0.0,0.0,0.0,0.0,0.0,0.0,0.0,0.0,0.0,0.0,0.0,0.0,0.0,0.0,0.0,0.0,0.0,0.0,0.0,0.0,0.0,0.0,0.0,0.0,0.0,0.0,0.0,0.0,0.0,0.0,0.0,0.0,0.0,0.0,0.0,0.0,0.0,0.0,0.0,0.0,0.0,0.0,0.0,0.0,0.0,0.0,0.0,0.0,0.0,0.0,0.0,0.0,0.0,0.0,0.0,0.0,0.0,0.0,0.0,0.0,0.0,0.0,0.0,0.0,0.0,0.0,0.0,0.0,0.0,0.0,0.0,0.0,0.0,0.0,0.0,0.0,0.0,0.0,0.0,0.0,0.0,0.0,0.0,0.0,0.0,0.0,0.0,0.0,0.0,0.0,0.0,0.0,0.0,0.0,0.0,0.0,0.0,0.0,0.0,0.0,0.0,0.0,0.0,0.0,0.0,0.0,0.0,0.0,0.0,0.0,0.0,0.0,0.0,0.0,0.0,0.0,0.0,0.0,0.0,0.0,0.0,0.0,0.0,0.0,0.0,0.0,0.0,0.0,0.0,0.0,0.0,0.0,0.0,0.0,0.0,0.0,0.0,0.0,0.0,0.0,0.0,0.0,0.0,0.0,0.0,0.0,0.0,0.0,0.0,0.0,0.0,0.0,0.0,0.0,0.0,0.0,0.0,0.0,0.0,0.0,0.0,0.0,0.0,0.0,0.0,0.0,0.0,0.0,0.0,0.0,0.0,0.0,0.0,0.0,0.0,0.0,0.0,0.0,0.0,0.0,0.0,0.0,0.0,0.0,0.0,0.0,0.0,0.0,0.0,0.0,0.0,0.0,0.0,0.0,0.0,0.0,0.0,0.0,0.0,0.0,0.0,0.0,0.0,0.0,0.0,0.0,0.0,0.0,0.0,0.0,0.0,0.0,0.0,0.0,0.0,0.0,0.0,0.0,0.0,0.0,0.0,0.0,0.0,0.0,0.0,0.0,0.0,0.0,0.0,0.0,0.0,0.0,0.0,0.0,0.0,0.0,0.0,0.0,0.0,0.0,4.8902,4.8692,0.0,0.0,0.0,0.0,0.0,0.0,0.0,0.0,0.0,0.0,0.0,0.0,0.0,0.0,0.0,0.0,0.0,0.0,0.0,0.0,0.0,0.0,0.0,0.0,0.0,0.0,0.0,0.0,0.0,0.0,0.0,0.0,0.0,0.0,0.0,0.0,0.0,0.0,4.7309,4.7309,4.7266,4.624,4.5235,4.4312,0.0,0.0,0.0,0.0,0.0,0.0,0.0,0.0,0.0,0.0,0.0,0.0,0.0,0.0,0.0,0.0,0.0,0.0,0.0,0.0,0.0,0.0,0.0,0.0,0.0,0.0,0.0,0.0,0.0,0.0,0.0,0.0,0.0,0.0,0.0,0.0,0.0,0.0,0.0,0.0,0.0,0.0,0.0,0.0,0.0,0.0,0.0,0.0,0.0,0.0,0.0,0.0,0.0,0.0,0.0,0.0,0.0,0.0,0.0,0.0,0.0,0.0,0.0,0.0,0.0,0.0,0.0,0.0,0.0,0.0,5.0028,4.9688,0.0,0.0,0.0,0.0,0.0,0.0,0.0,0.0,0.0,0.0,0.0,0.0,0.0,0.0,0.0,0.0,0.0,0.0,0.0,0.0,0.0,0.0,0.0,4.7309,4.7309,4.7352,4.7352,4.7352,0.0,0.0,0.0,0.0,0.0,0.0,0.0,4.7439,4.7495,4.7624,4.7885,4.7946,4.7804,4.7968,4.7022,4.5274,4.4954,0.0,0.0,0.0,0.0,0.0,0.0,0.0,0.0,0.0,0.0,0.0,0.0,0.0,0.0,0.0,0.0,0.0,0.0,0.0,0.0,0.0,0.0,0.0,0.0,0.0,0.0,0.0,0.0,0.0,0.0,0.0,0.0,0.0,0.0,0.0,0.0,0.0,0.0,0.0,0.0,0.0,0.0,0.0,0.0,0.0,0.0,0.0,0.0,0.0,0.0,0.0,0.0,0.0,0.0,0.0,0.0,0.0,0.0,0.0,0.0,0.0,0.0,0.0,5.1006,5.0969,5.0999,5.1576,5.194,5.1999,5.1065,5.0769,5.1018,5.0887,0.0,0.0,0.0,0.0,0.0,0.0,0.0,0.0,0.0,0.0,0.0,0.0,0.0,0.0,0.0,0.0,0.0,0.0,0.0,0.0,0.0,4.7396,4.7396,4.7538,4.7538,4.7538,4.7538,0.0,0.0,0.0,0.0,0.0,4.7922,4.7922,4.8229,4.8944,5.0294,5.0569,4.9812,5.0485,5.0211,4.9163,4.7612,4.6741,4.6437,0.0,0.0,0.0,0.0,0.0,0.0,0.0,0.0,0.0,0.0,0.0,0.0,0.0,0.0,0.0,0.0,0.0,0.0,0.0,0.0,0.0,0.0,0.0,0.0,0.0,0.0,0.0,0.0,0.0,0.0,0.0,0.0,0.0,0.0,0.0,0.0,0.0,0.0,0.0,0.0,0.0,4.8312,4.888,0.0,0.0,0.0,0.0,0.0,0.0,0.0,0.0,0.0,0.0,0.0,0.0,0.0,5.1135,5.1152,5.1703,5.1972,5.2019,5.2587,5.2838,5.2808,5.2378,5.2468,5.2946,5.1673,0.0,5.2019,5.1972,0.0,0.0,0.0,0.0,0.0,0.0,0.0,0.0,0.0,0.0,0.0,0.0,0.0,0.0,0.0,0.0,0.0,0.0,0.0,0.0,0.0,4.7752,4.7709,4.7794,4.8229,4.8313,4.7837,4.8749,0.0,0.0,0.0,4.9327,4.9327,4.9327,4.9716,5.0493,5.1175,5.1526,5.1539,5.1896,5.1818,5.1445,5.0611,4.9365,4.7792,4.7896,0.0,0.0,0.0,0.0,0.0,0.0,0.0,0.0,0.0,0.0,0.0,0.0,0.0,0.0,0.0,0.0,0.0,0.0,0.0,0.0,0.0,0.0,0.0,0.0,0.0,0.0,0.0,0.0,0.0,0.0,0.0,0.0,0.0,0.0,0.0,0.0,0.0,0.0,0.0,4.8177,4.885,4.876,4.9105,4.9105,0.0,0.0,0.0,0.0,0.0,0.0,0.0,0.0,0.0,5.1199,5.1947,5.2306,5.2306,5.3196,5.36,5.36,5.4483,5.4916,5.4916,5.4931,5.5117,5.5395,5.5178,5.4808,5.4175,5.2389,5.1797,5.2002,0.0,0.0,0.0,0.0,5.302,5.3371,0.0,0.0,0.0,0.0,0.0,0.0,0.0,0.0,0.0,0.0,0.0,0.0,4.8049,4.8187,4.8313,4.8396,4.9116,4.9318,4.8738,4.9884,5.0313,4.9718,5.0274,5.0583,5.0583,5.0972,5.1442,5.1997,5.2584,5.3039,5.3323,5.3556,5.3495,5.3295,5.3295,5.1893,4.9583,4.9735,4.9199,4.8203,0.0,0.0,0.0,0.0,0.0,0.0,0.0,0.0,0.0,0.0,0.0,0.0,0.0,0.0,0.0,0.0,0.0,0.0,0.0,0.0,0.0,0.0,0.0,0.0,0.0,0.0,0.0,0.0,0.0,0.0,0.0,0.0,0.0,0.0,0.0,0.0,0.0,4.8985,4.9703,4.8895,5.0471,5.0985,0.0,0.0,0.0,0.0,0.0,0.0,5.1044,5.2322,5.3006,5.3006,5.3979,5.4496,5.4496,5.5409,5.5783,5.5596,5.6518,5.6879,5.6721,5.6961,5.7182,5.7372,5.7561,5.6979,5.5847,5.3438,5.2642,5.2931,5.2931,5.3371,5.4019,5.4062,5.4105,5.4146,0.0,0.0,0.0,0.0,0.0,0.0,0.0,0.0,0.0,0.0,0.0,4.8091,4.826,4.878,4.9197,4.9407,5.0158,5.0621,5.0583,5.0849,5.107,5.0995,5.1032,5.107,5.107,5.2499,5.3261,5.3294,5.549,5.6157,5.5341,5.6035,5.5975,5.5142,5.5142,5.4058,5.2024,5.0788,5.0487,5.0682,4.9145,0.0,0.0,0.0,0.0,0.0,0.0,0.0,0.0,0.0,0.0,0.0,0.0,0.0,0.0,0.0,0.0,0.0,0.0,0.0,0.0,0.0,0.0,0.0,0.0,0.0,0.0,0.0,0.0,0.0,0.0,0.0,0.0,0.0,0.0,0.0,0.0,0.0,0.0,5.0255,5.3266,0.0,0.0,0.0,0.0,5.2912,5.4758,5.5898,5.5929,5.7227,5.7909,5.7909,5.8004,5.8036,5.8036,5.87,5.8732,5.8022,5.8732,5.87,5.7958,5.7403,5.7467,5.7958,5.6816,5.6246,5.6062,5.5847,5.5014,5.3934,5.3934,5.3934,5.4019,5.42,5.437,5.4475,0.0,0.0,0.0,0.0,0.0,0.0,0.0,0.0,4.6404,4.6404,4.8026,4.9228,4.9309,5.0406,5.1172,5.125,5.1977,5.2202,5.1712,5.1792,5.165,5.1122,5.1615,5.2326,5.3328,5.3876,5.4621,5.5595,5.6385,5.6892,5.704,5.7308,5.7293,5.6958,5.6958,5.6261,5.498,5.3775,5.2198,5.0584,5.087,5.01,0.0,0.0,0.0,0.0,0.0,0.0,0.0,0.0,0.0,0.0,0.0,0.0,0.0,0.0,0.0,0.0,0.0,0.0,0.0,0.0,0.0,0.0,0.0,0.0,0.0,0.0,0.0,0.0,0.0,0.0,0.0,0.0,0.0,0.0,0.0,0.0,0.0,5.4665,5.6912,0.0,5.6383,5.6785,5.6846,5.6101,5.7373,5.8076,5.7886,5.9252,5.9887,5.9407,5.9809,6.0032,6.0032,6.0916,6.1219,6.0959,6.1862,6.2169,6.1873,6.1117,6.0919,6.1074,6.0163,5.9168,5.8273,5.824,5.6897,5.4861,5.4994,5.5393,5.5948,5.6185,5.5958,5.5591,0.0,0.0,0.0,0.0,0.0,0.0,0.0,0.0,4.6445,4.6936,4.8483,4.974,5.0267,5.1679,5.2594,5.2594,5.3331,5.3449,5.2675,5.2434,5.1933,5.1194,5.2135,5.3315,5.4566,5.5074,5.5818,5.6799,5.7036,5.7408,5.7881,5.7881,5.7881,5.7881,5.7881,5.7554,5.6958,5.6237,5.4398,5.2036,5.2576,5.1809,5.0193,0.0,0.0,0.0,0.0,0.0,0.0,0.0,0.0,0.0,0.0,0.0,0.0,0.0,0.0,0.0,0.0,0.0,0.0,0.0,0.0,0.0,0.0,0.0,0.0,0.0,0.0,0.0,0.0,0.0,0.0,0.0,0.0,0.0,0.0,5.4205,5.6588,5.786,6.044,6.1582,6.0193,6.0822,6.0999,6.0239,6.1305,6.186,6.1638,6.2834,6.3219,6.2423,6.3108,6.3271,6.2704,6.3627,6.3826,6.333,6.4033,6.4187,6.3994,6.3149,6.2781,6.2747,6.2011,6.1006,5.9868,5.9868,5.8495,5.6355,5.6211,5.6536,5.7139,5.7327,5.6798,5.5856,0.0,0.0,0.0,0.0,0.0,0.0,0.0,4.5157,4.6114,4.758,4.839,4.9432,5.0935,5.2536,5.3473,5.344,5.4149,5.4296,5.3551,5.2739,5.1961,5.1219,5.2672,5.3822,5.46,5.6055,5.6799,5.6833,5.7543,5.7881,5.7881,5.7881,5.7881,5.7881,5.7881,5.7881,5.7881,5.7915,5.6954,5.532,5.4374,5.3506,5.2775,0.0,0.0,0.0,0.0,0.0,0.0,0.0,0.0,0.0,0.0,0.0,0.0,0.0,0.0,0.0,0.0,0.0,0.0,0.0,0.0,0.0,0.0,0.0,0.0,0.0,0.0,0.0,0.0,0.0,0.0,0.0,0.0,0.0,5.3684,5.8358,6.1244,5.9677,6.3812,6.5745,6.3056,6.497,6.6005,6.5268,6.6584,6.7389,6.7355,6.8015,6.8082,6.7267,6.8015,6.768,6.6172,6.6832,6.6464,6.5058,6.5058,6.4689,6.4061,6.3257,6.2889,6.2822,6.2078,6.1307,6.0644,6.061,5.9739,5.8327,5.7662,5.736,5.7327,5.7551,5.6679,5.5232,0.0,0.0,0.0,0.0,0.0,0.0,0.0,4.5157,4.5951,4.6795,4.8542,5.0042,5.1005,5.3473,5.4826,5.4323,5.4969,5.4871,5.3585,5.2266,5.1388,5.1217,5.2131,5.3518,5.5378,5.6325,5.707,5.7577,5.778,5.7881,5.7881,5.7881,5.7881,5.7881,5.7881,5.7881,5.7915,5.8457,5.8433,5.7878,5.6426,5.5382,5.4507,0.0,0.0,0.0,0.0,0.0,0.0,0.0,0.0,0.0,0.0,0.0,0.0,0.0,0.0,0.0,0.0,0.0,0.0,0.0,0.0,0.0,0.0,0.0,0.0,0.0,0.0,0.0,0.0,0.0,0.0,0.0,5.7134,5.9399,5.9357,6.0864,6.2959,6.5579,6.7339,6.8163,6.787,6.8406,6.8472,6.7776,6.8749,6.9096,6.8348,6.9187,6.9377,6.8634,6.8803,6.8432,6.742,6.7622,6.7251,6.6297,6.6297,6.6196,6.6002,6.526,6.4619,6.4079,6.3296,6.2251,6.1076,6.0502,5.9654,5.8811,5.8459,5.7984,5.7551,5.7735,5.6896,5.5408,0.0,0.0,0.0,0.0,0.0,0.0,0.0,4.4872,4.565,4.6928,4.8288,4.972,5.1418,5.3479,5.469,5.4599,5.4702,5.4431,5.3551,5.2063,5.1488,5.2164,5.2875,5.416,5.6122,5.69,5.7476,5.7881,5.7881,5.7881,5.7881,5.822,5.8186,5.7915,5.822,5.8355,5.8389,5.8829,5.937,5.9873,5.861,5.7547,5.6726,5.5774,5.4557,5.3132,5.2118,5.1092,5.0214,4.9609,0.0,0.0,0.0,0.0,0.0,0.0,0.0,0.0,0.0,0.0,0.0,0.0,0.0,0.0,0.0,0.0,0.0,0.0,0.0,0.0,0.0,0.0,0.0,0.0,6.0895,6.3382,6.499,6.5268,6.6258,6.8864,6.9595,7.0036,7.04,7.0412,7.0243,6.9849,7.0309,7.0421,6.9815,7.0309,7.0331,6.9586,6.9857,6.9519,6.8402,6.8402,6.803,6.7252,6.6948,6.6812,6.6779,6.573,6.5019,6.4546,6.3497,6.255,6.1704,6.1264,6.0419,5.9404,0.0,0.0,0.0,0.0,5.69,5.5953,0.0,0.0,0.0,0.0,0.0,0.0,0.0,4.4458,4.5339,4.7372,4.7751,4.8898,5.1855,5.2834,5.3592,5.4396,5.3788,5.3348,5.3247,5.1894,5.1826,5.345,5.4194,5.5277,5.6765,5.7509,5.7881,5.7881,5.7881,5.7881,5.7915,5.8592,5.8592,5.8051,5.8626,5.8998,5.9133,5.9133,5.9979,6.1231,6.0622,5.9861,5.9059,5.884,5.7053,5.4677,5.5089,5.3613,5.1494,5.1678,0.0,0.0,0.0,0.0,0.0,0.0,0.0,0.0,0.0,0.0,0.0,0.0,0.0,0.0,0.0,0.0,0.0,0.0,0.0,0.0,0.0,0.0,0.0,0.0,6.4279,6.6305,6.9722,7.0052,7.0074,7.0331,7.0906,7.1312,7.1312,7.1312,7.1312,7.1312,7.1312,7.1312,7.1312,7.1312,0.0,0.0,0.0,7.0635,6.9248,6.9147,6.8707,6.7895,6.7151,6.6779,6.6643,6.5324,6.4647,6.441,6.3091,6.2482,6.2381,6.2212,6.1231,5.9708,5.8389,5.7881,5.778,5.6968,5.6697,5.6461,0.0,0.0,0.0,0.0,0.0,0.0,0.0,4.4458,4.5141,4.6624,4.737,4.8674,5.1057,5.2046,5.2859,5.3653,5.2976,5.23,5.1691,5.0811,5.1251,5.3416,5.4194,5.5277,5.6765,5.7509,5.7881,5.7881,5.7881,5.7881,5.7881,5.8051,5.8355,5.8795,5.8321,5.8761,5.9877,5.9877,6.0419,6.1332,6.1772,6.1525,6.065,5.9312,5.8441,5.7748,5.6635,5.6228,5.6027,5.5031,5.4465,5.4096,5.3487,5.23,0.0,0.0,0.0,0.0,0.0,0.0,0.0,0.0,0.0,0.0,0.0,0.0,0.0,0.0,0.0,0.0,0.0,0.0,0.0,6.3941,6.6517,6.8707,6.9992,7.0658,7.103,7.1109,7.121,7.1312,7.1312,7.1312,7.1312,7.1312,7.1312,7.1312,7.1312,7.1312,7.1244,7.1109,7.1244,7.0872,6.9992,6.9383,6.8707,6.7895,6.7151,0.0,6.5899,6.5595,6.485,6.37,6.3429,6.2956,6.2279,6.1061,5.9674,5.8287,5.8017,5.7881,5.7712,5.6393,5.5919,5.5716,0.0,0.0,0.0,0.0,0.0,0.0,0.0,4.4004,4.4826,4.5957,4.6439,4.7428,4.9239,5.0148,5.0935,5.1731,5.1764,5.1589,5.1219,5.1589,5.2638,5.4532,5.531,5.6224,5.734,5.7712,5.7881,5.7881,5.7881,5.7881,5.7915,5.8287,5.866,5.9032,5.8998,5.9641,6.0689,6.0689,6.1163,6.1873,6.2245,6.2178,6.1767,6.0936,6.0098,5.9396,5.9317,5.8769,5.8063,5.8138,5.7839,5.7419,5.7066,5.59,5.4421,0.0,0.0,0.0,0.0,0.0,0.0,0.0,0.0,0.0,0.0,0.0,0.0,0.0,0.0,5.9405,6.0906,0.0,6.4741,6.7041,6.8977,7.0466,7.1176,7.1954,7.2124,7.1413,7.1312,7.1312,7.1312,7.1312,7.1312,7.1312,7.1312,7.1312,7.1312,7.1312,7.1312,7.1312,7.1312,7.1142,7.0737,6.9654,6.891,6.8504,6.7354,6.6406,6.5662,6.5324,6.4546,6.3497,6.3125,6.2753,6.2279,6.0723,5.9674,5.893,5.8186,5.7881,5.7814,5.707,5.6799,5.663,0.0,0.0,0.0,0.0,0.0,0.0,0.0,4.3349,4.4356,4.5418,4.5549,4.6114,4.7618,4.8189,4.8784,4.959,5.0358,5.0954,5.1388,5.257,5.4059,5.5852,5.6494,5.7137,5.7881,5.7881,5.7881,5.7881,5.7881,5.7881,5.7915,5.866,5.9099,5.9268,5.9844,6.0622,6.1501,6.1366,6.1806,6.2584,6.2448,6.2482,6.2584,6.2448,6.1682,6.0817,6.1775,6.1027,5.9722,6.076,6.0739,6.025,6.025,5.9317,5.7878,5.6107,5.5953,0.0,0.0,0.0,0.0,0.0,0.0,0.0,0.0,5.7093,5.7958,5.9991,6.1575,6.3125,6.4918,6.6102,6.7557,7.0026,7.1142,7.1954,7.2529,7.3105,7.3003,7.1684,7.1515,7.1481,7.1312,7.1312,7.1312,7.1312,7.1312,7.1312,7.1312,7.1312,7.1312,7.1312,7.1312,7.1244,7.1109,6.9789,6.9011,6.8842,6.732,6.6203,6.5459,6.4715,6.4005,6.326,6.2651,6.2212,6.1839,6.0622,5.9945,5.9539,5.8355,5.7881,5.7881,5.7712,5.7577,5.7374,0.0,0.0,0.0,0.0,0.0,0.0,0.0,0.0,4.3399,4.5105,4.5314,4.5959,4.7618,4.7288,4.7273,4.8068,4.8829,5.0092,5.2064,5.2334,5.3687,5.6562,5.6765,5.7137,5.7881,5.7881,5.7881,5.7881,5.7881,5.7881,5.7915,5.866,5.937,5.9979,6.0047,6.0892,6.2212,6.1569,6.211,6.3328,6.2651,6.2787,6.3328,6.2651,6.2713,6.3033,6.2566,6.2622,6.2879,6.2373,6.2055,6.1829,6.1829,6.1218,5.988,5.7112,5.5945,5.4875,5.1918,5.2345,5.4398,5.7476,5.8336,5.9631,0.0,6.4443,6.4052,6.5605,6.6601,6.7252,6.7489,6.9248,7.0804,7.1142,7.236,7.3274,7.3341,7.3443,7.3172,7.236,7.2293,7.2022,7.1379,7.1312,7.1312,7.1312,7.1312,7.1312,7.1312,7.1312,7.1312,7.1312,7.1312,7.1007,7.0331,6.9519,6.8741,6.803,6.6508,6.5425,6.4681,6.3971,6.3226,6.2516,6.2415,6.1603,6.0351,6.0182,5.9336,5.8118,5.7949,5.7881,5.7814,5.7171,5.6528,5.5852,0.0,0.0,0.0,0.0,0.0,0.0,0.0,0.0,0.0,4.4352,4.4539,4.4825,4.5649,4.5965,4.6446,4.7203,4.7532,4.8659,5.0861,5.1865,5.3478,5.6053,5.6968,5.7577,5.7881,5.7881,5.7881,5.7881,5.7881,5.7881,5.7915,5.866,5.9167,5.9505,6.0419,6.1163,6.1772,6.1873,6.255,6.3463,6.2685,6.2854,6.3429,6.2685,6.2854,6.3429,6.2651,6.2313,0.0,0.0,6.2683,6.2401,6.3273,6.269,6.1201,5.8673,5.8008,5.7981,5.7215,5.7486,5.843,6.0455,6.1911,6.3437,6.5647,6.5662,6.5797,6.776,6.8741,6.935,6.9789,7.1007,7.209,7.2496,7.3443,7.4153,7.4153,7.4153,7.3883,7.3105,7.3037,7.2563,7.1413,7.1312,7.1312,7.1312,7.1312,7.1312,7.1312,7.1312,7.1312,7.1312,7.1312,7.0939,7.0195,6.9451,6.8707,6.7895,6.6846,6.5967,6.5222,6.4478,6.3497,6.2381,6.2381,6.2009,6.14,6.0994,6.0148,5.9133,5.8727,5.8287,5.7848,5.7543,5.7239,5.6934,0.0,0.0,0.0,0.0,0.0,0.0,0.0,0.0,0.0,0.0,4.3527,4.3723,4.4181,4.4651,4.5268,4.5984,4.6054,4.6982,4.9214,5.0763,5.2597,5.4834,5.6322,5.7241,5.7517,5.7735,5.7845,5.7881,5.7881,5.7881,5.7915,5.866,5.9133,5.937,6.0723,6.14,6.1637,6.2178,6.2821,6.3463,6.2685,6.2854,6.3429,6.2448,6.2178,6.2245,6.1873,6.1569,0.0,0.0,6.1738,6.1637,6.2719,6.2448,6.1366,5.9302,5.8626,5.8829,6.0047,6.0655,6.1366,6.2922,6.4986,6.6677,6.688,6.7083,6.7692,6.9383,7.0128,7.0669,7.121,7.1921,7.2631,7.3375,7.4119,7.4627,7.4627,7.4627,7.4255,7.3308,7.3172,7.2699,7.1447,7.1481,7.1548,7.1345,7.1312,7.1312,7.1312,7.1312,7.1312,7.1312,7.1312,7.0872,6.9891,6.9383,6.8605,6.759,6.6846,6.6102,6.5358,6.441,6.3396,6.2381,6.2381,6.2279,6.2042,6.1264,6.052,5.9708,5.8998,5.8355,5.7881,5.7881,5.7746,5.7577,0.0,0.0,0.0,0.0,0.0,0.0,0.0,0.0,0.0,0.0,0.0,0.0,0.0,4.3449,4.34,4.4117,4.4158,4.5115,4.7345,4.8758,5.0568,5.2999,5.4358,5.5578,5.6614,5.7256,5.7698,5.7881,5.7881,5.7881,5.7915,5.866,5.9404,6.0114,6.0926,6.1704,6.2347,6.2381,6.2821,6.3463,6.2685,6.2854,6.3362,6.1907,6.0419,5.9235,5.9911,0.0,6.096,5.8795,5.8524,5.9133,5.9167,5.9641,5.9877,5.8355,5.6427,5.5243,5.7408,5.9032,6.1028,6.4681,6.732,6.918,6.9891,7.0635,7.1176,7.1244,7.1278,7.1278,7.1312,7.1921,7.2631,7.3375,7.4119,7.4627,7.4627,7.4627,7.4086,7.2597,7.2428,7.2124,7.1379,7.1954,7.209,7.1379,7.1312,7.1312,7.1312,7.1312,7.1312,7.1312,7.1312,7.0601,6.9147,6.9113,6.8335,6.6846,6.6068,6.5358,6.458,6.3125,6.2415,6.2381,6.2381,6.1975,6.1264,6.0452,5.9708,5.8964,5.822,5.7915,5.7881,5.7881,5.7442,5.6833,0.0,0.0,0.0,0.0,0.0,0.0,0.0,0.0,0.0,0.0,0.0,0.0,0.0,0.0,0.0,0.0,4.2978,4.3437,4.5151,4.6582,4.8147,4.993,5.1765,5.311,5.3934,5.4586,5.547,5.6547,5.6547,5.6958,5.7732,5.898,5.9224,5.8727,6.1028,6.1332,6.025,6.1738,6.2821,6.3396,6.2178,6.2415,6.326,6.0757,5.9167,5.8118,0.0,0.0,5.6156,5.6393,5.6292,5.6325,5.7814,5.8118,5.7611,5.6122,5.5886,5.6427,5.8152,6.1163,6.4343,6.6609,6.8876,7.0635,7.0872,7.1142,7.1312,7.1312,7.0534,6.9857,6.9857,7.0432,7.1007,7.1244,7.3172,7.4627,7.4627,7.4627,7.4255,7.324,7.3105,7.2665,7.1447,7.1548,7.1582,7.1345,7.1312,7.1312,7.1312,7.1312,7.1312,7.1312,7.1312,7.0601,6.9113,6.9113,6.8335,6.6812,6.6034,6.5053,6.3869,6.3362,6.2854,6.2381,6.2381,6.2245,6.2009,6.1738,6.0892,5.9708,5.9471,5.8761,5.7881,5.7881,5.7712,5.7509,0.0,0.0,0.0,0.0,0.0,0.0,0.0,0.0,0.0,0.0,0.0,0.0,0.0,0.0,0.0,0.0,0.0,4.2078,4.3125,4.4463,4.5787,4.7089,4.8903,5.0358,5.1391,5.1853,5.257,5.3649,5.3649,5.4159,5.5132,5.6326,5.7015,5.736,5.9348,5.9871,5.9393,6.0921,6.1704,6.1806,6.0588,6.0486,6.0858,5.8389,5.6968,0.0,0.0,5.3112,5.2503,5.3991,5.416,5.4059,5.5784,5.619,5.5919,5.5513,5.6224,5.7814,6.0622,6.3497,6.6237,6.8538,7.0432,7.1616,7.1379,7.1515,7.1616,7.1379,6.9891,6.8673,6.8673,6.8842,6.8977,6.8977,7.1244,7.3138,7.3409,7.3443,7.3443,7.3477,7.324,7.2732,7.1785,7.1684,7.1582,7.1345,7.1312,7.1312,7.1312,7.1312,7.1312,7.1312,7.1041,7.0331,6.9113,6.8808,6.7895,6.6406,6.5662,6.4681,6.3497,6.3226,6.2854,6.2381,6.2381,6.2381,6.2347,6.1806,6.0994,6.008,5.981,5.9133,5.8287,5.8287,5.8287,5.8254,0.0,0.0,0.0,0.0,0.0,0.0,0.0,0.0,0.0,0.0,0.0,0.0,0.0,0.0,0.0,0.0,0.0,0.0,4.1241,4.2443,4.3549,4.4499,4.5782,4.7291,4.8988,4.9029,4.917,4.9432,4.9432,4.9823,5.0498,5.1167,5.3013,5.5745,5.6039,5.7338,5.9295,5.9621,5.9359,5.865,5.7907,5.7234,5.6526,5.5005,5.3991,5.3348,5.2536,5.1352,5.0371,5.1826,5.2367,5.2638,5.345,5.4228,5.5108,5.6562,5.7577,5.9302,6.4275,6.5764,6.6779,7.0364,7.1819,7.2157,7.1481,7.1853,7.2124,7.1312,6.935,6.7726,6.759,6.7117,6.6745,6.6711,6.8741,7.0601,7.1312,7.1481,7.2022,7.3341,7.2868,7.2428,7.236,7.2326,7.2056,7.1379,7.1312,7.1312,7.1312,7.1312,7.1312,7.1312,7.0567,6.9857,6.9113,6.8233,6.7049,6.5628,6.4884,6.414,6.3362,6.2685,6.2347,6.2279,6.2313,6.2313,6.2144,6.0689,6.008,5.9979,5.9268,5.8998,5.8964,5.8964,5.8964,5.8863,0.0,0.0,0.0,0.0,0.0,0.0,0.0,0.0,0.0,0.0,0.0,0.0,0.0,0.0,0.0,0.0,0.0,0.0,3.9585,4.0364,4.1273,4.2179,4.3042,4.4164,4.5546,4.5555,4.6186,4.7434,4.7434,4.7952,4.9005,4.9678,5.0258,5.0654,5.2318,5.2725,5.2291,5.4186,5.4853,5.4623,5.4048,5.4357,5.4932,5.2861,5.2302,5.2503,5.1758,5.1251,5.1082,5.1995,5.345,5.5074,5.6359,5.7273,5.8084,5.8998,6.0994,6.3193,6.4512,6.6914,6.9282,7.0229,7.1041,7.1548,7.1345,7.1447,7.1075,6.918,6.7421,6.5595,6.3396,6.4613,6.5797,6.5256,6.9383,7.2699,7.2902,7.3883,7.4322,7.3578,7.3308,7.28,7.1684,7.1582,7.1515,7.1312,7.1312,7.1312,7.1312,7.1312,7.1312,7.1312,7.0567,6.9857,6.9113,6.7218,6.5797,6.4884,6.414,6.3125,6.1873,6.2245,6.1772,6.0723,6.1332,6.1231,6.0655,6.025,5.9776,5.9268,5.9099,5.866,5.8186,5.8186,5.8186,5.8152,0.0,0.0,0.0,0.0,0.0,0.0,0.0,0.0,0.0,0.0,0.0,0.0,0.0,0.0,0.0,0.0,0.0,0.0,0.0,3.9624,4.0227,4.1194,4.1588,4.2317,4.3449,4.3449,4.3606,4.3945,4.425,4.4718,4.5323,4.6046,4.6718,4.7452,4.9063,4.9636,4.9555,5.1327,5.1894,0.0,0.0,5.1149,5.1553,5.0615,5.0692,5.1363,5.1627,5.2131,5.2909,5.4296,5.5615,5.6867,5.8017,5.8896,5.9844,6.1569,6.326,6.4952,6.6609,6.8605,7.0263,7.0601,7.1244,7.1447,7.0128,7.0094,6.962,6.6981,6.5019,6.326,6.1603,6.3193,6.4478,6.3734,6.8098,7.1684,7.1988,7.3037,7.3713,7.351,7.3477,7.3037,7.1887,7.1785,7.165,7.1345,7.1312,7.1312,7.1312,7.1312,7.1176,7.0838,7.0094,6.918,6.8098,6.6508,6.5324,6.458,6.3869,6.2922,6.1806,6.2212,6.1738,6.0655,6.1095,6.0858,6.008,5.9742,5.937,5.9032,5.9032,5.8761,5.8389,5.8389,5.8389,5.8355,0.0,0.0,0.0,0.0,0.0,0.0,0.0,0.0,0.0,0.0,0.0,0.0,0.0,0.0,0.0,0.0,0.0,0.0,0.0,0.0,3.9718,4.0694,4.0608,4.1011,4.1922,4.1833,4.124,4.0114,4.0731,4.1075,4.1232,4.1825,4.3235,4.5164,4.6005,4.7129,4.8453,4.9311,4.9431,4.8968,4.8327,4.7927,4.7793,0.0,0.0,5.0252,5.1766,5.3315,5.4938,5.7273,5.8084,5.8389,5.9539,6.0419,6.1535,6.4241,6.5189,6.6034,6.9316,7.0263,7.05,7.1142,7.1785,7.1481,6.8571,6.8436,6.803,6.4816,6.2651,6.1231,6.0892,6.2144,6.3091,6.2753,6.6305,6.9417,7.0364,7.1142,7.2022,7.3206,7.3341,7.3037,7.2326,7.2259,7.1988,7.1379,7.1312,7.1312,7.1312,7.1312,7.0939,7.006,6.9316,6.8199,6.6677,6.5933,6.5189,6.4444,6.3734,6.299,6.2245,6.2347,6.1873,6.0994,6.1095,6.0622,5.9742,5.9133,5.8863,5.8863,5.8863,5.8863,5.8863,5.8863,5.8863,5.8761,0.0,0.0,0.0,0.0,0.0,0.0,0.0,0.0,0.0,0.0,3.621,3.6654,0.0,0.0,0.0,0.0,0.0,0.0,0.0,0.0,0.0,3.9228,3.8727,3.8783,3.9494,3.8977,3.8654,3.8689,3.8982,3.9538,4.0256,4.0604,4.1258,4.216,4.29,4.3378,4.3654,4.4547,4.4839,4.4755,4.4788,4.5546,4.6671,0.0,0.0,0.0,5.1704,5.3273,5.5006,5.7881,5.9201,6.0283,6.3531,6.5053,6.5865,6.7015,6.8233,6.935,6.9992,7.0635,7.1142,7.1278,7.1413,7.0872,6.8436,6.7996,6.6914,6.2719,6.1569,6.0723,5.8829,6.025,6.2245,6.3937,6.6948,6.9789,7.1751,7.2631,7.2969,7.2631,7.2597,7.2293,7.1582,7.1515,7.1447,7.1312,7.1312,7.1312,7.1312,7.1312,7.0703,6.9316,6.8504,6.7387,6.5899,6.5155,6.441,6.37,6.2956,6.2212,6.1501,6.211,6.1298,5.9438,6.0047,5.9539,5.8254,5.8118,5.8084,5.8084,5.8084,5.8084,5.8084,5.8084,5.8084,5.8051,0.0,0.0,0.0,0.0,0.0,0.0,0.0,3.5027,3.5554,3.5508,3.61,3.6593,3.6662,3.6803,3.6968,0.0,0.0,0.0,0.0,0.0,0.0,0.0,0.0,0.0,3.8904,3.8916,3.8655,3.8062,0.0,3.8993,3.9114,3.9348,3.9613,3.9971,4.1155,4.1646,4.1745,4.2981,4.3557,4.3744,4.4155,4.4852,4.5812,0.0,0.0,0.0,0.0,5.3021,5.4448,5.7434,5.9438,6.1298,6.4647,6.6474,6.759,6.8741,6.9891,7.0939,7.1684,7.2157,7.236,7.1988,7.1887,7.0872,6.7049,6.617,6.4918,6.0452,5.9539,5.9201,5.8084,5.9742,6.1637,6.2719,6.5392,6.7963,6.9789,7.1041,7.1785,7.1819,7.2157,7.2124,7.1379,7.1312,7.1312,7.1312,7.0939,7.0906,7.1312,7.0567,6.9654,6.8504,6.7354,6.6406,6.5696,6.458,6.3869,6.3497,6.2753,6.2212,6.1873,6.2245,6.1366,5.9607,5.9945,5.9268,5.7881,5.7881,5.7881,5.7881,5.7881,5.7881,5.7881,5.7881,5.7881,5.7881,0.0,0.0,0.0,0.0,0.0,0.0,0.0,3.5353,3.6081,3.5755,3.6107,3.6452,3.6615,3.6615,3.6734,0.0,0.0,0.0,0.0,0.0,0.0,0.0,0.0,0.0,3.8347,0.0,0.0,3.7644,3.8398,0.0,0.0,0.0,0.0,0.0,4.0339,4.1047,4.1279,4.2533,4.3339,0.0,0.0,4.4831,4.5546,0.0,0.0,0.0,0.0,5.2277,5.3394,5.6395,5.8605,6.0598,6.3558,6.6068,6.8098,6.9147,7.0331,7.1616,7.2902,7.324,7.3105,7.2529,7.2293,7.0838,6.5764,6.4613,6.3328,5.8829,5.7881,5.7881,5.7881,5.937,6.0723,6.1231,6.326,6.5493,6.759,6.8944,7.0094,7.1176,7.1819,7.1954,7.1379,7.1312,7.1244,7.1075,7.0364,7.0229,7.0804,6.9586,6.8538,6.7929,6.6474,6.5595,6.5459,6.4174,6.3429,6.326,6.2685,6.2381,6.2381,6.2381,6.1535,6.0114,6.0114,5.9268,5.7881,5.7881,5.7881,5.7881,5.7881,5.7881,5.7881,5.7881,5.7881,5.7881,0.0,0.0,0.0,0.0,0.0,0.0,0.0,3.5483,3.578,3.6279,3.638,3.6405,3.6452,3.6452,3.6452,0.0,0.0,0.0,0.0,0.0,0.0,0.0,0.0,0.0,0.0,0.0,0.0,3.6836,3.7142,0.0,0.0,0.0,0.0,0.0,0.0,4.1112,4.1918,4.2058,0.0,0.0,0.0,0.0,0.0,0.0,0.0,0.0,0.0,5.064,5.1755,5.4779,5.5975,5.6654,5.965,6.3971,6.7793,6.7286,6.9113,7.1481,7.2293,7.2496,7.2496,7.2428,7.1921,7.0229,6.5628,6.4613,6.3328,5.8829,5.7881,5.7881,5.7881,5.8051,5.8896,6.096,6.1535,6.3159,6.732,6.803,6.891,7.1075,7.1379,7.1379,7.1312,7.1312,7.1041,7.0331,6.962,6.9214,6.9316,6.847,6.7963,6.7895,6.6474,6.5358,6.4715,6.3903,6.3159,6.2482,6.2415,6.2381,6.2381,6.2381,6.1535,6.0114,6.0114,5.9268,5.7881,5.7881,5.7881,5.7881,5.7881,5.7881,5.7881,5.7881,5.7881,5.7881,0.0,0.0,0.0,0.0,0.0,0.0,3.5508,3.583,3.6107,3.638,3.6405,3.6405,3.6405,3.6405,3.6405,3.6405,0.0,0.0,0.0,0.0,0.0,0.0,0.0,0.0,0.0,0.0,3.6452,3.6546,3.6759,0.0,0.0,0.0,0.0,0.0,0.0,4.0303,4.1226,4.2174,0.0,0.0,0.0,0.0,0.0,0.0,0.0,0.0,0.0,0.0,5.0705,5.2865,5.4498,5.5742,5.6549,5.9742,6.3599,6.5561,6.7963,7.0432,7.2496,7.3375,7.3713,7.3713,7.1853,6.9147,6.5967,6.3903,6.1704,5.8524,5.7881,5.7881,5.7881,5.7881,5.8186,5.9099,5.9235,6.0351,6.3497,6.3497,6.4715,6.8774,6.8876,6.9147,7.05,7.0635,7.0128,6.891,6.8538,6.8199,6.776,6.7827,6.7489,6.6576,6.5561,6.4681,6.3971,6.3226,6.2685,6.2381,6.2381,6.2381,6.2381,6.1941,6.1129,6.008,5.9641,5.8863,5.7881,5.7881,5.7881,5.7881,5.7881,5.7881,5.7881,5.7881,5.7881,5.7881,0.0,0.0,0.0,0.0,0.0,3.5805,3.5533,3.5881,3.6182,3.638,3.6405,3.6405,3.6405,3.6405,3.6405,3.6405,3.6405,0.0,0.0,0.0,0.0,0.0,0.0,0.0,0.0,0.0,3.6405,3.6405,3.6698,3.6792,0.0,0.0,3.7521,3.7413,0.0,0.0,0.0,0.0,0.0,0.0,0.0,0.0,0.0,0.0,0.0,0.0,0.0,0.0,0.0,0.0,0.0,5.4283,5.4289,5.6055,5.893,6.2888,6.6102,6.8977,7.1515,7.3071,7.395,7.395,7.1345,6.8166,6.5865,6.326,6.0655,5.8355,5.7881,5.7881,5.7881,5.7712,5.7577,5.7577,5.7374,5.8051,6.0317,6.0148,6.14,6.5764,6.5797,6.6406,6.8639,6.9248,6.8977,6.7658,6.7354,6.6914,6.6203,6.6643,6.6542,6.573,6.4783,6.4038,6.3531,6.2753,6.2381,6.2381,6.2381,6.2279,6.2042,6.1535,6.0757,5.9742,5.9235,5.8592,5.7881,5.7881,5.7881,5.7881,5.7881,5.7881,5.7881,5.7881,5.7881,5.7881,0.0,0.0,0.0,0.0,0.0,0.0,3.5408,3.5508,3.5708,3.6329,3.6405,3.6405,3.6405,3.6405,3.6405,3.6405,3.6405,0.0,0.0,0.0,0.0,0.0,0.0,0.0,0.0,0.0,3.6405,3.6405,3.6958,3.6933,3.6405,3.7435,3.7599,3.7108,0.0,0.0,0.0,0.0,0.0,0.0,0.0,0.0,0.0,0.0,0.0,0.0,0.0,0.0,0.0,0.0,0.0,0.0,0.0,5.3551,5.4431,5.8863,6.3328,6.7184,6.8741,7.0737,7.2428,7.2428,7.0161,6.732,6.5121,6.2888,6.0655,5.8355,5.7881,5.7881,5.7881,5.7306,5.6799,5.6799,5.6224,5.6528,5.8727,5.9032,5.9877,6.2178,6.2448,6.3294,6.5527,6.7049,6.7624,6.688,6.6136,6.5392,6.4647,6.4647,6.4952,6.5662,6.4275,6.3531,6.3531,6.2753,6.2381,6.2381,6.2381,6.2009,6.1332,6.1298,6.0486,5.9032,5.9032,5.8592,5.7881,5.7881,5.7881,5.7881,5.7881,5.7881,5.7881,5.7881,5.7881,5.7881,0.0,0.0,0.0,0.0,0.0,0.0,0.0,3.6107,3.6157,3.638,3.6405,3.6405,3.6405,3.6405,3.6405,3.6405,3.6405,0.0,0.0,0.0,0.0,0.0,0.0,0.0,0.0,3.6405,3.6581,3.6983,3.6782,3.691,3.7462,3.741,3.7446,3.7672,3.8215,3.9084,0.0,0.0,0.0,0.0,0.0,0.0,4.7352,0.0,0.0,0.0,0.0,0.0,0.0,0.0,0.0,0.0,0.0,0.0,0.0,5.5784,5.9133,6.255,6.4106,6.6136,6.7793,6.7793,6.5595,6.3328,6.3125,6.096,5.8761,5.8051,5.7881,5.7746,5.7239,5.6968,5.663,5.6156,5.5446,5.5378,5.6596,5.7205,5.8727,6.2009,6.4613,6.644,6.7151,6.7184,6.6846,6.6102,6.5831,6.5358,6.4647,6.414,6.3971,6.4208,6.3768,6.326,6.2753,6.2516,6.2381,6.2381,6.2381,6.2009,6.1298,6.0723,5.9945,5.8998,5.8457,5.8118,5.7881,5.7881,5.7881,5.7881,5.7881,5.7881,5.7881,5.7881,5.7881,5.7881,0.0,0.0,0.0,0.0,0.0,0.0,0.0,3.6405,3.6405,3.6405,3.6405,3.6405,3.6405,3.6405,3.6405,3.6405,3.6405,0.0,0.0,0.0,0.0,0.0,0.0,0.0,3.6405,3.6405,3.6681,3.7186,3.7061,3.7337,3.799,3.8046,3.8133,3.8261,3.8813,3.9485,0.0,0.0,0.0,0.0,0.0,0.0,4.7309,0.0,0.0,0.0,0.0,0.0,0.0,0.0,0.0,0.0,0.0,0.0,0.0,0.0,5.6427,5.8896,6.096,6.3362,6.5358,6.5628,6.3463,6.1501,6.2212,6.0047,5.7881,5.7881,5.7679,5.734,5.69,5.6359,5.5818,5.5378,5.4668,5.4532,5.5581,5.6325,5.7983,6.1163,6.4309,6.6237,6.6237,6.6339,6.6068,6.5324,6.5019,6.4546,6.3802,6.3328,6.3091,6.3091,6.2821,6.2584,6.2381,6.211,6.211,6.2381,6.2381,6.1839,6.0825,6.0317,5.9539,5.8558,5.8084,5.7881,0.0,5.7881,5.7881,5.7881,5.7881,5.7881,5.7881,5.7881,5.7881,5.7881,0.0,0.0,0.0,0.0,0.0,0.0,0.0,3.6405,3.6405,3.6405,3.6405,3.6405,3.6405,3.6405,3.6405,3.6405,0.0,0.0,0.0,0.0,0.0,0.0,0.0,0.0,3.6405,3.6405,3.6707,3.7236,3.7713,3.8015,3.814,3.9066,3.9263,3.89,3.941,3.9965,4.0732,4.3216,4.4869,4.5869,4.6931,4.7309,0.0,0.0,0.0,0.0,0.0,0.0,0.0,0.0,0.0,0.0,0.0,0.0,0.0,0.0,0.0,0.0,0.0,6.1907,6.4275,6.4816,6.299,6.1231,6.1907,5.9911,0.0,5.7881,5.734,5.6867,5.6731,5.5615,5.4634,5.4532,5.3957,5.3991,5.5446,5.6494,5.7915,6.0013,6.2313,6.37,6.3531,6.4816,6.5392,6.4647,6.3937,6.3193,6.2415,6.2381,6.2381,6.2313,6.1603,6.1603,6.2381,6.167,6.167,6.2381,6.2381,6.1569,6.0114,6.0114,5.9302,5.7881,5.7881,5.7881,5.7881,5.7881,5.7881,5.7881,5.7881,5.7881,5.7881,5.7881,5.7881,5.7881,0.0,0.0,0.0,0.0,0.0,0.0,0.0,0.0,0.0,0.0,3.6405,3.6405,3.6405,3.6405,3.6405,0.0,0.0,0.0,0.0,0.0,0.0,0.0,0.0,0.0,3.6405,3.6405,3.6835,3.7814,3.7513,3.804,3.9295,3.8892,3.8962,3.9415,3.9736,4.0785,4.2312,4.374,4.4869,4.5869,4.6931,4.7309,0.0,0.0,0.0,0.0,4.8049,4.8301,0.0,0.0,0.0,0.0,0.0,0.0,0.0,0.0,5.4296,5.5141,5.6393,0.0,5.9235,5.8287,5.8389,5.8727,0.0,5.8389,5.7881,5.7881,5.7746,5.7306,5.619,5.5683,5.5074,5.3957,5.3619,5.3822,5.4735,5.7983,6.0655,6.1738,6.4343,6.5392,6.3666,6.4816,6.5392,6.4647,6.3937,6.3193,6.2415,6.2381,6.2144,6.1569,6.0791,6.1028,6.2381,6.167,6.167,6.2381,6.2381,6.1569,6.0114,6.0114,5.9302,5.7881,5.7881,5.7881,5.7881,5.7881,5.7881,5.7881,5.7881,5.7881,5.7881,5.7881,5.7881,5.7814,0.0,0.0,0.0,0.0,0.0,0.0,0.0,0.0,0.0,0.0,0.0,0.0,0.0,0.0,0.0,0.0,0.0,0.0,0.0,0.0,0.0,0.0,0.0,3.6784,3.6782,3.6782,3.7287,3.8391,3.8115,3.8542,3.9672,3.9323,3.9422,3.9879,4.023,4.1034,4.2186,4.3701,4.4638,4.5235,4.6682,0.0,0.0,0.0,0.0,0.0,4.8007,4.826,0.0,4.8604,4.9718,5.1107,0.0,0.0,0.0,0.0,5.4803,5.5277,5.6021,5.6799,5.7273,5.6833,5.7306,5.7881,5.7881,5.7881,5.778,5.7476,5.7137,5.6528,5.5412,5.5209,5.4837,5.3687,5.4093,5.4905,5.5953,5.849,6.0926,6.2685,6.4309,6.5087,6.4546,6.4918,6.4884,6.414,6.3429,6.2821,6.2415,6.2381,6.2042,6.1332,6.0892,6.1061,6.1873,6.1129,6.1298,6.2381,6.2042,6.1264,6.008,5.9742,5.8964,5.7881,5.7881,5.7881,5.7881,5.7881,5.7881,5.7881,5.7881,5.7881,5.7881,5.7881,5.7881,5.778,0.0,0.0,0.0,0.0,0.0,0.0,0.0,0.0,0.0,0.0,0.0,0.0,0.0,0.0,0.0,0.0,0.0,0.0,0.0,0.0,0.0,0.0,3.6832,3.6782,3.7287,3.7236,3.7739,3.8919,3.8919,3.9145,3.9697,3.9929,4.0083,4.0185,4.0694,4.1047,4.1398,4.3273,4.4172,4.4452,4.6329,0.0,0.0,0.0,0.0,0.0,0.0,0.0,0.0,4.8604,4.9718,5.1107,5.1107,0.0,0.0,0.0,0.0,0.0,5.6393,5.6799,5.7103,5.7577,5.7712,5.7746,5.7848,5.7814,5.7577,5.707,5.6292,5.5547,5.504,5.4735,5.4397,5.3788,5.4905,5.6427,5.8017,5.9066,6.0554,6.2888,6.3666,6.4343,6.5121,6.4816,6.4309,6.3565,6.2821,6.2347,6.2245,6.2212,6.1839,6.0994,6.096,6.096,6.096,6.0385,6.0825,6.2212,6.1467,6.0689,5.9911,5.9302,5.8592,5.7881,5.7881,5.7881,5.7881,5.7881,5.7881,5.7881,5.7881,5.7881,5.7881,5.7881,5.7814,5.7611,0.0,0.0,0.0,0.0,0.0,0.0,0.0,0.0,0.0,0.0,0.0,0.0,0.0,0.0,0.0,0.0,0.0,0.0,0.0,0.0,0.0,3.7889,3.7337,3.7312,3.7864,3.7412,3.7739,3.8919,3.8919,3.9145,3.9697,3.9749,4.0006,4.044,4.0744,4.1047,4.1374,4.2528,4.3511,4.4406,4.5553,0.0,0.0,0.0,0.0,0.0,0.0,0.0,0.0,4.8604,4.9718,5.1107,5.1107,0.0,0.0,0.0,0.0,0.0,5.5513,5.6799,5.7611,5.7103,5.6968,5.7137,5.7746,5.7408,5.7103,5.7611,5.6664,5.5886,5.6359,5.5446,5.4566,5.4431,5.5683,5.7374,5.9471,6.1535,6.255,6.1738,6.441,6.5425,6.3125,6.3937,6.4309,6.3565,6.2821,6.211,6.1501,6.1467,6.0825,5.9404,5.937,5.937,5.937,5.9844,6.0554,6.1467,6.0655,5.9911,5.9167,5.9066,5.8592,5.7881,5.7881,5.7881,5.7881,5.7881,5.7881,5.7881,5.7881,5.7881,5.7881,5.7881,5.7476,5.6867,0.0,0.0,0.0,0.0,0.0,0.0,0.0,0.0,0.0,0.0,0.0,0.0,0.0,0.0,0.0,0.0,0.0,0.0,0.0,0.0,3.7839,3.8442,3.7939,3.7889,3.8467,3.7914,3.8191,3.932,3.932,3.9446,3.9697,3.9697,4.0006,4.0517,4.0643,4.0896,4.1374,4.2382,4.3368,4.4406,0.0,0.0,0.0,0.0,0.0,0.0,0.0,0.0,0.0,0.0,5.0073,5.1182,5.1623,0.0,0.0,0.0,0.0,0.0,5.5412,5.5919,5.6224,5.6697,5.8017,5.9099,5.8626,5.8524,5.8355,5.7476,5.6765,5.6156,5.5683,5.5716,5.6325,5.7949,5.8084,5.849,5.9911,6.0655,6.1129,6.1298,6.3159,6.4038,6.3091,6.3632,6.37,6.2956,6.2212,6.167,6.1332,6.0892,6.0148,5.9032,5.9404,5.9404,5.9032,5.9336,5.9911,6.0655,5.9877,5.9336,5.8998,5.8592,5.822,5.7881,5.7881,5.7881,5.7881,5.7881,5.7881,5.7881,5.7881,5.7881,5.7881,5.7881,5.6934,5.5683,0.0,0.0,0.0,0.0,0.0,0.0,0.0,0.0,0.0,0.0,0.0,0.0,0.0,0.0,0.0,0.0,0.0,0.0,0.0,3.7236,3.7764,3.8617,3.8366,3.8492,3.9044,3.8492,3.8693,3.9697,3.9697,3.9697,3.9697,3.9749,4.0057,4.0517,4.0542,4.0846,4.1374,4.2137,4.3177,4.4359,0.0,0.0,0.0,0.0,0.0,0.0,0.0,0.0,0.0,0.0,0.0,0.0,0.0,0.0,0.0,5.4363,5.4465,5.4499,5.5243,5.5277,5.5344,5.6292,5.8152,5.9641,5.9336,5.9302,5.9066,5.8051,5.7306,5.6494,5.5547,5.6156,5.7611,6.0114,5.981,5.9573,6.052,6.0317,6.052,6.167,6.2482,6.3057,6.3463,6.3531,6.3193,6.2448,6.1704,6.1231,6.1028,6.0283,5.9505,5.8795,5.9302,5.9302,5.8761,5.8761,5.9133,5.9844,5.9099,5.8761,5.8727,5.8152,5.7881,5.7881,5.7881,5.7881,5.7881,5.7712,5.7746,5.7848,5.7509,5.7476,5.7645,5.7645,5.6461,5.5006,0.0,0.0,0.0,0.0,0.0,0.0,0.0,0.0,0.0,0.0,0.0,0.0,0.0,0.0,0.0,0.0,0.0,0.0,0.0,3.7387,3.799,3.8065,3.8542,3.9069,3.9622,3.9094,3.9094,3.9697,3.9697,3.9697,3.9697,3.9929,4.0236,4.0517,4.0744,4.1047,4.1298,4.1374,4.2528,4.4312,4.4359,0.0,0.0,0.0,0.0,0.0,0.0,0.0,0.0,0.0,0.0,0.0,0.0,0.0,5.3653,5.4363,5.4126,5.3754,5.4465,5.5649,5.6494,5.5919,5.5446,5.5953,5.9268,5.8457,5.778,6.0419,5.8761,5.6968,5.7543,5.7171,5.7103,5.7983,5.9201,6.0554,6.2009,6.2787,6.3226,6.3362,6.4005,6.4208,6.3565,6.3531,6.3193,6.2448,6.1704,6.096,6.0216,5.9471,5.8761,5.7983,5.8017,5.8017,5.7983,5.7983,5.8355,5.9099,5.8321,5.7983,5.7983,5.7915,5.7881,5.7881,5.7881,5.7881,5.7848,5.7171,5.7273,5.7746,5.6393,5.6292,5.6867,5.6867,5.6359,5.5649,0.0,0.0,0.0,0.0,0.0,0.0,0.0,0.0,0.0,0.0,0.0,0.0,0.0,0.0,0.0,0.0,0.0,0.0,0.0,3.7262,3.7638,3.799,3.8567,3.8969,3.917,3.8969,3.9145,3.9697,3.9697,3.9697,3.9697,3.9981,4.0236,4.0517,4.0795,4.1047,4.1324,4.1324,4.2431,4.4312,4.4312,4.5508,0.0,0.0,0.0,0.0,0.0,0.0,0.0,0.0,5.0151,5.1182,5.1696,5.259,5.3551,5.3822,5.3721,5.3551,5.3856,5.4668,5.5344,5.5074,5.4803,5.5547,5.9268,5.9844,5.9539,5.9235,5.9404,5.9235,5.8084,5.8829,5.9708,5.9979,6.1264,6.2415,6.3024,6.3328,6.3328,6.2854,6.3463,6.3632,6.2888,6.2821,6.2516,6.1772,6.0994,6.0216,5.9471,5.8727,5.8186,5.7915,5.7881,5.7881,5.7881,5.7881,5.8017,5.8321,5.8017,5.7881,5.7881,5.7881,5.7881,5.7881,5.7881,5.7881,5.7814,5.7103,5.7239,5.7814,5.7273,5.6968,5.6867,5.7306,5.6731,5.5749,0.0,0.0,0.0,0.0,0.0,0.0,0.0,0.0,0.0,0.0,0.0,0.0,0.0,0.0,0.0,0.0,0.0,0.0,3.6933,3.7086,3.7437,3.799,3.8567,3.8994,3.9272,3.9272,3.9423,3.9697,3.9697,3.9697,3.9697,4.0032,4.0338,4.0517,4.0846,4.1147,4.1324,4.1324,4.2431,4.4312,4.4312,4.5508,0.0,0.0,0.0,0.0,0.0,0.0,0.0,0.0,5.0065,5.0843,5.1659,5.2485,5.3178,5.3416,5.3518,5.3518,5.3518,5.3856,5.4262,5.4262,5.4431,5.5446,5.866,6.0013,6.0486,6.008,6.0317,6.0047,5.822,5.9167,6.0317,6.0554,6.2042,6.3159,6.3159,6.3159,6.2956,6.2448,6.2854,6.2956,6.2448,6.2178,6.1839,6.1332,6.0351,5.9539,5.9032,5.8287,5.7881,5.7881,5.7881,5.7881,5.7881,5.7881,5.7881,5.7881,5.7881,5.7881,5.7881,5.7881,5.7881,5.7881,5.7645,5.7679,5.7814,5.6596,5.6258,5.6596,5.7543,5.7306,5.6562,5.7543,5.7103,5.6156,0.0,0.0,0.0,0.0,0.0,0.0,0.0,0.0,0.0,0.0,0.0,0.0,0.0,0.0,0.0,0.0,0.0,0.0,3.6405,3.6885,3.7412,3.7965,3.8542,3.9272,4.0058,4.0083,3.9981,3.9697,3.9697,3.9697,3.9749,4.0236,4.0517,4.0517,4.1073,4.1324,4.1324,4.1324,4.2431,4.4312,4.4312,4.5508,4.7309,0.0,0.0,0.0,0.0,0.0,0.0,0.0,4.9178,5.0026,5.0843,5.1659,5.2449,5.328,5.3518,5.3518,5.3518,5.3518,5.3518,5.3518,5.4059,5.5175,5.7408,5.849,6.008,6.3802,6.1603,5.8795,5.8051,5.7915,5.8152,5.8896,6.0926,6.2381,6.2381,6.2381,6.2381,6.2381,6.2381,6.2381,6.2381,6.1738,6.1298,6.1298,5.9877,5.9032,5.8998,5.8287,5.7881,5.7881,5.7881,5.7881,5.7881,5.7881,5.7881,5.7881,5.7881,5.7881,5.7881,5.7881,5.7881,5.7848,5.7137,5.7205,5.7712,5.5513,5.4194,5.3822,5.6731,5.7002,5.5919,5.734,5.7442,5.69,0.0,0.0,0.0,0.0,0.0,0.0,0.0,0.0,0.0,0.0,0.0,0.0,0.0,0.0,0.0,0.0,0.0,0.0,3.6935,3.6782,3.6908,3.7412,3.8162,3.8842,3.95,4.0109,4.0338,4.0262,4.0262,4.0262,4.0262,4.0643,4.0795,4.0795,4.1147,4.1324,4.1324,4.1324,4.2431,4.4312,4.4312,4.5508,4.7309,0.0,0.0,0.0,0.0,0.0,0.0,0.0,0.0,0.0,5.0843,5.1659,5.2449,5.328,5.3518,5.3518,5.3518,5.389,5.4262,5.4262,5.5209,5.6596,5.8287,5.8863,5.9776,6.2482,6.0892,5.9099,5.9404,5.9911,6.0182,5.9844,6.1231,6.2381,6.2381,6.2381,6.2381,6.2381,6.2381,6.2381,6.2381,6.1738,6.1061,6.0486,5.9573,5.8795,5.8254,5.8017,5.7881,5.7881,5.7881,5.7881,5.7881,5.7881,5.7645,5.7137,5.7137,5.7408,5.7881,5.7881,5.7611,5.7137,5.7442,5.7408,5.7103,5.6968,5.619,5.5243,5.7137,5.7306,5.6596,5.7543,5.7746,5.7611,0.0,0.0,0.0,0.0,0.0,0.0,0.0,0.0,0.0,0.0,0.0,0.0,0.0,0.0,0.0,0.0,0.0,0.0,0.0,3.7211,3.731,3.7986,3.8488,3.9117,3.9954,4.0539,4.0997,4.1421,4.0795,4.0694,4.1095,4.1345,4.1495,4.1495,4.1769,4.1918,4.1918,4.1918,4.3033,4.4915,4.4915,4.5853,4.7309,0.0,0.0,0.0,0.0,0.0,0.0,0.0,0.0,0.0,5.0729,5.1406,5.2023,5.3178,5.3518,5.3518,5.3518,5.3822,5.4228,5.4532,5.5716,5.7273,5.9032,6.0148,6.1197,6.255,6.1298,6.0047,6.0486,6.0723,6.0757,6.0588,6.1603,6.2381,6.2381,6.2381,6.2381,6.2381,6.2144,6.1941,6.1941,6.1028,6.0182,5.9708,5.8998,5.8355,5.7915,5.7881,5.7881,5.7881,5.7881,5.7881,5.7881,5.7611,5.7239,5.6799,5.6494,5.6596,5.7036,5.7036,5.6934,5.6833,5.7273,5.6867,5.6021,5.7036,5.6596,5.5378,5.6562,5.6765,5.6461,5.7171,5.7645,5.7848,0.0,0.0,0.0,0.0,0.0,0.0,0.0,0.0,0.0,0.0,3.7638,0.0,0.0,0.0,0.0,0.0,0.0,0.0,0.0,3.804,3.8365,3.9221,3.9347,3.9928,4.1071,4.1298,4.1918,4.2937,4.1471,4.1196,4.223,4.2452,4.255,4.2598,4.284,4.2889,4.2792,4.2792,4.3909,4.5644,4.5644,4.6299,4.7309,4.7309,0.0,0.0,0.0,0.0,0.0,0.0,0.0,0.0,5.0499,5.1032,5.1406,5.2938,5.3416,5.3518,5.3585,5.3585,5.3788,5.46,5.5953,5.7679,5.9847,6.1907,6.3396,6.3328,6.2279,6.1438,6.1438,6.0829,6.0592,6.1303,6.2014,6.242,6.2381,6.2347,6.2279,6.2279,6.1637,6.1197,6.1197,5.9877,5.9032,5.9032,5.8254,5.778,5.778,5.778,5.7746,5.7679,5.7746,5.7746,5.7679,5.7036,5.6664,5.6596,5.5987,5.5647,5.5615,5.5683,5.6089,5.6697,5.663,5.5886,5.4803,5.6224,5.5919,5.4668,5.5513,5.575,5.5716,5.6427,5.7137,5.7577,0.0,0.0,0.0,0.0,0.0,0.0,0.0,0.0,0.0,0.0,0.0,0.0,0.0,0.0,0.0,0.0,0.0,0.0,0.0,3.8266,3.8316,3.8944,3.9804,4.0917,4.2355,4.2479,4.2985,4.3984,4.284,4.284,4.3815,4.389,4.389,4.389,4.3937,4.3559,4.2792,4.2792,4.3511,4.4638,4.4638,4.5718,4.7309,4.7309,4.7309,0.0,0.0,0.0,0.0,0.0,0.0,0.0,4.9789,5.0576,5.1294,5.2272,5.3007,5.3619,5.4194,5.4363,5.4668,5.5987,5.7881,5.9881,6.1728,6.2513,6.2717,6.2144,6.2208,6.2416,6.2608,6.251,6.2366,6.2416,6.2513,6.2576,6.242,6.1907,6.1535,6.1535,6.0858,6.0351,6.0351,5.9539,5.9032,5.9032,5.778,5.7036,5.7036,5.7036,5.6765,5.619,5.6731,5.6765,5.619,5.6021,5.5649,5.5074,5.5513,5.5412,5.4871,5.5446,5.5818,5.5919,5.531,5.5209,5.5547,5.6427,5.5919,5.4735,5.6055,5.5852,5.4938,5.5683,5.6055,5.6156,0.0,0.0,0.0,0.0,0.0,0.0,0.0,0.0,0.0,0.0,0.0,0.0,0.0,0.0,0.0,0.0,0.0,0.0,0.0,0.0,3.9045,3.9652,4.0438,4.1471,4.2792,4.2792,4.3531,4.5007,4.447,4.4517,4.5007,4.5007,4.5007,4.5007,4.5007,4.473,4.4238,4.4238,4.4823,4.5763,4.5763,4.6373,4.7309,4.7309,4.7309,4.7309,4.7439,0.0,0.0,0.0,0.0,0.0,0.0,0.0,5.1257,5.2059,5.2868,5.3585,5.3957,5.4329,5.504,5.6867,5.8727,6.0457,6.1719,6.23,6.2513,6.2297,6.2574,6.2885,6.3,6.3,6.2825,6.2336,6.2263,6.2089,6.1486,6.1113,6.0838,6.0723,6.0047,5.9573,5.9573,5.893,5.8457,5.8457,5.7442,5.6799,5.6799,5.6461,5.6122,5.5681,5.6089,5.6089,5.5681,5.5344,5.4972,5.46,5.4634,5.4465,5.4093,5.4837,5.4972,5.4634,5.46,5.4803,5.5209,5.5581,5.5277,5.4634,5.5074,5.4972,5.4634,5.504,5.5412,5.5683,0.0,0.0,0.0,0.0,0.0,0.0,0.0,0.0,0.0,0.0,0.0,0.0,0.0,0.0,0.0,0.0,0.0,0.0,0.0,0.0,0.0,4.0466,4.1147,4.1967,4.3033,4.3225,4.4238,4.6077,4.6077,4.6135,4.6223,4.6106,4.6077,4.6077,4.6077,4.5958,4.5779,4.5779,4.6299,4.7019,4.7019,4.7149,4.7309,4.7309,4.7309,4.7309,4.7309,4.7439,4.7581,4.7837,0.0,0.0,0.0,0.0,5.1032,5.1842,5.2661,5.3348,5.3619,5.4329,5.5446,5.7408,5.8896,6.0114,6.0964,6.1748,6.2373,6.2719,6.2897,6.3038,6.3114,6.3011,6.2703,6.1978,6.1773,6.1391,6.052,6.0313,6.0136,5.9911,5.9268,5.8829,5.8829,5.8254,5.7881,5.7881,5.7205,5.6731,5.663,5.6055,5.5546,5.5344,5.5446,5.548,5.5309,5.4735,5.4397,5.4397,5.3788,5.3585,5.3721,5.4194,5.4059,5.3551,5.416,5.4397,5.4397,5.4532,5.4499,5.4363,5.389,5.3991,5.4397,5.4397,5.4803,5.5243,0.0,0.0,0.0,0.0,0.0,0.0,0.0,0.0,0.0,0.0,3.917,3.8894,0.0,0.0,0.0,0.0,0.0,0.0,0.0,0.0,0.0,4.0517,4.1644,4.284,4.4078,4.4932,4.5987,4.7106,4.7106,4.7404,4.794,4.7374,4.7106,4.7106,4.7106,4.6638,4.5779,4.5779,4.5869,4.6003,4.6003,4.655,4.7309,4.7309,4.7309,4.7309,4.7309,4.7309,4.7396,4.7581,4.7837,0.0,0.0,0.0,5.0221,5.1032,5.1842,5.2757,5.409,5.5446,5.6731,5.7645,5.8524,5.9407,6.0374,6.1159,6.1779,6.2006,6.2556,6.3114,6.3452,6.3009,6.249,6.2167,6.1547,6.0957,6.0452,5.9871,5.9389,5.9167,5.849,5.8051,5.8051,5.7949,5.7881,5.7881,5.7205,5.6528,5.5886,5.5749,5.5108,5.3856,5.4397,5.4431,5.3822,5.3687,5.3653,5.3653,5.3551,5.3822,5.4431,5.389,5.3585,5.3518,5.3619,5.3653,5.3687,5.4329,5.4228,5.3687,5.4228,5.4126,5.3653,5.3653,5.3721,5.3788,0.0,0.0,0.0,0.0,0.0,0.0,0.0,0.0,0.0,0.0,0.0,3.8919,0.0,0.0,0.0,0.0,0.0,0.0,0.0,0.0,0.0,4.0694,4.1372,4.2577,4.4266,4.473,4.5763,4.7309,4.7309,4.7459,4.7728,4.7818,4.7848,4.7848,4.7459,4.7062,4.6638,4.6638,4.6638,4.6638,4.6638,4.6931,4.7309,4.7309,4.7309,4.7309,4.7309,4.7309,4.7352,4.7538,4.7666,4.7837,4.8218,0.0,0.0,0.0,5.1327,5.2651,5.4157,5.5074,5.5852,5.7002,5.7848,5.8629,5.9448,6.0231,6.0812,6.1,6.1347,6.1835,6.269,6.2178,6.1525,6.1146,6.0768,6.0283,5.9443,5.903,5.8717,5.8426,5.8084,5.7881,5.7881,5.7881,5.7881,5.7881,5.6833,5.6055,5.575,5.4938,5.4194,5.3518,5.3822,5.3822,5.3518,5.3518,5.3518,5.3518,5.3518,5.3687,5.3957,5.3653,5.3518,5.3518,5.3518,5.3518,5.3518,5.3856,5.3788,5.3551,5.3856,5.3788,5.3518,5.3518,5.3518,5.3518,0.0,0.0,0.0,0.0,0.0,0.0,0.0,0.0,0.0,0.0,0.0,0.0,0.0,0.0,0.0,0.0,0.0,0.0,0.0,0.0,0.0,4.0896,4.167,4.2771,4.4266,4.4823,4.5808,4.7309,4.7309,4.7489,4.7818,4.8147,4.8566,4.8985,4.8177,4.7818,4.7788,4.7638,4.7638,4.7788,4.7429,4.7309,4.7309,4.7309,4.7309,4.7309,4.7309,4.7309,4.7309,4.7452,4.7538,4.7666,4.8007,4.8615,0.0,0.0,0.0,5.2547,5.3713,5.4293,5.4871,5.5953,5.6799,5.7543,5.8287,5.8998,5.9644,5.9963,6.0068,6.0384,6.1297,6.1067,6.0557,6.0183,5.9978,5.9563,5.8629,5.849,5.8348,5.7954,5.7881,5.7881,5.7881,5.7881,5.7881,5.7881,5.6697,5.5919,5.5681,5.4499,5.3687,5.3518,5.3518,5.3518,5.3518,5.3518,5.3518,5.3518,5.3518,5.3518,5.3518,5.3518,5.3518,5.3518,5.3518,5.3518,5.3518,5.3518,5.3518,5.3518,5.3518,5.3518,5.3518,5.3518,5.3518,5.3518,0.0,0.0,0.0,0.0,0.0,0.0,0.0,0.0,0.0,0.0,0.0,0.0,3.8969,3.8919,3.8919,3.8919,3.8944,0.0,0.0,0.0,0.0,4.0896,4.2985,0.0,4.4312,4.6195,4.7222,4.7309,4.7309,4.7938,4.9209,4.8566,4.9284,5.102,4.9733,4.9209,4.9179,4.8506,4.8596,4.909,4.7818,4.7309,4.7309,4.7309,4.7309,4.7309,4.7309,4.7309,4.7309,4.7309,4.7409,4.7581,4.7624,4.7964,4.8521,0.0,0.0,0.0,5.2409,5.3507,5.46,5.4702,5.5277,5.6021,5.6765,5.7476,5.822,5.893,5.9066,5.9174,5.9392,5.9722,5.9938,5.9939,5.946,5.8944,5.8561,5.849,5.8348,5.7954,5.7881,5.7881,5.7881,5.7881,5.7881,5.7881,5.7171,5.6461,5.575,5.4972,5.4228,5.3518,5.3518,5.3518,5.3518,5.3518,5.3518,5.3518,5.3518,5.3518,5.3518,5.3518,5.3518,5.3518,5.3518,5.3518,5.3518,5.3518,5.3518,5.3518,5.3518,5.3518,5.3518,5.3518,5.3518,5.3518,0.0,0.0,0.0,0.0,0.0,0.0,0.0,0.0,0.0,0.0,0.0,0.0,0.0,3.9396,3.9498,3.9626,3.9855,0.0,0.0,0.0,0.0,4.2088,4.2889,4.3909,4.5235,4.5987,4.6638,4.7309,4.7309,4.7549,4.8027,4.8207,4.8656,4.9314,4.8835,4.891,4.9239,4.8117,4.7788,4.7967,4.7489,4.7309,4.7309,4.7309,4.7309,4.7309,4.7309,4.7309,4.7309,4.7309,4.7352,4.7439,4.7538,4.7709,4.8061,4.9197,5.0112,5.0989,5.202,5.272,5.337,5.4362,5.4803,5.5209,5.5953,5.6325,5.6562,5.6833,5.69,5.69,5.6972,5.8109,5.9042,5.9183,5.9081,5.8909,5.8701,5.8596,5.8419,5.8099,5.7954,5.7881,5.7881,5.7881,5.7679,5.7239,5.6528,5.5784,5.504,5.4296,5.3788,5.3518,5.3518,5.3518,5.3518,5.3518,5.3518,5.3518,5.3518,5.3518,5.3518,5.3518,5.3518,5.3518,5.3518,5.3518,5.3518,5.3518,5.3518,5.3518,5.3518,5.3518,5.3518,5.3518,5.3551,5.3617,0.0,0.0,0.0,0.0,0.0,0.0,0.0,0.0,0.0,4.0236,0.0,0.0,0.0,0.0,4.0032,4.0236,4.0389,4.0593,4.0896,4.0896,4.1445,4.2744,4.3129,4.4097,4.5779,4.6121,4.6638,4.7309,4.7309,4.7429,4.7638,4.8087,4.8506,4.8925,4.8476,4.8895,4.9853,4.8745,4.8416,4.8566,4.7908,4.7758,4.7938,4.7728,4.7638,4.7638,4.7638,4.7489,4.7309,4.7309,4.7309,4.7309,4.7482,4.7538,4.7794,4.879,4.9399,4.9994,5.1177,5.1878,5.2547,5.3576,5.4023,5.4431,5.5175,5.5344,5.5412,5.5683,5.5681,5.5681,5.5681,5.6742,5.7807,5.8255,5.8703,5.8944,5.8806,5.8631,5.8419,5.8207,5.8027,5.7881,5.7881,5.7679,5.734,5.6833,5.5886,5.5108,5.4634,5.389,5.3518,5.3518,5.3518,5.3518,5.3518,5.3518,5.3518,5.3518,5.3518,5.3518,5.3518,5.3518,5.3518,5.3518,5.3518,5.3518,5.3518,5.3518,5.3518,5.3518,5.3518,5.3518,5.3518,5.3518,5.3584,5.3717,0.0,0.0,0.0,0.0,0.0,0.0,0.0,0.0,4.0517,4.0517,0.0,0.0,0.0,0.0,0.0,4.0517,4.0491,4.0643,4.0896,4.0946,4.1495,4.2792,0.0,0.0,4.5824,4.677,4.7309,4.7309,4.7309,4.7638,4.8267,4.8267,4.8955,5.0076,4.8835,4.9344,5.1109,5.0405,5.0495,5.099,4.9045,4.8656,4.9209,4.8506,4.8267,4.8267,4.8267,4.7848,4.7309,4.7309,4.7309,4.7309,4.7309,4.7439,4.7709,4.8175,4.8862,4.9527,0.0,0.0,0.0,5.2272,5.2868,5.3653,5.4397,5.4566,5.4769,5.5513,5.5649,5.5649,5.5649,5.5823,5.6269,5.7157,5.8256,5.8909,5.8806,5.8631,5.8419,5.8207,5.8027,5.7881,5.7881,5.7239,5.6799,5.6765,5.5412,5.4566,5.4566,5.389,5.3518,5.3518,5.3518,5.3518,5.3518,5.3518,5.3518,5.3518,5.3518,5.3518,5.3518,5.3518,5.3518,5.3518,5.3518,5.3518,5.3518,5.3518,5.3518,5.3518,5.3518,5.3518,5.3518,5.3518,5.3584,5.3717,0.0,0.0,0.0,0.0,0.0,0.0,4.0744,4.0593,4.0542,0.0,0.0,0.0,4.0517,4.0643,4.0795,4.0795,4.0946,4.1097,4.1147,4.1842,4.2744,4.3843,4.4869,4.5853,4.6887,4.7149,4.7309,4.7309,4.7309,4.7399,4.7578,4.7578,4.8027,4.8805,4.8446,4.8865,4.9733,4.8596,4.8775,4.9673,4.8177,4.7967,4.8476,4.7818,4.7578,4.7578,4.7578,4.7459,4.7309,4.7309,4.7309,4.7309,4.7309,4.7439,4.7624,4.7752,4.8187,4.878,4.9439,0.0,0.0,0.0,0.0,0.0,5.3618,5.3788,5.3856,5.4059,5.4126,5.4126,5.4126,5.4703,5.5281,5.5553,5.685,5.8015,5.8527,5.8419,5.8277,5.8241,5.8027,5.7881,5.7881,5.7239,5.6596,5.6055,5.5141,5.4363,5.3822,5.3619,5.3518,5.3518,5.3518,5.3518,5.3518,5.3518,5.3518,5.3518,5.3518,5.3518,5.3518,5.3518,5.3518,5.3518,5.3518,5.3518,5.3518,5.3518,5.3518,5.3518,5.3518,5.3518,5.3518,5.3518,5.3685,5.3915,0.0,0.0,0.0,0.0,0.0,4.2137,4.2257,4.2159,4.2137,0.0,0.0,0.0,4.2088,4.2208,4.2306,4.2306,4.2479,4.2528,4.2528,4.3081,4.3862,4.4869,4.5508,4.6255,4.7266,4.7309,4.7309,4.7309,4.7309,4.7309,4.7309,4.7309,4.7519,4.7878,4.7878,4.8237,4.882,4.7758,4.8057,4.9209,4.8147,4.8117,4.8626,4.7967,4.7728,4.7728,4.7728,4.7728,4.7668,4.7399,4.7309,4.7309,4.7309,4.7396,4.7495,4.7581,4.7794,4.8145,4.8821,4.9358,4.9994,5.1065,0.0,0.0,5.2834,5.2972,5.3076,5.3416,5.3518,5.3518,5.3518,5.3957,5.4398,5.4703,5.5587,5.6643,5.7875,5.8144,5.8171,5.8171,5.8027,5.7881,5.7881,5.6934,5.6156,5.5715,5.4735,5.3957,5.3518,5.3518,5.3518,5.3518,5.3518,5.3518,5.3518,5.3518,5.3518,5.3518,5.3518,5.3518,5.3518,5.3518,5.3518,5.3518,5.3518,5.3518,5.3518,5.3518,5.3518,5.3518,5.3518,5.3518,5.3518,5.3551,5.3784,5.4013,0.0,0.0,4.4312,4.4312,4.4312,4.4312,4.4312,4.4312,4.4312,0.0,4.4312,4.4312,4.4312,4.4312,4.4312,4.4312,4.4312,4.4312,4.4312,4.4406,4.4869,4.5779,4.5913,4.6388,4.7266,4.7309,4.7309,4.7309,4.7309,4.7309,4.7309,4.7309,4.7309,4.7309,4.7309,4.7638,4.8147,4.7549,4.7967,4.906,4.8416,4.8566,4.912,4.8416,4.8177,4.8177,4.8177,4.8177,4.8087,4.7489,4.7309,4.7309,4.7309,4.7309,4.7352,4.7495,4.7581,4.7709,4.8133,4.878,4.9439,4.9789,5.0384,0.0,5.1951,5.2236,5.2485,5.3212,5.3416,5.3518,5.3518,5.3518,5.3721,5.4363,5.46,5.5314,5.6985,5.7664,5.8033,5.8033,5.7957,5.7881,5.7881,5.663,5.5818,5.5716,5.4329,5.3518,5.3518,5.3518,5.3518,5.3518,5.3518,5.3518,5.3518,5.3518,5.3518,5.3518,5.3518,5.3518,5.3518,5.3518,5.3518,5.3518,5.3518,5.3518,5.3518,5.3518,5.3518,5.3518,5.3518,5.3518,5.3551,5.3651,5.3816,5.4013,0.0,0.0,4.4312,4.4312,4.4312,4.4312,4.4312,4.4312,4.4312,4.4312,4.4312,4.4312,4.4312,4.4312,4.4312,4.4312,4.4312,4.4312,4.4312,4.5052,4.5598,4.5779,4.6594,4.7106,4.7309,4.7309,4.7309,4.7309,4.7309,4.7309,4.7309,4.7309,4.7309,4.7309,4.7309,4.7369,4.7489,4.7369,4.7459,4.7668,4.7549,4.7908,4.8416,4.7758,4.7489,4.7489,4.7489,4.7489,4.7489,4.7339,4.7309,4.7309,4.7309,4.7309,4.7309,4.7352,4.7452,4.7624,4.7709,4.8007,4.849,4.9358,4.9686,0.0,5.1107,5.1842,5.2343,5.2485,5.3041,5.3518,5.3518,5.3518,5.3551,5.3687,5.4735,5.5615,5.5956,5.6633,5.7074,5.7074,5.7579,5.7881,5.7881,5.7103,5.6359,5.575,5.4329,5.3518,5.3518,5.3518,5.3518,5.3518,5.3518,5.3518,5.3518,5.3518,5.3518,5.3518,5.3518,5.3518,5.3518,5.3518,5.3518,5.3518,5.3518,5.3518,5.3518,5.3518,5.3518,5.3518,5.3518,5.3518,5.3551,5.3651,5.3816,5.4013,4.5808,4.5808,4.5808,4.5808,4.5808,4.5808,4.5808,4.5808,4.5808,4.5808,4.5808,4.5808,4.5808,4.5808,4.5808,4.5808,4.5808,4.5808,4.5808,4.6255,4.655,4.655,4.7019,4.7309,4.7309,4.7309,4.7309,4.7309,4.7309,4.7309,4.7309,4.7309,4.7309,4.7309,4.7309,4.7309,4.7309,4.7309,4.7309,4.7309,4.7309,4.7489,4.7758,4.7429,4.7309,4.7309,4.7309,4.7309,4.7369,4.7698,4.7788,4.7728,4.7399,4.7519,4.7728,4.7399,4.7396,4.7452,4.7581,4.7709,4.7964,4.8573,4.878,0.0,0.0,5.0621,5.107,5.1623,5.2343,5.2903,5.2903,5.3246,5.3518,5.3518,5.4126,5.46,5.46,5.619,5.734,5.734,5.7679,5.7881,5.7881,5.7239,5.6494,5.5784,5.4668,5.4059,5.4059,5.3687,5.3518,5.3518,5.3518,5.3518,5.3518,5.3518,5.3518,5.3518,5.3518,5.3518,5.3518,5.3518,5.3518,5.3518,5.3518,5.3518,5.3518,5.3518,5.3518,5.3518,5.3518,5.3518,5.3551,5.375,5.3915,5.4013,4.7309,4.7309,4.7309,4.7309,4.7309,4.7309,4.7309,4.7309,4.7309,4.7309,4.7429,4.7489,4.7489,4.7489,4.7549,4.7668,4.7459,4.7369,4.7489,4.7369,4.7309,4.7309,4.7309,4.7309,4.7309,4.7309,4.7309,4.7309,4.7309,4.7309,4.7309,4.7309,4.7309,4.7309,4.7309,4.7309,4.7309,4.7309,4.7309,4.7309,4.7309,4.7309,4.7309,4.7309,4.7309,4.7309,4.7309,4.7309,4.7399,4.7908,4.8087,4.7997,4.7489,4.7668,4.7997,4.7459,4.7309,4.7352,4.7525,4.7538,4.7581,4.7837,4.7922,4.8145,0.0,0.0,0.0,5.0583,5.1443,5.2128,5.2272,5.2834,5.3314,5.345,5.3619,5.3721,5.3721,5.5886,5.7408,5.7273,5.7374,5.7509,5.7679,5.7036,5.6393,5.5953,5.4972,5.4431,5.4566,5.389,5.3518,5.3518,5.3518,5.3518,5.3518,5.3518,5.3518,5.3518,5.3518,5.3518,5.3518,5.3518,5.3518,5.3518,5.3518,5.3518,5.3518,5.3518,5.3518,5.3518,5.3518,5.3551,5.3584,5.3882,5.4013,5.411,4.7309,4.7309,4.7309,4.7309,4.7309,4.7309,4.7309,4.7309,4.7309,4.7309,4.7818,4.8177,4.8177,4.8177,4.8416,4.903,4.7967,4.7549,4.8147,4.7638,4.7309,4.7309,4.7309,4.7309,4.7309,4.7309,4.7309,4.7309,4.7309,4.7309,4.7309,4.7309,4.7309,4.7309,4.7309,4.7309,4.7309,4.7309,4.7309,4.7309,4.7309,4.7309,4.7309,4.7309,4.7309,4.7309,4.7309,4.7309,4.7309,4.7399,4.7429,4.7399,4.7339,4.7369,4.7399,4.7339,4.7309,4.7309,4.7352,4.7352,4.7396,4.7581,4.7624,4.7752,4.8091,0.0,4.9527,4.9647,0.0,5.1443,5.2164,0.0,0.0,5.3382,5.4059,5.4465,5.4465,5.5344,5.5716,5.504,5.5547,5.6224,5.6867,5.6258,5.6089,5.663,5.4769,5.3923,5.4566,5.389,5.3518,5.3518,5.3518,5.3518,5.3518,5.3518,5.3518,5.3518,5.3518,5.3518,5.3518,5.3518,5.3518,5.3518,5.3518,5.3518,5.3518,5.3518,5.3518,5.3518,5.3518,5.3584,5.3717,5.3915,5.4078,5.4269,4.7309,4.7309,4.7309,4.7309,4.7309,4.7309,4.7309,4.7309,4.7309,4.7309,4.7549,4.7728,4.7728,4.7728,4.7967,4.8626,4.7848,4.7578,4.8237,4.7668,4.7309,4.7309,4.7309,4.7309,4.7309,4.7309,4.7309,4.7309,4.7309,4.7309,4.7309,4.7309,4.7309,4.7309,4.7309,4.7309,4.7309,4.7309,4.7309,4.7309,4.7309,4.7309,4.7309,4.7309,4.7309,4.7309,4.7309,4.7309,4.7309,4.7309,4.7549,4.7818,4.7429,4.7578,4.7788,4.7429,4.7309,4.7309,4.7309,4.7309,4.7309,4.7396,4.7439,4.7495,4.7709,4.8103,4.8449,4.8615,0.0,0.0,0.0,0.0,0.0,0.0,5.3448,5.3957,5.3957,5.4228,5.4634,5.5175,5.5513,5.5817,5.6156,5.6292,5.6292,5.619,5.531,5.4735,5.46,5.389,5.3518,5.3518,5.3518,5.3518,5.3518,5.3518,5.3518,5.3518,5.3518,5.3518,5.3518,5.3518,5.3518,5.3518,5.3518,5.3518,5.3518,5.3518,5.3518,5.3518,5.3518,5.3584,5.3717,5.3915,5.4301,5.4799,4.7495,4.7396,4.7309,4.7309,4.7309,4.7309,4.7309,4.7309,4.7309,4.7309,4.7459,4.7638,4.7818,4.7848,4.8177,4.9015,4.8327,4.8027,4.8506,4.7938,4.7489,4.7309,4.7309,4.7309,4.7309,4.7309,4.7309,4.7309,4.7309,4.7309,4.7309,4.7309,4.7409,4.7666,4.7439,4.7529,4.7895,4.7908,4.8028,4.8179,4.8179,4.7959,4.7549,4.7369,4.7309,4.7309,4.7309,4.7309,4.7309,4.7309,4.7608,4.7938,4.7459,4.7638,4.7908,4.7429,4.7309,4.7309,4.7309,4.7309,4.7309,4.7309,4.7309,4.7352,4.7452,4.7538,4.7666,4.7837,4.8532,0.0,0.0,0.0,5.1663,5.2131,0.0,5.3246,5.3484,5.3518,5.389,5.4972,5.5277,5.5412,5.5412,5.5886,5.6055,5.575,5.5344,5.4972,5.46,5.389,5.3518,5.3518,5.3518,5.3518,5.3518,5.3518,5.3518,5.3518,5.3518,5.3518,5.3518,5.3518,5.3518,5.3518,5.3518,5.3518,5.3518,5.3518,5.3518,5.3518,5.3518,5.3618,5.3816,5.3948,5.4457,5.5124,4.7964,4.7581,4.7309,4.7309,4.7309,4.7309,4.7309,4.7309,4.7309,4.7309,4.7848,4.8506,4.9179,4.9239,4.9733,5.102,4.9942,4.9269,4.9269,4.8626,4.7967,4.7339,4.7309,4.7309,4.7309,4.7309,4.7309,4.7309,4.7309,4.7309,4.7309,4.7309,4.7752,4.8532,4.7666,4.8084,4.9443,4.9497,4.9909,5.0482,5.0482,4.9626,4.8177,4.7549,4.7309,4.7309,4.7309,4.7309,4.7309,4.7309,4.7309,4.7339,4.7309,4.7309,4.7339,4.7309,4.7309,4.7309,4.7309,4.7309,4.7309,4.7309,4.7309,4.7309,4.7309,4.7482,4.7581,4.7624,4.7837,4.8271,4.9066,4.9439,5.0087,5.1667,5.2167,0.0,0.0,5.3518,5.3518,5.3551,5.4194,5.4634,5.4634,5.4634,5.4938,5.5683,5.4397,5.389,5.4566,5.389,5.3518,5.3518,5.3518,5.3518,5.3518,5.3518,5.3518,5.3518,5.3518,5.3518,5.3518,5.3518,5.3518,5.3518,5.3518,5.3518,5.3518,5.3518,5.3518,5.3518,5.3518,5.3685,5.398,5.398,5.4457,5.5184,4.8007,4.788,4.7752,4.7752,4.7752,4.7752,4.7752,4.7752,4.8084,4.8961,4.9131,4.9389,5.0095,5.0004,5.0092,5.0495,4.9763,4.9464,4.9883,4.8895,4.8177,4.7967,4.7549,4.7309,4.7309,4.7309,4.7309,4.7309,4.7309,4.7581,4.8187,4.8187,4.8615,4.9367,4.9116,4.9241,4.9703,5.0254,5.0316,5.0056,5.0056,4.9677,4.8974,4.7765,4.7309,4.7309,4.7309,4.7309,4.7309,4.7309,4.7309,4.7309,4.7309,4.7309,4.7309,4.7309,4.7309,4.7309,4.7309,4.7309,4.7429,4.7848,4.7638,4.7429,4.7848,4.7652,4.7396,4.7396,4.7581,4.7837,4.8103,4.878,4.9479,5.0041,5.1187,5.2134,0.0,5.3076,5.3518,5.3518,5.3721,5.3856,5.3856,5.3856,5.3991,5.4228,5.3788,5.3619,5.3856,5.3653,5.3518,5.3518,5.3518,5.3518,5.3518,5.3518,5.3518,5.3518,5.3518,5.3518,5.3518,5.3518,5.3518,5.3518,5.3518,5.3518,5.3518,5.3518,5.3518,5.3518,5.3518,5.3848,5.4422,5.4551,5.5129,5.6019,4.8248,4.8438,4.8521,4.8091,4.8007,4.8007,4.8007,4.8219,4.8766,4.986,5.0061,5.0442,5.1318,5.109,5.0968,5.1162,5.0515,5.0125,5.014,4.9404,4.882,4.8429,4.8131,4.7908,4.7668,4.7725,4.7779,4.7849,4.7934,4.8407,4.9206,4.9206,4.9686,5.0435,5.008,5.0207,5.0767,5.1175,5.1231,5.1001,5.0753,5.0357,4.9843,4.8653,4.814,4.8054,4.7812,4.7764,4.7709,4.7396,4.7309,4.7309,4.7309,4.7309,4.7309,4.7309,4.7309,4.7309,4.7309,4.7309,4.7399,4.7848,4.7608,4.7429,4.7848,4.7608,4.7309,4.7309,4.7396,4.7495,4.7495,4.8103,4.8738,4.9035,5.0165,5.1266,0.0,5.287,5.3518,5.3518,5.3518,5.3518,5.3518,5.3518,5.3382,5.3078,5.3078,5.3078,5.3078,5.3078,5.3213,5.3484,5.3518,5.3518,5.3518,5.3518,5.3518,5.3518,5.3518,5.3518,5.3518,5.3518,5.3518,5.3518,5.3518,5.3518,5.3518,5.3518,5.3518,5.3518,5.3551,5.3913,5.4422,5.4765,5.5594,5.6731,4.8882,4.939,4.959,4.8355,4.8133,4.8091,4.8049,4.8688,4.9387,5.0056,5.0786,5.1683,5.3006,5.2534,5.2382,5.2973,5.2241,5.1288,5.0241,5.0246,4.9794,4.8769,4.9104,4.903,4.8401,4.8561,4.8688,4.8872,4.9075,4.9607,5.0435,5.0435,5.0892,5.1634,5.0665,5.1051,5.2411,5.2362,5.2702,5.324,5.2539,5.1713,5.0857,5.0169,4.9806,4.955,4.8872,4.8656,4.8532,4.7709,4.7396,4.7352,4.7352,4.7352,4.7309,4.7309,4.7309,4.7309,4.7309,4.7309,4.7309,4.7339,4.7339,4.7309,4.7339,4.7339,4.7309,4.7309,4.7309,4.7309,4.7309,4.7482,4.7849,4.8594,4.9206,5.0197,5.2023,5.2972,5.3518,5.3518,5.345,5.345,5.3518,5.345,5.3078,5.2367,5.2266,5.2266,5.23,5.2334,5.2706,5.3484,5.3518,5.3518,5.3518,5.3518,5.3518,5.3518,5.3518,5.3518,5.3518,5.3518,5.3518,5.3518,5.3518,5.3518,5.3518,5.3518,5.3518,5.3484,5.3617,5.3849,5.4175,5.4769,5.5907,5.7216,5.0589,5.0653,5.0691,5.0384,4.9797,4.9188,4.8521,4.991,5.123,5.1904,5.33,5.4321,5.4735,5.4453,5.4114,5.3763,5.3503,5.3078,5.2275,5.1789,5.1198,5.0425,5.0017,4.9744,4.9593,4.9122,4.9231,4.9822,4.9406,4.9923,5.1303,5.1303,5.174,5.2555,5.231,5.2373,5.285,5.3732,5.4439,5.4881,5.3601,5.2878,5.2506,5.1927,5.1631,5.1263,4.9939,4.9487,4.9447,4.9206,4.8749,4.824,4.824,4.7807,4.7309,4.7309,4.7309,4.7309,4.7309,4.7309,4.7429,4.7908,4.7668,4.7429,4.7908,4.7668,4.7309,4.7309,4.7309,4.7309,4.7309,4.7352,4.7409,4.7636,4.9085,5.0659,5.2128,5.2972,5.3518,5.3518,5.2976,5.2841,5.345,5.2469,5.1928,5.2266,5.1792,5.1725,5.2266,5.2875,5.3281,5.3484,5.3518,5.3518,5.3518,5.3518,5.3518,5.3518,5.3518,5.3518,5.3518,5.3518,5.3518,5.3518,5.3518,5.3518,5.3518,5.3518,5.3518,5.3518,5.3517,5.4267,5.5326,5.5766,5.6731,5.7797,5.1237,5.1369,5.1623,5.1623,5.2037,5.1859,5.0288,5.0798,5.1685,5.2589,5.3822,5.471,5.5095,5.5228,5.5132,5.4765,5.4365,5.3938,5.336,5.2748,5.2215,5.1561,5.1151,5.0741,5.0423,4.9887,4.9993,5.0857,5.0311,5.0849,5.2418,5.2418,5.2662,5.3178,5.3076,5.3041,5.3074,5.3703,5.4125,5.4349,5.3521,5.3132,0.0,5.271,5.2536,5.2327,5.1382,5.0767,5.0306,4.9923,4.9487,4.9116,4.9116,4.8573,4.7849,4.7849,4.7581,4.7309,4.7309,4.7309,4.7399,4.7758,4.7578,4.7399,4.7788,4.7578,4.7309,4.7309,4.7309,4.7352,4.7439,4.7352,4.7396,4.7538,4.9166,5.0735,5.1659,5.2799,5.3518,5.3518,5.3112,5.301,5.345,5.2131,5.1522,5.2232,5.1623,5.1522,5.2266,5.2739,5.3145,5.3484,5.3518,5.3518,5.3518,5.3518,5.3518,5.3518,5.3518,5.3518,5.3518,5.3518,5.3518,5.3518,5.3518,5.3518,5.3518,5.3518,5.3685,5.3913,5.433,5.5238,5.634,5.6563,5.7227,5.7997,5.1569,5.2086,5.2582,5.2483,5.428,5.5051,5.2972,5.239,5.2503,5.3344,5.4216,5.4961,5.5411,5.5875,5.6277,5.6481,5.5594,5.4869,5.4512,5.3883,5.3346,5.2835,5.2657,5.2245,5.1584,5.1054,5.1247,5.2017,5.1502,5.2023,5.3518,5.3518,5.3518,5.3518,5.3314,5.328,5.3313,5.3141,5.3104,5.3205,5.3104,5.3037,5.3037,5.2937,5.2903,5.2868,5.2694,5.2056,5.1177,5.0422,5.0041,4.9962,4.9962,4.9439,4.8749,4.879,4.8187,4.7495,4.7495,4.7409,4.7352,4.7309,4.7309,4.7309,4.7309,4.7309,4.7309,4.7309,4.7309,4.7366,4.7709,4.7752,4.7837,4.8133,4.9527,5.0773,5.1182,5.2555,5.3518,5.3518,5.3416,0.0,5.3484,5.2198,5.1623,5.2266,5.1725,5.1589,5.2131,5.2367,5.2739,5.3315,5.345,5.3518,5.3518,5.3518,5.3518,5.3518,5.3518,5.3518,5.3518,5.3518,5.3518,5.3518,5.3518,5.3518,5.3518,5.3518,5.3882,5.4516,5.5507,5.6376,5.7065,5.7166,5.7522,5.7997,5.3344,5.3683,5.4023,5.3382,5.51,5.6556,5.6593,5.8004,5.8744,5.7764,5.9189,6.0141,5.9691,5.9012,5.919,6.061,5.9251,5.8415,5.8631,5.7254,5.6157,5.5686,5.5455,5.5114,5.4576,5.392,5.3693,5.3931,5.2683,5.2555,5.3518,5.3518,5.3518,5.3518,5.345,5.3686,5.4121,5.4086,5.4317,5.4642,5.404,5.3805,5.3738,5.3138,5.2903,5.2903,5.2868,5.2624,5.2305,5.2053,5.1471,5.0876,5.0876,5.0267,4.9607,4.9773,4.9247,4.8615,4.8543,4.803,4.7495,4.7352,4.7309,4.7309,4.7309,4.7309,4.7309,4.7309,4.7309,4.7581,4.846,4.9256,4.9686,4.9075,5.0474,5.174,5.2023,5.2903,5.3518,5.3518,5.2909,5.2773,5.345,5.2672,5.2164,5.23,5.2198,5.1894,5.142,5.2604,5.3044,5.2536,5.3145,5.3518,5.3518,5.3518,5.3518,5.3518,5.3518,5.3518,5.3518,5.3518,5.3518,5.3518,5.3518,5.3518,5.3518,5.3518,5.3882,5.4548,5.5851,5.6546,5.6835,5.7449,5.7797,5.7997,5.4803,5.4634,5.4837,5.5649,5.7306,5.8984,6.0409,6.2524,6.2769,5.9664,6.0108,6.0594,6.027,6.0393,6.0913,6.1737,6.0715,5.9884,5.9663,5.8514,5.7602,5.6931,5.6841,5.6552,5.5904,5.5191,5.4711,5.4423,5.3367,5.3096,5.3518,5.3518,5.3518,5.3518,5.3518,5.3619,5.3922,5.4293,5.4359,5.4254,5.4289,5.4087,5.3717,5.3347,5.3212,5.3212,5.3076,5.3007,5.2868,5.2727,5.2376,5.202,5.1911,5.1369,5.0741,5.0773,5.0274,4.9686,4.9615,4.9287,4.8841,4.879,4.8666,4.8584,4.8584,4.8666,4.8749,4.8749,4.8841,4.9044,4.9536,4.9773,4.9962,4.9962,5.0735,5.1521,5.22,5.2972,5.3518,5.3518,5.2807,5.2604,5.3416,5.2773,5.23,5.23,5.23,5.1995,5.1251,5.2672,5.3145,5.2334,5.3078,5.3518,5.3518,5.3518,5.3518,5.3518,5.3518,5.3518,5.3518,5.3518,5.3518,5.3518,5.3518,5.3518,5.3551,5.4267,5.4944,5.5709,5.6757,5.7252,5.7401,5.775,5.795,5.7997,5.6156,5.5818,5.6122,5.8017,5.9742,6.1434,6.326,6.5392,6.5404,6.1554,6.1054,6.1054,6.1054,6.1807,6.2468,6.2823,6.186,6.1066,6.0684,5.9663,5.8847,5.8264,5.8269,5.7845,5.6996,5.6439,5.5665,5.4682,5.3986,5.3673,5.3721,5.3585,5.3518,5.3518,5.3518,5.3518,5.3551,5.4126,5.4126,5.3788,5.4363,5.4262,5.3721,5.3721,5.3653,5.3484,5.3314,5.3247,5.3246,5.3076,5.2972,5.2868,5.2694,5.231,5.1849,5.1773,5.1294,5.0773,5.0703,5.0474,5.0204,5.0165,5.0048,4.9923,4.9923,5.0048,5.0165,5.0165,5.0474,5.0665,5.0435,5.0358,5.0474,5.0887,5.115,5.159,5.2449,5.3109,5.3518,5.3518,5.2942,5.2739,5.3213,5.2841,5.2435,5.2097,5.2198,5.1995,5.1251,5.2503,5.2875,5.2097,5.301,5.3518,5.3518,5.3518,5.3518,5.3518,5.3518,5.3518,5.3518,5.3518,5.3518,5.3518,5.3518,5.3551,5.3783,5.5124,5.6075,5.6704,5.7461,5.7834,5.795,5.795,5.7973,5.7997,5.7543,5.8186,5.8863,5.9742,6.1738,6.326,6.3497,6.5392,6.6432,6.5286,6.5151,6.5151,6.5151,6.4457,6.4617,6.617,6.4214,6.3221,6.4091,6.2016,6.0835,6.0925,6.0784,6.007,5.877,5.8706,5.7665,5.5576,5.4834,5.4464,5.4465,5.3822,5.3518,5.3518,5.3518,5.3518,5.3518,5.3585,5.3957,5.4499,5.4566,5.4566,5.4499,5.4499,5.4093,5.3518,5.3484,5.345,5.345,5.345,5.3212,5.2903,5.2868,5.2834,5.2834,5.3007,5.2485,5.1809,5.1776,5.1192,5.0589,5.0397,5.0358,5.032,5.032,5.0358,5.0358,5.0358,5.1117,5.1488,5.055,5.1882,5.2835,5.1921,5.2592,5.328,5.3348,5.345,5.3518,5.3518,5.345,5.3145,5.2469,5.301,5.2807,5.1388,5.1928,5.1995,5.1251,5.1961,5.2063,5.1352,5.2739,5.3518,5.3518,5.3518,5.3518,5.3518,5.3518,5.3518,5.3518,5.3518,5.3518,5.3518,5.3518,5.3816,5.4422,5.5716,5.6366,5.6582,5.7213,5.7583,5.7834,5.7834,5.7904,5.7997,6.052,6.0486,6.0892,6.2516,6.3193,6.3971,6.529,6.6237,6.6711,6.6406,6.6373,6.6373,6.6373,6.6002,6.6018,6.6736,6.5093,6.3967,6.393,6.2603,6.1688,6.1332,6.1223,6.0914,6.0419,5.9471,5.8152,5.6359,5.5615,5.4803,5.3923,5.3653,5.3518,5.3518,5.3518,5.3518,5.3551,5.3957,5.4329,5.4634,5.5074,5.5006,5.46,5.46,5.4126,5.3518,5.3518,5.3518,5.3518,5.3518,5.3382,5.3246,5.311,5.3144,5.3246,5.3213,5.3041,5.2903,5.287,5.2522,5.217,5.2098,5.199,5.1882,5.1882,5.199,5.2062,5.2062,5.2487,5.2765,5.2345,5.2555,5.2799,5.2835,5.28,5.2938,5.3416,5.3518,5.3518,5.3518,5.2706,5.2164,5.23,5.2198,5.2063,5.1894,5.257,5.2503,5.1252,5.1894,5.2164,5.1894,5.2469,5.301,5.3518,5.3518,5.3518,5.3518,5.3518,5.3518,5.3518,5.3518,5.3684,5.4076,5.4457,5.4978,5.5601,5.6248,5.6793,5.7177,5.7607,5.7834,5.7927,5.7927,5.795,5.7997,6.2956,6.2618,6.2888,6.4918,6.4816,6.5019,6.6576,6.6812,6.6812,6.6812,6.6812,6.6812,6.6812,6.6812,6.6711,6.6508,6.5324,6.4309,6.3565,6.2821,6.2144,6.1637,6.1434,6.1197,6.096,5.9674,5.8287,5.6799,5.6089,5.5175,5.416,5.3923,5.3822,5.3822,5.3822,5.3822,5.3856,5.4363,5.46,5.4634,5.5175,5.5074,5.46,5.46,5.4126,5.3518,5.3518,5.3518,5.3518,5.3518,5.3518,5.3484,5.3348,5.3382,5.345,5.3348,5.3382,5.3518,5.3518,5.3382,5.3314,5.3314,5.3179,5.3109,5.3109,5.3212,5.3314,5.3314,5.3382,5.3518,5.3518,5.304,5.2834,5.3382,5.3007,5.2868,5.3416,5.3518,5.3518,5.3518,5.2536,5.1995,5.2266,5.1826,5.1657,5.1961,5.2503,5.2367,5.1285,5.1894,5.2198,5.1995,5.2435,5.2942,5.3484,5.3518,5.3518,5.3518,5.3518,5.3517,5.3551,5.3783,5.4011,5.4232,5.5337,5.5887,5.6111,5.6704,5.7227,5.7691,5.7881,5.7973,5.7997,5.7997,5.7997,5.7997,6.4275,6.458,6.5019,6.6508,6.6779,6.6779,6.6812,6.6812,6.6812,6.6812,6.6812,6.6812,6.6812,6.6812,6.6508,6.5764,6.5019,6.4309,6.3565,6.2821,6.2381,6.2381,6.167,6.0926,6.0148,5.9404,5.8287,5.6799,5.6089,5.5716,5.5683,5.4938,5.4566,5.4566,5.4566,5.4566,5.4566,5.46,5.46,5.46,5.46,5.46,5.46,5.46,5.4126,5.3518,5.3518,5.3518,5.3518,5.3518,5.3518,5.3518,5.3518,5.3518,5.3518,5.3518,5.3518,5.3518,5.3518,5.3518,5.3518,5.3518,5.3518,5.3518,5.3518,5.3518,5.3518,5.3518,5.3518,5.3518,5.3518,5.3518,5.3518,5.3518,5.3518,5.3518,5.3518,5.3518,5.3518,5.3518,5.3484,5.3179,5.2367,5.23,5.1995,5.1252,5.1219,5.1219,5.1185,5.1894,5.1961,5.1251,5.2706,5.3484,5.3518,5.3518,5.3518,5.3518,5.3518,5.3584,5.375,5.452,5.4457,5.3815,5.5823,5.624,5.5645,5.7015,5.7655,5.781,5.781,5.7881,5.7997,5.7997,5.7997,5.7997,6.6034,6.6102,6.6271,6.6745,6.6812,6.6812,6.6812,6.6812,6.6812,6.6812,6.6812,6.6812,6.6812,6.6812,6.6508,6.5764,6.5019,6.4309,6.3565,6.2821,6.2381,6.2381,6.1163,6.0622,6.0926,5.9167,5.8017,5.7543,5.6799,5.619,5.5647,5.4938,5.46,5.4566,5.4059,5.3856,5.3856,5.3856,5.4126,5.46,5.46,5.46,5.46,5.46,5.4126,5.3518,5.3518,5.3518,5.3518,5.3518,5.3518,5.3518,5.3518,5.3518,5.3518,5.3518,5.3518,5.3518,5.3518,5.3856,5.4126,5.3619,5.389,5.4126,5.3619,5.3518,5.3518,5.3518,5.3518,5.3518,5.3518,5.3518,5.3518,5.3518,5.3518,5.3518,5.3518,5.3518,5.3518,5.3518,5.301,5.257,5.2334,5.23,5.2198,5.1961,5.2469,5.2334,5.1285,5.142,5.1691,5.1961,5.2435,5.2942,5.3484,5.3518,5.3518,5.3518,5.3518,5.3783,5.4359,5.5154,5.5536,5.5652,5.6809,5.7127,5.6835,5.7486,5.7786,5.781,5.7904,5.7973,5.7997,5.7997,5.7997,5.7997,6.6812,6.6812,6.6812,6.6812,6.6812,6.6812,6.6812,6.6812,6.6812,6.6812,6.6812,6.6812,6.6812,6.6812,6.6406,6.5358,6.4613,6.3869,6.3159,6.2651,6.2381,6.2381,6.1197,6.0791,6.1298,5.9607,5.8592,5.8321,5.7577,5.6833,5.6122,5.5378,5.5006,5.4972,5.4228,5.3923,5.3923,5.3923,5.4025,5.4194,5.4194,5.4194,5.4194,5.4194,5.389,5.3518,5.3518,5.3518,5.3518,5.3518,5.3687,5.3923,5.3923,5.3923,5.3856,5.3585,5.3518,5.3518,5.3518,5.3822,5.4059,5.3619,5.4059,5.4465,5.4025,5.3687,5.3518,5.3518,5.3518,5.3518,5.3518,5.3518,5.3518,5.3518,5.3518,5.3518,5.3518,5.3518,5.3518,5.3518,5.3078,5.2739,5.2739,5.2469,5.2198,5.1928,5.2367,5.2097,5.0845,5.1623,5.2131,5.23,5.2604,5.2976,5.3518,5.3518,5.3518,5.3518,5.3618,5.3948,5.4422,5.5507,5.5964,5.6055,5.7227,5.751,5.7152,5.7655,5.7857,5.7834,5.795,5.7997,5.7997,5.7997,5.7997,5.7997,6.6812,6.6812,6.6812,6.6812,6.6812,6.6812,6.6812,6.6812,6.6779,6.6745,6.6745,6.6711,6.6677,6.6609,6.6034,6.4647,6.3937,6.326,6.2516,6.2415,6.2381,6.2381,6.167,6.1298,6.1298,6.052,5.9742,5.9032,5.8321,5.7611,5.6934,5.6224,5.5852,5.575,5.4938,5.4566,5.4499,5.4499,5.4126,5.3518,5.3518,5.3518,5.3518,5.3518,5.3518,5.3518,5.3518,5.3551,5.3585,5.3585,5.4059,5.4668,5.4668,5.4668,5.4532,5.3788,5.3551,5.3518,5.3518,5.3551,5.3551,5.3518,5.4025,5.4532,5.4566,5.4025,5.3518,5.3518,5.3518,5.3518,5.3518,5.3518,5.3518,5.3518,5.3518,5.3518,5.3518,5.3518,5.3518,5.3518,5.3518,5.3518,5.3518,5.2807,5.2097,5.1388,5.1386,5.1082,5.0371,5.2334,5.3145,5.2334,5.3078,5.3518,5.3518,5.3518,5.3518,5.3518,5.385,5.4045,5.4173,5.5658,5.5907,5.5391,5.7216,5.7522,5.6835,5.7679,5.7927,5.7834,5.795,5.7997,5.7997,5.7997,5.7997,5.7997,6.6812,6.6812,6.6812,6.6812,6.6812,6.6812,6.6812,6.6812,6.6609,6.6034,6.5967,6.573,6.5189,6.4613,6.414,6.3802,6.414,6.4038,6.3294,6.2719,6.2381,6.2381,6.167,6.1298,6.1298,6.052,5.9742,5.9032,5.8829,5.866,5.8457,5.7712,5.707,5.6494,5.5175,5.4296,5.3754,5.3754,5.3653,5.3518,5.3518,5.3518,5.3518,5.3518,5.3518,5.3518,5.3518,5.3856,5.4329,5.4329,5.4837,5.5446,5.5446,5.5446,5.531,5.4566,5.3923,5.3518,5.3518,5.3923,5.4194,5.3653,5.3619,5.3923,5.4465,5.4025,5.3518,5.3518,5.3518,5.3518,5.3518,5.3518,5.3518,5.3518,5.3518,5.3518,5.3518,5.3518,5.3518,5.3518,5.3518,5.3518,5.3518,5.3348,5.3145,5.2976,5.2976,5.2875,5.2706,5.3213,5.3145,5.2334,5.3078,5.3518,5.3518,5.3518,5.3518,5.3518,5.385,5.4457,5.5326,5.5991,5.6625,5.7166,5.775,5.7797,5.7559,5.7881,5.7973,5.795,5.7997,5.7997,5.7997,5.7997,5.7997,5.7997,6.6812,6.6812,6.6812,6.6812,6.6812,6.6812,6.6812,6.6812,6.6542,6.5797,6.5696,6.5425,6.4681,6.4241,6.4005,6.4005,6.3768,6.3429,6.3024,6.2618,6.2381,6.2381,6.2009,6.1806,6.1806,6.1028,6.0283,5.9505,5.9167,5.9167,5.9505,5.8761,5.8186,5.7746,5.5919,5.4871,5.4465,5.3788,5.3518,5.3518,5.3518,5.3518,5.3518,5.3518,5.3518,5.3551,5.389,5.4262,5.46,5.46,5.531,5.6156,5.5818,5.5953,5.6122,5.5716,5.5074,5.4431,5.4093,5.4296,5.4499,5.4093,5.3991,5.4194,5.4938,5.4532,5.3991,5.3991,5.3721,5.3518,5.3518,5.3518,5.3518,5.3518,5.3518,5.3518,5.3518,5.3518,5.3518,5.3518,5.3518,5.3518,5.3518,5.3518,5.3348,5.2976,5.3281,5.3348,5.2976,5.3315,5.3315,5.2875,5.3281,5.3518,5.3518,5.3518,5.3517,5.3584,5.3849,5.452,5.5443,5.6019,5.6731,5.7498,5.7821,5.7927,5.7834,5.795,5.7973,5.7927,5.7973,5.7997,5.7997,5.7997,5.7997,5.7997,6.6812,6.6812,6.6812,6.6812,6.6812,6.6779,6.6677,6.6643,6.6339,6.5459,6.5358,6.5087,6.4343,6.4275,6.4275,6.4275,6.3125,6.2448,6.255,6.2448,6.2381,6.2381,6.2381,6.2381,6.2381,6.1569,6.0723,5.9945,5.9438,5.9505,6.008,5.9573,5.9302,5.9099,5.7103,5.5986,5.5649,5.4363,5.3721,5.3518,5.3518,5.3585,5.3687,5.3687,5.3754,5.3923,5.4532,5.4837,5.4938,5.4938,5.5852,5.6867,5.6258,5.6461,5.6968,5.6968,5.6461,5.5683,5.4837,5.4499,5.4465,5.4702,5.4668,5.4803,5.5683,5.531,5.4735,5.46,5.4093,5.3619,5.3518,5.3518,5.3518,5.3518,5.3518,5.3518,5.3518,5.3518,5.3518,5.3518,5.3518,5.3518,5.3518,5.3518,5.3213,5.2536,5.3112,5.3213,5.2536,5.3145,5.3517,5.3651,5.3551,5.3518,5.3518,5.3584,5.3684,5.3848,5.4141,5.4676,5.5391,5.6075,5.6731,5.7266,5.7774,5.795,5.7857,5.795,5.7927,5.7857,5.795,5.7997,5.7997,5.7997,5.7997,5.7997,6.6812,6.6812,6.6812,6.6812,6.6812,6.6609,6.5967,6.5865,6.5392,6.4038,6.3869,6.3565,6.2821,6.2719,6.2719,6.2719,6.2516,6.2651,6.3294,6.2753,6.2381,6.2381,6.2381,6.2381,6.2381,6.0994,5.9911,5.9167,5.9674,5.9979,6.0114,6.0689,6.0588,5.9877,5.893,5.7476,5.5716,5.548,5.4634,5.3518,5.3518,5.3856,5.4431,5.4431,5.4803,5.5343,5.5513,5.5953,5.6461,5.6461,5.7002,5.7712,5.7577,5.7645,5.7712,5.7712,5.7205,5.6325,5.4972,5.416,5.3991,5.5243,5.5074,5.4938,5.6325,5.6055,5.5344,5.4735,5.4499,5.4228,5.3619,5.3518,5.3518,5.3518,5.3518,5.3518,5.3518,5.3518,5.3518,5.3518,5.3518,5.3518,5.3518,5.3518,5.345,5.3315,5.345,5.345,5.3315,5.345,5.3717,5.4267,5.375,5.3518,5.3518,5.4011,5.4328,5.4482,5.5184,5.5907,5.6616,5.6887,5.7327,5.7881,5.7973,5.7997,5.7973,5.7997,5.7997,5.7973,5.7997,5.7997,5.7997,5.7997,5.7997,5.7997,6.6812,6.6812,6.6812,6.6812,6.6474,6.6102,6.573,6.5358,6.4715,6.3666,6.3531,6.3226,6.2482,6.2381,6.2381,6.2381,6.2381,6.2516,6.2888,6.2584,6.2381,6.2381,6.2009,6.1434,6.0588,5.9877,5.9167,5.8423,5.8761,5.9302,6.0114,6.0486,6.0689,6.0689,5.9539,5.822,5.6833,5.6055,5.531,5.4702,5.4702,5.4905,5.5209,5.5209,5.5412,5.5681,5.5681,5.619,5.6731,5.6359,5.6968,5.7814,5.7442,5.7577,5.7881,5.7881,5.7103,5.5987,5.4871,5.4329,5.4262,5.4938,5.5446,5.5953,5.663,5.6562,5.6089,5.5344,5.4871,5.4363,5.3653,5.3518,5.3518,5.3518,5.3518,5.3518,5.3518,5.3518,5.3518,5.3518,5.3518,5.3518,5.3518,5.3518,5.3518,5.3518,5.3816,5.3979,5.3979,5.3979,5.433,5.5004,5.473,5.4422,5.4106,5.4757,5.5208,5.5355,5.5731,5.6295,5.7015,5.7065,5.7425,5.7997,5.7997,5.7997,5.7997,5.7997,5.7997,5.7997,5.7997,5.7997,5.7997,5.7997,5.7997,5.7997,6.6812,6.6812,6.6779,6.6576,6.6068,6.5561,6.5222,6.4715,6.4072,6.3362,6.326,6.3024,6.2448,6.2381,6.2448,6.2618,6.2651,6.2719,6.2888,6.2888,6.2685,6.2144,6.1434,6.0385,5.9032,5.9032,5.866,5.7881,5.8051,5.8829,6.0114,6.0283,6.0723,6.1264,6.008,5.893,5.7814,5.6697,5.6021,5.5681,5.5681,5.5783,5.5987,5.5987,5.6089,5.6224,5.6224,5.6596,5.6968,5.6393,5.6968,5.7746,5.7036,5.7171,5.7611,5.7442,5.6461,5.5344,5.4735,5.46,5.4634,5.4803,5.5852,5.6833,5.7036,5.707,5.6799,5.5919,5.5243,5.4566,5.3687,5.3518,5.3518,5.3518,5.3518,5.3518,5.3518,5.3518,5.3518,5.3518,5.3518,5.3518,5.3518,5.3685,5.375,5.375,5.4328,5.4699,5.4668,5.4699,5.5004,5.5594,5.5588,5.5326,5.4818,5.5552,5.6039,5.6204,5.634,5.6721,5.729,5.729,5.7546,5.7997,5.7997,5.7997,5.7997,5.7997,5.7997,5.7997,5.7997,5.7997,5.7997,5.7997,5.7997,5.7997,6.6812,6.6812,6.6576,6.5899,6.573,6.5222,6.3869,6.3632,6.3328,6.2584,6.2482,6.2448,6.2381,6.2381,6.2685,6.3362,6.3429,6.3734,6.4377,6.4444,6.3531,6.1467,6.0622,5.981,5.9032,5.9032,5.866,5.7881,5.8592,5.9336,6.0114,6.0858,6.1231,6.1298,6.1197,5.9945,5.7881,5.778,5.6934,5.5681,5.5681,5.6122,5.6731,5.6731,5.7137,5.7712,5.7712,5.7746,5.7814,5.7746,5.7814,5.7746,5.7036,5.6833,5.6765,5.6089,5.531,5.4668,5.46,5.46,5.4769,5.5446,5.6224,5.6968,5.7645,5.7814,5.7408,5.6021,5.5683,5.5209,5.3754,5.3518,5.3518,5.3518,5.3518,5.3518,5.3518,5.3518,5.3518,5.3518,5.3518,5.3518,5.3518,5.4106,5.4513,5.4513,5.5173,5.5552,5.5443,5.5524,5.5638,5.5695,5.5731,5.5645,5.5443,5.624,5.6704,5.6835,5.7401,5.775,5.795,5.795,5.7973,5.7997,5.7997,5.7997,5.7997,5.7997,5.7997,5.7997,5.7997,5.7997,5.7997,5.7997,5.7997,5.7997,6.6812,6.644,6.6034,6.573,6.4952,6.414,6.3599,6.3125,6.2719,6.2415,6.2381,6.2381,6.2381,6.2821,6.3193,6.3497,6.3937,6.4309,6.458,6.4613,6.3599,6.14,6.008,5.9066,5.8321,5.8321,5.8186,5.7881,5.8186,5.893,6.0114,6.0419,6.0825,6.1298,6.0791,5.981,5.8558,5.8084,5.7577,5.707,5.707,5.7239,5.7476,5.7476,5.7645,5.7814,5.7374,5.7509,5.7814,5.7374,5.7509,5.7848,5.7577,5.7476,5.734,5.6596,5.5547,5.46,5.46,5.4938,5.548,5.6224,5.6934,5.7543,5.7814,5.7881,5.7476,5.6021,5.5681,5.5277,5.3788,5.3518,5.3518,5.3518,5.3518,5.3518,5.3518,5.3518,5.3518,5.3518,5.3518,5.3651,5.4044,5.4391,5.4757,5.5149,5.5872,5.6322,5.6267,5.6642,5.6721,5.6349,5.6773,5.6799,5.6367,5.7116,5.7522,5.757,5.7797,5.795,5.7997,5.7997,5.7997,5.7997,5.7997,5.7997,5.7997,5.7997,5.7997,5.7997,5.7997,5.7997,5.7997,5.7997,5.7997,5.7997,6.644,6.5865,6.5256,6.5053,6.4174,6.3429,6.3193,6.2719,6.2381,6.2381,6.2381,6.2381,6.2381,6.3057,6.3599,6.3835,6.4512,6.5053,6.529,6.485,6.3734,6.1738,6.0182,5.9099,5.8592,5.8118,5.8017,5.8254,5.8017,5.866,6.0114,6.0114,6.052,6.1298,6.0723,5.9945,5.8998,5.8457,5.8084,5.7881,5.7881,5.7881,5.7881,5.7881,5.7881,5.7814,5.734,5.7476,5.7848,5.7577,5.7679,5.7881,5.7881,5.7577,5.7103,5.6596,5.575,5.4938,5.4938,5.531,5.5817,5.6325,5.7171,5.7881,5.7881,5.7881,5.7543,5.6325,5.6055,5.5615,5.4126,5.3856,5.3788,5.3551,5.3518,5.3518,5.3518,5.3518,5.3518,5.3518,5.3518,5.3717,5.4328,5.4699,5.5179,5.5816,5.6589,5.7076,5.7127,5.7461,5.751,5.7127,5.7607,5.7679,5.7252,5.775,5.7997,5.7997,5.7997,5.7997,5.7997,5.7997,5.7997,5.7997,5.7997,5.7997,5.7997,5.7997,5.7997,5.7997,5.7997,5.7997,5.7997,5.7997,5.7997,5.7997,6.5662,6.5087,6.4377,6.3632,6.3531,6.326,6.2516,6.2381,6.2381,6.2381,6.2381,6.2381,6.2415,6.3057,6.3835,6.4546,6.5256,6.6,6.6779,6.5425,6.3971,6.2482,6.0926,6.0114,6.0114,5.866,5.8254,5.9032,5.8254,5.866,6.0114,6.0114,6.0554,6.1298,6.1298,6.0452,5.9032,5.9032,5.8592,5.7915,5.7915,5.7881,5.7881,5.7881,5.7881,5.7915,5.7881,5.7881,5.8017,5.8761,5.8524,5.7881,5.7881,5.69,5.5716,5.5681,5.5681,5.5681,5.5681,5.5681,5.5681,5.5716,5.6799,5.7881,5.7881,5.7881,5.7679,5.6934,5.6799,5.6359,5.4871,5.46,5.4363,5.3619,5.3518,5.3518,5.3518,5.3518,5.3518,5.3518,5.3518,5.3717,5.4328,5.5059,5.5844,5.6652,5.7376,5.7881,5.7997,5.7881,5.7881,5.7997,5.7997,5.7997,5.7997,5.7997,5.7997,5.7997,5.7997,5.7997,5.7997,5.7997,5.7997,5.7997,5.7997,5.7997,5.7997,5.7997,5.7997,5.7997,5.7997,5.7997,5.7997,5.7997,5.7997,5.7997,6.4918,6.4343,6.3768,6.3565,6.3091,6.2651,6.2415,6.2381,6.2381,6.2381,6.2381,6.2584,6.3125,6.3835,6.458,6.529,6.6034,6.6576,6.6812,6.6406,6.573,6.4749,6.2787,6.1197,6.0114,5.9674,5.9302,5.9032,5.8795,5.9167,6.0114,6.0689,6.1366,6.2042,6.1535,6.1061,6.0588,6.0013,5.937,5.8693,5.8693,5.8355,5.7881,5.7881,5.822,5.8592,5.8084,5.822,5.8626,5.8321,5.8084,5.7814,5.7273,5.6833,5.6292,5.5243,5.531,5.5615,5.5074,5.531,5.5817,5.6359,5.6799,5.7273,5.778,5.7881,5.7543,5.6292,5.6461,5.619,5.4194,5.4262,5.4363,5.3619,5.3518,5.3518,5.3518,5.3518,5.3518,5.3518,5.3518,5.3881,5.4944,5.5326,5.6012,5.7227,5.7703,5.795,5.7997,5.7973,5.7973,5.7997,5.7997,5.7997,5.7997,5.7997,5.7997,5.7997,5.7997,5.7997,5.7997,5.7997,5.7997,5.7997,5.7997,5.7997,5.7997,5.7997,5.7997,5.7997,5.7997,5.7997,5.7997,5.7997,5.7997,5.7997,6.4174,6.3565,6.3057,6.3057,6.2685,6.2381,6.2381,6.2381,6.2482,6.2787,6.2854,6.3125,6.3869,6.458,6.5222,6.5662,6.6373,6.6812,6.6812,6.6812,6.6339,6.529,6.4241,6.299,6.1501,6.0554,6.0047,5.9911,5.9607,5.9844,6.0588,6.1061,6.167,6.2381,6.1941,6.1569,6.1264,6.0791,6.0148,5.9404,5.9133,5.8727,5.8287,5.8017,5.8355,5.8964,5.849,5.8626,5.8998,5.8829,5.8592,5.8254,5.7814,5.7273,5.663,5.5716,5.5581,5.548,5.4431,5.4702,5.5378,5.5818,5.6359,5.6934,5.734,5.7679,5.7645,5.6765,5.6934,5.6664,5.4735,5.4735,5.4702,5.3687,5.3684,5.3882,5.3882,5.4076,5.4141,5.3915,5.4076,5.452,5.5243,5.5623,5.6322,5.751,5.7857,5.7997,5.7997,5.7997,5.7997,5.7997,5.7997,5.7997,5.7997,5.7997,5.7997,5.7997,5.7997,5.7997,5.7997,5.7997,5.7997,5.7997,5.7997,5.7997,5.7997,5.7997,5.7997,5.7997,5.7997,5.7997,5.7997,5.7997,5.7997,5.7997,6.3429,6.2854,6.2415,6.2482,6.2482,6.2516,6.2584,6.2584,6.2821,6.3531,6.3599,6.3903,6.4613,6.529,6.573,6.5764,6.6406,6.6812,6.6812,6.6812,6.6203,6.485,6.5358,6.5019,6.3632,6.1366,6.052,6.1197,6.0452,6.0486,6.1197,6.1332,6.1772,6.2381,6.2381,6.2009,6.14,6.14,6.0926,6.0148,5.9404,5.9066,5.893,5.8186,5.8355,5.9032,5.9032,5.9032,5.9099,5.9708,5.9471,5.8896,5.8829,5.7983,5.6934,5.6697,5.6292,5.5581,5.4025,5.4093,5.46,5.4668,5.5716,5.6731,5.6799,5.7374,5.7881,5.7814,5.7848,5.7478,5.6057,5.5786,5.5347,5.3991,5.4175,5.4485,5.4485,5.5009,5.5159,5.4579,5.5009,5.5432,5.549,5.6063,5.674,5.7534,5.7857,5.7997,5.7997,5.7997,5.7997,5.7997,5.7997,5.7997,5.7997,5.7997,5.7997,5.7997,5.7997,5.7997,5.7997,5.7997,5.7997,5.7997,5.7997,5.7997,5.7997,5.7997,5.7997,5.7997,5.7997,5.7997,5.7997,5.7997,5.7997,5.7997,6.2618,6.2516,6.2584,6.3159,6.326,6.3463,6.4038,6.4106,6.4174,6.4343,6.4377,6.4647,6.5358,6.5595,6.5933,6.6508,6.6711,6.6812,6.6812,6.6812,6.6677,6.6339,6.5933,6.5256,6.4377,6.2178,6.0825,6.0351,6.0182,6.0182,6.0385,6.1603,6.2245,6.2381,6.2381,6.2313,6.2144,6.2144,6.1738,6.096,6.0182,5.9539,5.893,5.8186,5.8355,5.9032,5.9032,5.9032,5.8964,5.8524,5.8254,5.8051,5.7476,5.7848,5.8084,5.575,5.619,5.6968,5.4905,5.4465,5.4735,5.5344,5.5716,5.6089,5.6664,5.7374,5.7712,5.7171,5.7476,5.7588,5.6644,5.647,5.6291,5.5931,5.5453,5.5159,5.5159,5.5313,5.5373,5.5189,5.5313,5.5607,5.6063,5.6845,5.7412,5.7583,5.7857,5.7997,5.7997,5.7997,5.7997,5.7997,5.7997,5.7997,5.7997,5.7997,5.7997,5.7997,5.7997,5.7997,5.7997,5.7997,5.7997,5.7997,5.7997,5.7997,5.7997,5.7997,5.7997,5.7997,5.7997,5.7997,5.7997,5.7997,5.7997,5.7997,6.2854,6.2922,6.3159,6.3903,6.4038,6.4174,6.4546,6.4613,6.4715,6.5087,6.5121,6.5392,6.6136,6.6203,6.6373,6.6779,6.6812,6.6812,6.6812,6.6812,6.6643,6.6305,6.5899,6.5358,6.4613,6.2787,6.1603,6.1197,6.0858,6.0858,6.1197,6.167,6.2042,6.2381,6.2381,6.2381,6.2381,6.2381,6.1975,6.1264,6.0858,6.0013,5.8964,5.8592,5.866,5.9032,5.9032,5.9032,5.8964,5.8558,5.8186,5.7814,5.7442,5.7374,5.7205,5.5987,5.5953,5.6156,5.5344,5.5108,5.5209,5.5615,5.5987,5.6325,5.6697,5.7374,5.778,5.7408,5.7865,5.8151,5.7359,5.748,5.7523,5.7127,5.6717,5.6396,5.6396,5.6332,5.6138,5.5865,5.6055,5.6393,5.6688,5.7264,5.7583,5.7583,5.7857,5.7997,5.7997,5.7997,5.7997,5.7997,5.7997,5.7997,5.7997,5.7997,5.7997,5.7997,5.7997,5.7997,5.7997,5.7997,5.7997,5.7997,5.7997,5.7997,5.7997,5.7997,5.7997,5.7997,5.7997,5.7997,5.7997,5.7997,5.7997,5.7997,6.3599,6.37,6.3937,6.4647,6.4783,6.4816,6.4952,6.4986,6.5189,6.5797,6.5865,6.6102,6.6745,6.6711,6.6609,6.6609,6.6609,6.6677,6.6812,6.6812,6.6542,6.5899,6.5865,6.5527,6.4783,6.3565,6.2753,6.2381,6.1535,6.14,6.1975,6.1535,6.1637,6.2212,6.2347,6.2381,6.2381,6.2381,6.2042,6.1467,6.1197,6.0351,5.9167,5.893,5.8829,5.8829,5.8964,5.9032,5.8998,5.8863,5.8423,5.7881,5.7746,5.7036,5.6325,5.6562,5.5919,5.5277,5.5784,5.5818,5.5784,5.6021,5.6461,5.6833,5.6968,5.7442,5.7918,5.8063,5.8528,5.8804,5.8415,5.8689,5.8809,5.833,5.7918,5.762,5.762,5.7375,5.701,5.6501,5.6933,5.7239,5.7264,5.7461,5.7583,5.7607,5.7857,5.7973,5.7997,5.7997,5.7997,5.7997,5.7997,5.7997,5.7997,5.7997,5.7997,5.7997,5.7997,5.7997,5.7997,5.7997,5.7997,5.7997,5.7997,5.7997,5.7997,5.7997,5.7997,5.7997,5.7997,5.7997,5.7997,5.7997,5.7997,5.7997,6.4444,6.4444,6.4681,6.5425,6.5527,6.5764,6.6406,6.6508,6.6542,6.6643,6.6677,6.6711,6.6812,6.6237,6.5831,6.5831,6.5831,6.6102,6.6779,6.6812,6.6779,6.6677,6.6677,6.6305,6.5561,6.5358,6.4309,6.2381,6.096,6.0317,6.0419,6.1028,6.1366,6.1467,6.211,6.2381,6.2381,6.2381,6.2347,6.211,6.0791,6.0148,5.981,5.8524,5.8051,5.8118,5.8795,5.9032,5.893,5.8254,5.7983,5.778,5.7137,5.7679,5.822,5.6393,5.6596,5.734,5.6799,5.619,5.6021,5.7273,5.7205,5.6968,5.7611,5.7814,5.8065,5.8633,5.8841,5.9245,6.0357,6.0096,5.9802,6.0303,5.9203,5.828,5.828,5.7644,5.7163,5.7087,5.7239,5.7412,5.7534,5.7559,5.7631,5.775,5.781,5.7881,5.7997,5.7997,5.7997,5.7997,5.7997,5.7997,5.7997,5.7997,5.7997,5.7997,5.7997,5.7997,5.7997,5.7997,5.7997,5.7997,5.7997,5.7997,5.7997,5.7997,5.7997,5.7997,5.7997,5.7997,5.7997,5.7997,5.7997,5.7997,6.5053,6.5222,6.5425,6.6203,6.6305,6.644,6.6779,6.6812,6.6812,6.6812,6.644,6.6203,6.6203,6.5865,6.5696,6.5696,6.6068,6.644,6.6779,6.6812,6.6812,6.6812,6.6812,6.6643,6.6339,6.5899,6.5019,6.3632,6.1704,6.0757,6.0757,6.025,6.025,6.0655,6.096,6.1129,6.1129,6.1603,6.1298,6.052,6.0689,6.0013,5.8829,5.8626,5.8524,5.8626,5.937,5.9099,5.8457,5.8964,5.8558,5.7814,5.7509,5.7577,5.7577,5.6596,5.707,5.7915,5.8017,5.8084,5.822,5.8457,5.8287,5.8017,5.7915,5.8209,5.8563,5.8841,5.9511,6.0246,6.0897,6.1028,6.1132,6.1408,6.052,5.9579,5.9144,5.8383,5.7721,5.7361,5.7289,5.7363,5.7559,5.7583,5.7667,5.781,5.7881,5.795,5.7997,5.7997,5.7997,5.7997,5.7997,5.7997,5.7997,5.7997,5.7997,5.7997,5.7997,5.7997,5.7997,5.7997,5.7997,5.7997,5.7997,5.7997,5.7997,5.7997,5.7997,5.7997,5.7997,5.7997,5.7997,5.7997,5.7997,5.7997]}]]